<?xml version="1.0" encoding="UTF-8" standalone="no" ?>
<gpx xmlns="http://www.topografix.com/GPX/1/1" xmlns:xsi="http://www.w3.org/2001/XMLSchema-instance" xsi:schemaLocation="http://www.topografix.com/GPX/1/1 http://www.topografix.com/GPX/1/1/gpx.xsd" version="1.1" creator="VisuGPX - https://www.visugpx.com">
  <metadata>
    <name>Randonnée Franqueville</name>
    <desc><![CDATA[Circuit au départ de Franqueville St Pierre avec un retour par Epinay]]></desc>
  </metadata>
  <trk>
    <name><![CDATA[Randonnée Franqueville_1]]></name>
    <trkseg>
      <trkpt lat="49.40308" lon="1.17206">
        <ele>151</ele>
        <time>2017-06-06T13:31:41Z</time>
      </trkpt>
      <trkpt lat="49.4031" lon="1.1721">
        <ele>151</ele>
        <time>2017-06-06T13:31:42Z</time>
      </trkpt>
      <trkpt lat="49.40318" lon="1.17193">
        <ele>151</ele>
        <time>2017-06-06T13:31:42Z</time>
      </trkpt>
      <trkpt lat="49.40321" lon="1.17196">
        <ele>151</ele>
        <time>2017-06-06T13:31:42Z</time>
      </trkpt>
      <trkpt lat="49.40324" lon="1.17197">
        <ele>151</ele>
        <time>2017-06-06T13:33:46Z</time>
      </trkpt>
      <trkpt lat="49.40324" lon="1.17195">
        <ele>151</ele>
        <time>2017-06-06T13:33:46Z</time>
      </trkpt>
      <trkpt lat="49.40324" lon="1.17192">
        <ele>151</ele>
        <time>2017-06-06T13:33:46Z</time>
      </trkpt>
      <trkpt lat="49.4033" lon="1.17191">
        <ele>151</ele>
        <time>2017-06-06T13:33:46Z</time>
      </trkpt>
      <trkpt lat="49.40334" lon="1.17195">
        <ele>151</ele>
        <time>2017-06-06T13:33:46Z</time>
      </trkpt>
      <trkpt lat="49.40333" lon="1.17207">
        <ele>151</ele>
        <time>2017-06-06T13:34:02Z</time>
      </trkpt>
      <trkpt lat="49.40338" lon="1.17213">
        <ele>151</ele>
        <time>2017-06-06T13:34:02Z</time>
      </trkpt>
      <trkpt lat="49.40341" lon="1.17214">
        <ele>151</ele>
        <time>2017-06-06T13:34:02Z</time>
      </trkpt>
      <trkpt lat="49.40345" lon="1.17219">
        <ele>151</ele>
        <time>2017-06-06T13:34:02Z</time>
      </trkpt>
      <trkpt lat="49.40349" lon="1.17229">
        <ele>151</ele>
        <time>2017-06-06T13:34:19Z</time>
      </trkpt>
      <trkpt lat="49.40352" lon="1.17234">
        <ele>151</ele>
        <time>2017-06-06T13:34:19Z</time>
      </trkpt>
      <trkpt lat="49.40357" lon="1.1724">
        <ele>151</ele>
        <time>2017-06-06T13:34:19Z</time>
      </trkpt>
      <trkpt lat="49.4036" lon="1.17244">
        <ele>151</ele>
        <time>2017-06-06T13:34:19Z</time>
      </trkpt>
      <trkpt lat="49.40366" lon="1.17248">
        <ele>151</ele>
        <time>2017-06-06T13:34:33Z</time>
      </trkpt>
      <trkpt lat="49.40369" lon="1.17251">
        <ele>151</ele>
        <time>2017-06-06T13:34:34Z</time>
      </trkpt>
      <trkpt lat="49.40374" lon="1.17254">
        <ele>151</ele>
        <time>2017-06-06T13:34:34Z</time>
      </trkpt>
      <trkpt lat="49.40378" lon="1.17256">
        <ele>153</ele>
        <time>2017-06-06T13:34:34Z</time>
      </trkpt>
      <trkpt lat="49.40383" lon="1.17258">
        <ele>153</ele>
        <time>2017-06-06T13:34:49Z</time>
      </trkpt>
      <trkpt lat="49.40388" lon="1.1726">
        <ele>153</ele>
        <time>2017-06-06T13:34:50Z</time>
      </trkpt>
      <trkpt lat="49.40392" lon="1.17262">
        <ele>153</ele>
        <time>2017-06-06T13:34:50Z</time>
      </trkpt>
      <trkpt lat="49.40396" lon="1.17265">
        <ele>153</ele>
        <time>2017-06-06T13:34:50Z</time>
      </trkpt>
      <trkpt lat="49.40401" lon="1.17267">
        <ele>153</ele>
        <time>2017-06-06T13:35:05Z</time>
      </trkpt>
      <trkpt lat="49.40406" lon="1.17268">
        <ele>153</ele>
        <time>2017-06-06T13:35:06Z</time>
      </trkpt>
      <trkpt lat="49.4041" lon="1.1727">
        <ele>153</ele>
        <time>2017-06-06T13:35:06Z</time>
      </trkpt>
      <trkpt lat="49.40415" lon="1.17274">
        <ele>153</ele>
        <time>2017-06-06T13:35:06Z</time>
      </trkpt>
      <trkpt lat="49.40419" lon="1.17276">
        <ele>153</ele>
        <time>2017-06-06T13:35:21Z</time>
      </trkpt>
      <trkpt lat="49.40423" lon="1.1728">
        <ele>153</ele>
        <time>2017-06-06T13:35:22Z</time>
      </trkpt>
      <trkpt lat="49.40428" lon="1.17283">
        <ele>153</ele>
        <time>2017-06-06T13:35:22Z</time>
      </trkpt>
      <trkpt lat="49.40432" lon="1.17287">
        <ele>153</ele>
        <time>2017-06-06T13:35:22Z</time>
      </trkpt>
      <trkpt lat="49.40436" lon="1.17291">
        <ele>153</ele>
        <time>2017-06-06T13:35:37Z</time>
      </trkpt>
      <trkpt lat="49.40443" lon="1.17293">
        <ele>153</ele>
        <time>2017-06-06T13:35:38Z</time>
      </trkpt>
      <trkpt lat="49.40447" lon="1.17297">
        <ele>153</ele>
        <time>2017-06-06T13:35:38Z</time>
      </trkpt>
      <trkpt lat="49.40453" lon="1.17304">
        <ele>153</ele>
        <time>2017-06-06T13:35:38Z</time>
      </trkpt>
      <trkpt lat="49.40456" lon="1.17311">
        <ele>153</ele>
        <time>2017-06-06T13:35:53Z</time>
      </trkpt>
      <trkpt lat="49.40459" lon="1.17316">
        <ele>156</ele>
        <time>2017-06-06T13:35:54Z</time>
      </trkpt>
      <trkpt lat="49.40464" lon="1.17319">
        <ele>156</ele>
        <time>2017-06-06T13:35:54Z</time>
      </trkpt>
      <trkpt lat="49.40468" lon="1.17324">
        <ele>156</ele>
        <time>2017-06-06T13:35:54Z</time>
      </trkpt>
      <trkpt lat="49.40471" lon="1.1733">
        <ele>156</ele>
        <time>2017-06-06T13:36:09Z</time>
      </trkpt>
      <trkpt lat="49.40475" lon="1.17335">
        <ele>156</ele>
        <time>2017-06-06T13:36:10Z</time>
      </trkpt>
      <trkpt lat="49.40481" lon="1.17339">
        <ele>156</ele>
        <time>2017-06-06T13:36:10Z</time>
      </trkpt>
      <trkpt lat="49.40484" lon="1.17345">
        <ele>156</ele>
        <time>2017-06-06T13:36:10Z</time>
      </trkpt>
      <trkpt lat="49.40488" lon="1.1735">
        <ele>156</ele>
        <time>2017-06-06T13:36:25Z</time>
      </trkpt>
      <trkpt lat="49.40492" lon="1.17356">
        <ele>156</ele>
        <time>2017-06-06T13:36:26Z</time>
      </trkpt>
      <trkpt lat="49.40498" lon="1.17361">
        <ele>156</ele>
        <time>2017-06-06T13:36:26Z</time>
      </trkpt>
      <trkpt lat="49.40501" lon="1.17364">
        <ele>156</ele>
        <time>2017-06-06T13:36:26Z</time>
      </trkpt>
      <trkpt lat="49.40505" lon="1.17369">
        <ele>156</ele>
        <time>2017-06-06T13:36:41Z</time>
      </trkpt>
      <trkpt lat="49.40509" lon="1.17374">
        <ele>156</ele>
        <time>2017-06-06T13:36:42Z</time>
      </trkpt>
      <trkpt lat="49.40513" lon="1.1738">
        <ele>156</ele>
        <time>2017-06-06T13:36:42Z</time>
      </trkpt>
      <trkpt lat="49.40518" lon="1.17387">
        <ele>156</ele>
        <time>2017-06-06T13:36:42Z</time>
      </trkpt>
      <trkpt lat="49.40522" lon="1.17392">
        <ele>156</ele>
        <time>2017-06-06T13:36:57Z</time>
      </trkpt>
      <trkpt lat="49.40526" lon="1.17397">
        <ele>156</ele>
        <time>2017-06-06T13:36:58Z</time>
      </trkpt>
      <trkpt lat="49.4053" lon="1.174">
        <ele>156</ele>
        <time>2017-06-06T13:36:58Z</time>
      </trkpt>
      <trkpt lat="49.40534" lon="1.17402">
        <ele>156</ele>
        <time>2017-06-06T13:36:58Z</time>
      </trkpt>
      <trkpt lat="49.40539" lon="1.17406">
        <ele>156</ele>
        <time>2017-06-06T13:37:13Z</time>
      </trkpt>
      <trkpt lat="49.40543" lon="1.17411">
        <ele>158</ele>
        <time>2017-06-06T13:37:14Z</time>
      </trkpt>
      <trkpt lat="49.40548" lon="1.17416">
        <ele>158</ele>
        <time>2017-06-06T13:37:14Z</time>
      </trkpt>
      <trkpt lat="49.40552" lon="1.1742">
        <ele>158</ele>
        <time>2017-06-06T13:37:14Z</time>
      </trkpt>
      <trkpt lat="49.40555" lon="1.17421">
        <ele>158</ele>
        <time>2017-06-06T13:37:29Z</time>
      </trkpt>
      <trkpt lat="49.4056" lon="1.17424">
        <ele>158</ele>
        <time>2017-06-06T13:37:30Z</time>
      </trkpt>
      <trkpt lat="49.40564" lon="1.1743">
        <ele>158</ele>
        <time>2017-06-06T13:37:30Z</time>
      </trkpt>
      <trkpt lat="49.40568" lon="1.17435">
        <ele>158</ele>
        <time>2017-06-06T13:37:30Z</time>
      </trkpt>
      <trkpt lat="49.40572" lon="1.1744">
        <ele>158</ele>
        <time>2017-06-06T13:37:45Z</time>
      </trkpt>
      <trkpt lat="49.40574" lon="1.17446">
        <ele>158</ele>
        <time>2017-06-06T13:37:46Z</time>
      </trkpt>
      <trkpt lat="49.4058" lon="1.1745">
        <ele>158</ele>
        <time>2017-06-06T13:37:46Z</time>
      </trkpt>
      <trkpt lat="49.40584" lon="1.17454">
        <ele>158</ele>
        <time>2017-06-06T13:37:46Z</time>
      </trkpt>
      <trkpt lat="49.40588" lon="1.17461">
        <ele>158</ele>
        <time>2017-06-06T13:38:01Z</time>
      </trkpt>
      <trkpt lat="49.40592" lon="1.17466">
        <ele>158</ele>
        <time>2017-06-06T13:38:02Z</time>
      </trkpt>
      <trkpt lat="49.40595" lon="1.17471">
        <ele>158</ele>
        <time>2017-06-06T13:38:02Z</time>
      </trkpt>
      <trkpt lat="49.406" lon="1.17473">
        <ele>158</ele>
        <time>2017-06-06T13:38:02Z</time>
      </trkpt>
      <trkpt lat="49.40605" lon="1.17478">
        <ele>158</ele>
        <time>2017-06-06T13:38:17Z</time>
      </trkpt>
      <trkpt lat="49.40609" lon="1.17484">
        <ele>158</ele>
        <time>2017-06-06T13:38:18Z</time>
      </trkpt>
      <trkpt lat="49.40614" lon="1.17488">
        <ele>158</ele>
        <time>2017-06-06T13:38:18Z</time>
      </trkpt>
      <trkpt lat="49.40618" lon="1.17494">
        <ele>158</ele>
        <time>2017-06-06T13:38:18Z</time>
      </trkpt>
      <trkpt lat="49.40623" lon="1.17498">
        <ele>158</ele>
        <time>2017-06-06T13:38:33Z</time>
      </trkpt>
      <trkpt lat="49.40627" lon="1.17502">
        <ele>159</ele>
        <time>2017-06-06T13:38:34Z</time>
      </trkpt>
      <trkpt lat="49.40631" lon="1.17504">
        <ele>159</ele>
        <time>2017-06-06T13:38:34Z</time>
      </trkpt>
      <trkpt lat="49.40635" lon="1.17506">
        <ele>159</ele>
        <time>2017-06-06T13:38:34Z</time>
      </trkpt>
      <trkpt lat="49.40639" lon="1.17512">
        <ele>159</ele>
        <time>2017-06-06T13:38:49Z</time>
      </trkpt>
      <trkpt lat="49.40643" lon="1.17518">
        <ele>159</ele>
        <time>2017-06-06T13:38:50Z</time>
      </trkpt>
      <trkpt lat="49.40647" lon="1.17521">
        <ele>159</ele>
        <time>2017-06-06T13:38:50Z</time>
      </trkpt>
      <trkpt lat="49.40651" lon="1.17526">
        <ele>159</ele>
        <time>2017-06-06T13:38:50Z</time>
      </trkpt>
      <trkpt lat="49.40655" lon="1.17532">
        <ele>159</ele>
        <time>2017-06-06T13:39:05Z</time>
      </trkpt>
      <trkpt lat="49.40658" lon="1.17539">
        <ele>159</ele>
        <time>2017-06-06T13:39:06Z</time>
      </trkpt>
      <trkpt lat="49.40662" lon="1.17545">
        <ele>158</ele>
        <time>2017-06-06T13:39:06Z</time>
      </trkpt>
      <trkpt lat="49.40665" lon="1.1755">
        <ele>158</ele>
        <time>2017-06-06T13:39:06Z</time>
      </trkpt>
      <trkpt lat="49.40669" lon="1.17555">
        <ele>158</ele>
        <time>2017-06-06T13:39:21Z</time>
      </trkpt>
      <trkpt lat="49.40673" lon="1.17561">
        <ele>158</ele>
        <time>2017-06-06T13:39:22Z</time>
      </trkpt>
      <trkpt lat="49.40678" lon="1.17565">
        <ele>158</ele>
        <time>2017-06-06T13:39:22Z</time>
      </trkpt>
      <trkpt lat="49.40682" lon="1.17571">
        <ele>158</ele>
        <time>2017-06-06T13:39:22Z</time>
      </trkpt>
      <trkpt lat="49.40685" lon="1.1758">
        <ele>158</ele>
        <time>2017-06-06T13:39:39Z</time>
      </trkpt>
      <trkpt lat="49.40686" lon="1.17586">
        <ele>158</ele>
        <time>2017-06-06T13:39:39Z</time>
      </trkpt>
      <trkpt lat="49.40689" lon="1.17596">
        <ele>158</ele>
        <time>2017-06-06T13:39:39Z</time>
      </trkpt>
      <trkpt lat="49.40691" lon="1.176">
        <ele>158</ele>
        <time>2017-06-06T13:39:39Z</time>
      </trkpt>
      <trkpt lat="49.40695" lon="1.17605">
        <ele>158</ele>
        <time>2017-06-06T13:39:54Z</time>
      </trkpt>
      <trkpt lat="49.407" lon="1.17609">
        <ele>158</ele>
        <time>2017-06-06T13:39:54Z</time>
      </trkpt>
      <trkpt lat="49.40705" lon="1.17612">
        <ele>158</ele>
        <time>2017-06-06T13:39:54Z</time>
      </trkpt>
      <trkpt lat="49.4071" lon="1.17617">
        <ele>158</ele>
        <time>2017-06-06T13:39:54Z</time>
      </trkpt>
      <trkpt lat="49.40714" lon="1.17622">
        <ele>158</ele>
        <time>2017-06-06T13:40:11Z</time>
      </trkpt>
      <trkpt lat="49.40718" lon="1.17626">
        <ele>157</ele>
        <time>2017-06-06T13:40:11Z</time>
      </trkpt>
      <trkpt lat="49.40723" lon="1.17629">
        <ele>157</ele>
        <time>2017-06-06T13:40:11Z</time>
      </trkpt>
      <trkpt lat="49.40727" lon="1.17631">
        <ele>157</ele>
        <time>2017-06-06T13:40:11Z</time>
      </trkpt>
      <trkpt lat="49.40732" lon="1.17634">
        <ele>157</ele>
        <time>2017-06-06T13:40:27Z</time>
      </trkpt>
      <trkpt lat="49.40737" lon="1.17638">
        <ele>157</ele>
        <time>2017-06-06T13:40:27Z</time>
      </trkpt>
      <trkpt lat="49.40743" lon="1.17639">
        <ele>157</ele>
        <time>2017-06-06T13:40:27Z</time>
      </trkpt>
      <trkpt lat="49.40748" lon="1.17641">
        <ele>157</ele>
        <time>2017-06-06T13:40:27Z</time>
      </trkpt>
      <trkpt lat="49.40752" lon="1.17639">
        <ele>157</ele>
        <time>2017-06-06T13:40:42Z</time>
      </trkpt>
      <trkpt lat="49.40757" lon="1.17638">
        <ele>157</ele>
        <time>2017-06-06T13:40:42Z</time>
      </trkpt>
      <trkpt lat="49.40762" lon="1.17633">
        <ele>157</ele>
        <time>2017-06-06T13:40:42Z</time>
      </trkpt>
      <trkpt lat="49.40766" lon="1.17628">
        <ele>157</ele>
        <time>2017-06-06T13:40:42Z</time>
      </trkpt>
      <trkpt lat="49.40769" lon="1.17622">
        <ele>158</ele>
        <time>2017-06-06T13:40:59Z</time>
      </trkpt>
      <trkpt lat="49.40773" lon="1.17619">
        <ele>158</ele>
        <time>2017-06-06T13:40:59Z</time>
      </trkpt>
      <trkpt lat="49.40777" lon="1.17613">
        <ele>158</ele>
        <time>2017-06-06T13:40:59Z</time>
      </trkpt>
      <trkpt lat="49.40782" lon="1.17607">
        <ele>158</ele>
        <time>2017-06-06T13:40:59Z</time>
      </trkpt>
      <trkpt lat="49.40785" lon="1.17603">
        <ele>158</ele>
        <time>2017-06-06T13:41:15Z</time>
      </trkpt>
      <trkpt lat="49.40788" lon="1.17597">
        <ele>158</ele>
        <time>2017-06-06T13:41:15Z</time>
      </trkpt>
      <trkpt lat="49.40791" lon="1.17592">
        <ele>158</ele>
        <time>2017-06-06T13:41:15Z</time>
      </trkpt>
      <trkpt lat="49.40795" lon="1.17586">
        <ele>157</ele>
        <time>2017-06-06T13:41:15Z</time>
      </trkpt>
      <trkpt lat="49.40798" lon="1.17582">
        <ele>157</ele>
        <time>2017-06-06T13:41:29Z</time>
      </trkpt>
      <trkpt lat="49.40803" lon="1.17577">
        <ele>157</ele>
        <time>2017-06-06T13:41:30Z</time>
      </trkpt>
      <trkpt lat="49.40806" lon="1.17573">
        <ele>157</ele>
        <time>2017-06-06T13:41:30Z</time>
      </trkpt>
      <trkpt lat="49.40812" lon="1.17564">
        <ele>157</ele>
        <time>2017-06-06T13:41:30Z</time>
      </trkpt>
      <trkpt lat="49.40816" lon="1.1756">
        <ele>157</ele>
        <time>2017-06-06T13:41:46Z</time>
      </trkpt>
      <trkpt lat="49.4082" lon="1.17555">
        <ele>157</ele>
        <time>2017-06-06T13:41:46Z</time>
      </trkpt>
      <trkpt lat="49.40823" lon="1.17551">
        <ele>157</ele>
        <time>2017-06-06T13:41:46Z</time>
      </trkpt>
      <trkpt lat="49.40826" lon="1.17545">
        <ele>157</ele>
        <time>2017-06-06T13:41:46Z</time>
      </trkpt>
      <trkpt lat="49.4083" lon="1.17539">
        <ele>157</ele>
        <time>2017-06-06T13:42:02Z</time>
      </trkpt>
      <trkpt lat="49.40834" lon="1.17533">
        <ele>157</ele>
        <time>2017-06-06T13:42:02Z</time>
      </trkpt>
      <trkpt lat="49.40838" lon="1.17527">
        <ele>157</ele>
        <time>2017-06-06T13:42:02Z</time>
      </trkpt>
      <trkpt lat="49.40842" lon="1.17522">
        <ele>157</ele>
        <time>2017-06-06T13:42:02Z</time>
      </trkpt>
      <trkpt lat="49.40846" lon="1.17517">
        <ele>157</ele>
        <time>2017-06-06T13:42:19Z</time>
      </trkpt>
      <trkpt lat="49.4085" lon="1.17512">
        <ele>157</ele>
        <time>2017-06-06T13:42:19Z</time>
      </trkpt>
      <trkpt lat="49.40853" lon="1.17506">
        <ele>157</ele>
        <time>2017-06-06T13:42:19Z</time>
      </trkpt>
      <trkpt lat="49.40856" lon="1.17501">
        <ele>157</ele>
        <time>2017-06-06T13:42:19Z</time>
      </trkpt>
      <trkpt lat="49.40862" lon="1.17495">
        <ele>157</ele>
        <time>2017-06-06T13:42:33Z</time>
      </trkpt>
      <trkpt lat="49.40865" lon="1.17491">
        <ele>157</ele>
        <time>2017-06-06T13:42:34Z</time>
      </trkpt>
      <trkpt lat="49.40869" lon="1.17486">
        <ele>157</ele>
        <time>2017-06-06T13:42:34Z</time>
      </trkpt>
      <trkpt lat="49.40873" lon="1.17481">
        <ele>157</ele>
        <time>2017-06-06T13:42:34Z</time>
      </trkpt>
      <trkpt lat="49.40876" lon="1.17476">
        <ele>157</ele>
        <time>2017-06-06T13:42:51Z</time>
      </trkpt>
      <trkpt lat="49.40881" lon="1.1747">
        <ele>157</ele>
        <time>2017-06-06T13:42:51Z</time>
      </trkpt>
      <trkpt lat="49.40884" lon="1.17466">
        <ele>157</ele>
        <time>2017-06-06T13:42:51Z</time>
      </trkpt>
      <trkpt lat="49.40887" lon="1.17461">
        <ele>157</ele>
        <time>2017-06-06T13:42:51Z</time>
      </trkpt>
      <trkpt lat="49.40892" lon="1.17456">
        <ele>158</ele>
        <time>2017-06-06T13:43:06Z</time>
      </trkpt>
      <trkpt lat="49.40895" lon="1.17452">
        <ele>158</ele>
        <time>2017-06-06T13:43:06Z</time>
      </trkpt>
      <trkpt lat="49.40899" lon="1.17447">
        <ele>158</ele>
        <time>2017-06-06T13:43:06Z</time>
      </trkpt>
      <trkpt lat="49.40903" lon="1.17442">
        <ele>158</ele>
        <time>2017-06-06T13:43:06Z</time>
      </trkpt>
      <trkpt lat="49.40907" lon="1.17437">
        <ele>158</ele>
        <time>2017-06-06T13:43:23Z</time>
      </trkpt>
      <trkpt lat="49.40912" lon="1.17434">
        <ele>158</ele>
        <time>2017-06-06T13:43:23Z</time>
      </trkpt>
      <trkpt lat="49.40917" lon="1.17433">
        <ele>158</ele>
        <time>2017-06-06T13:43:23Z</time>
      </trkpt>
      <trkpt lat="49.40921" lon="1.17442">
        <ele>158</ele>
        <time>2017-06-06T13:43:23Z</time>
      </trkpt>
      <trkpt lat="49.40925" lon="1.17444">
        <ele>158</ele>
        <time>2017-06-06T13:43:37Z</time>
      </trkpt>
      <trkpt lat="49.40929" lon="1.1745">
        <ele>158</ele>
        <time>2017-06-06T13:43:38Z</time>
      </trkpt>
      <trkpt lat="49.40932" lon="1.17456">
        <ele>158</ele>
        <time>2017-06-06T13:43:38Z</time>
      </trkpt>
      <trkpt lat="49.40937" lon="1.1746">
        <ele>157</ele>
        <time>2017-06-06T13:43:38Z</time>
      </trkpt>
      <trkpt lat="49.40942" lon="1.17464">
        <ele>157</ele>
        <time>2017-06-06T13:43:55Z</time>
      </trkpt>
      <trkpt lat="49.40946" lon="1.17468">
        <ele>157</ele>
        <time>2017-06-06T13:43:55Z</time>
      </trkpt>
      <trkpt lat="49.4095" lon="1.17472">
        <ele>157</ele>
        <time>2017-06-06T13:43:55Z</time>
      </trkpt>
      <trkpt lat="49.40956" lon="1.17477">
        <ele>157</ele>
        <time>2017-06-06T13:43:55Z</time>
      </trkpt>
      <trkpt lat="49.40959" lon="1.17482">
        <ele>154</ele>
        <time>2017-06-06T13:44:10Z</time>
      </trkpt>
      <trkpt lat="49.40964" lon="1.17486">
        <ele>154</ele>
        <time>2017-06-06T13:44:10Z</time>
      </trkpt>
      <trkpt lat="49.40969" lon="1.17491">
        <ele>154</ele>
        <time>2017-06-06T13:44:10Z</time>
      </trkpt>
      <trkpt lat="49.40973" lon="1.17496">
        <ele>154</ele>
        <time>2017-06-06T13:44:11Z</time>
      </trkpt>
      <trkpt lat="49.40978" lon="1.17501">
        <ele>154</ele>
        <time>2017-06-06T13:44:26Z</time>
      </trkpt>
      <trkpt lat="49.40982" lon="1.17505">
        <ele>154</ele>
        <time>2017-06-06T13:44:26Z</time>
      </trkpt>
      <trkpt lat="49.40986" lon="1.17509">
        <ele>154</ele>
        <time>2017-06-06T13:44:26Z</time>
      </trkpt>
      <trkpt lat="49.40991" lon="1.17514">
        <ele>154</ele>
        <time>2017-06-06T13:44:26Z</time>
      </trkpt>
      <trkpt lat="49.40996" lon="1.17519">
        <ele>154</ele>
        <time>2017-06-06T13:44:43Z</time>
      </trkpt>
      <trkpt lat="49.41" lon="1.17523">
        <ele>154</ele>
        <time>2017-06-06T13:44:43Z</time>
      </trkpt>
      <trkpt lat="49.41005" lon="1.17526">
        <ele>154</ele>
        <time>2017-06-06T13:44:43Z</time>
      </trkpt>
      <trkpt lat="49.41009" lon="1.1753">
        <ele>154</ele>
        <time>2017-06-06T13:44:43Z</time>
      </trkpt>
      <trkpt lat="49.41013" lon="1.17536">
        <ele>154</ele>
        <time>2017-06-06T13:44:58Z</time>
      </trkpt>
      <trkpt lat="49.41016" lon="1.17544">
        <ele>153</ele>
        <time>2017-06-06T13:44:58Z</time>
      </trkpt>
      <trkpt lat="49.41019" lon="1.17551">
        <ele>153</ele>
        <time>2017-06-06T13:44:58Z</time>
      </trkpt>
      <trkpt lat="49.41021" lon="1.17555">
        <ele>153</ele>
        <time>2017-06-06T13:44:58Z</time>
      </trkpt>
      <trkpt lat="49.41025" lon="1.1756">
        <ele>153</ele>
        <time>2017-06-06T13:45:13Z</time>
      </trkpt>
      <trkpt lat="49.41028" lon="1.17565">
        <ele>153</ele>
        <time>2017-06-06T13:45:14Z</time>
      </trkpt>
      <trkpt lat="49.41032" lon="1.17571">
        <ele>153</ele>
        <time>2017-06-06T13:45:14Z</time>
      </trkpt>
      <trkpt lat="49.41036" lon="1.17578">
        <ele>153</ele>
        <time>2017-06-06T13:45:14Z</time>
      </trkpt>
      <trkpt lat="49.4104" lon="1.17585">
        <ele>153</ele>
        <time>2017-06-06T13:45:29Z</time>
      </trkpt>
      <trkpt lat="49.41045" lon="1.17592">
        <ele>149</ele>
        <time>2017-06-06T13:45:30Z</time>
      </trkpt>
      <trkpt lat="49.41048" lon="1.17598">
        <ele>149</ele>
        <time>2017-06-06T13:45:30Z</time>
      </trkpt>
      <trkpt lat="49.41051" lon="1.17603">
        <ele>149</ele>
        <time>2017-06-06T13:45:30Z</time>
      </trkpt>
      <trkpt lat="49.41055" lon="1.17609">
        <ele>149</ele>
        <time>2017-06-06T13:45:45Z</time>
      </trkpt>
      <trkpt lat="49.41059" lon="1.17614">
        <ele>149</ele>
        <time>2017-06-06T13:45:46Z</time>
      </trkpt>
      <trkpt lat="49.41063" lon="1.1762">
        <ele>149</ele>
        <time>2017-06-06T13:45:46Z</time>
      </trkpt>
      <trkpt lat="49.41066" lon="1.17626">
        <ele>148</ele>
        <time>2017-06-06T13:45:46Z</time>
      </trkpt>
      <trkpt lat="49.41071" lon="1.17632">
        <ele>148</ele>
        <time>2017-06-06T13:46:02Z</time>
      </trkpt>
      <trkpt lat="49.41074" lon="1.17637">
        <ele>148</ele>
        <time>2017-06-06T13:46:02Z</time>
      </trkpt>
      <trkpt lat="49.41078" lon="1.17642">
        <ele>148</ele>
        <time>2017-06-06T13:46:02Z</time>
      </trkpt>
      <trkpt lat="49.41081" lon="1.17648">
        <ele>148</ele>
        <time>2017-06-06T13:46:02Z</time>
      </trkpt>
      <trkpt lat="49.41087" lon="1.17658">
        <ele>148</ele>
        <time>2017-06-06T13:46:19Z</time>
      </trkpt>
      <trkpt lat="49.41088" lon="1.17663">
        <ele>148</ele>
        <time>2017-06-06T13:46:19Z</time>
      </trkpt>
      <trkpt lat="49.41092" lon="1.17668">
        <ele>148</ele>
        <time>2017-06-06T13:46:19Z</time>
      </trkpt>
      <trkpt lat="49.41094" lon="1.17675">
        <ele>148</ele>
        <time>2017-06-06T13:46:19Z</time>
      </trkpt>
      <trkpt lat="49.41096" lon="1.17683">
        <ele>148</ele>
        <time>2017-06-06T13:46:35Z</time>
      </trkpt>
      <trkpt lat="49.41099" lon="1.1769">
        <ele>148</ele>
        <time>2017-06-06T13:46:35Z</time>
      </trkpt>
      <trkpt lat="49.41103" lon="1.17696">
        <ele>148</ele>
        <time>2017-06-06T13:46:35Z</time>
      </trkpt>
      <trkpt lat="49.41105" lon="1.17702">
        <ele>148</ele>
        <time>2017-06-06T13:46:35Z</time>
      </trkpt>
      <trkpt lat="49.41107" lon="1.17709">
        <ele>148</ele>
        <time>2017-06-06T13:46:50Z</time>
      </trkpt>
      <trkpt lat="49.41109" lon="1.17714">
        <ele>148</ele>
        <time>2017-06-06T13:46:50Z</time>
      </trkpt>
      <trkpt lat="49.41115" lon="1.17723">
        <ele>148</ele>
        <time>2017-06-06T13:46:50Z</time>
      </trkpt>
      <trkpt lat="49.41116" lon="1.17729">
        <ele>148</ele>
        <time>2017-06-06T13:46:50Z</time>
      </trkpt>
      <trkpt lat="49.41119" lon="1.17735">
        <ele>148</ele>
        <time>2017-06-06T13:47:07Z</time>
      </trkpt>
      <trkpt lat="49.41122" lon="1.17745">
        <ele>148</ele>
        <time>2017-06-06T13:47:07Z</time>
      </trkpt>
      <trkpt lat="49.41124" lon="1.17751">
        <ele>148</ele>
        <time>2017-06-06T13:47:07Z</time>
      </trkpt>
      <trkpt lat="49.41129" lon="1.17758">
        <ele>145</ele>
        <time>2017-06-06T13:47:07Z</time>
      </trkpt>
      <trkpt lat="49.41131" lon="1.17762">
        <ele>145</ele>
        <time>2017-06-06T13:47:22Z</time>
      </trkpt>
      <trkpt lat="49.41136" lon="1.17769">
        <ele>145</ele>
        <time>2017-06-06T13:47:22Z</time>
      </trkpt>
      <trkpt lat="49.41139" lon="1.17774">
        <ele>145</ele>
        <time>2017-06-06T13:47:22Z</time>
      </trkpt>
      <trkpt lat="49.4114" lon="1.1778">
        <ele>145</ele>
        <time>2017-06-06T13:47:22Z</time>
      </trkpt>
      <trkpt lat="49.41144" lon="1.17785">
        <ele>145</ele>
        <time>2017-06-06T13:47:39Z</time>
      </trkpt>
      <trkpt lat="49.41147" lon="1.1779">
        <ele>145</ele>
        <time>2017-06-06T13:47:39Z</time>
      </trkpt>
      <trkpt lat="49.41152" lon="1.17798">
        <ele>144</ele>
        <time>2017-06-06T13:47:39Z</time>
      </trkpt>
      <trkpt lat="49.41155" lon="1.17801">
        <ele>144</ele>
        <time>2017-06-06T13:47:39Z</time>
      </trkpt>
      <trkpt lat="49.4116" lon="1.17808">
        <ele>144</ele>
        <time>2017-06-06T13:47:55Z</time>
      </trkpt>
      <trkpt lat="49.41164" lon="1.17813">
        <ele>144</ele>
        <time>2017-06-06T13:47:55Z</time>
      </trkpt>
      <trkpt lat="49.41167" lon="1.17819">
        <ele>144</ele>
        <time>2017-06-06T13:47:55Z</time>
      </trkpt>
      <trkpt lat="49.41173" lon="1.17826">
        <ele>144</ele>
        <time>2017-06-06T13:47:55Z</time>
      </trkpt>
      <trkpt lat="49.41177" lon="1.17829">
        <ele>144</ele>
        <time>2017-06-06T13:48:10Z</time>
      </trkpt>
      <trkpt lat="49.41181" lon="1.17833">
        <ele>144</ele>
        <time>2017-06-06T13:48:10Z</time>
      </trkpt>
      <trkpt lat="49.41185" lon="1.1784">
        <ele>144</ele>
        <time>2017-06-06T13:48:10Z</time>
      </trkpt>
      <trkpt lat="49.41187" lon="1.17845">
        <ele>144</ele>
        <time>2017-06-06T13:48:10Z</time>
      </trkpt>
      <trkpt lat="49.41192" lon="1.1785">
        <ele>144</ele>
        <time>2017-06-06T13:48:26Z</time>
      </trkpt>
      <trkpt lat="49.41196" lon="1.17854">
        <ele>144</ele>
        <time>2017-06-06T13:48:26Z</time>
      </trkpt>
      <trkpt lat="49.412" lon="1.17859">
        <ele>144</ele>
        <time>2017-06-06T13:48:26Z</time>
      </trkpt>
      <trkpt lat="49.41204" lon="1.17864">
        <ele>144</ele>
        <time>2017-06-06T13:48:26Z</time>
      </trkpt>
      <trkpt lat="49.41208" lon="1.17871">
        <ele>144</ele>
        <time>2017-06-06T13:48:42Z</time>
      </trkpt>
      <trkpt lat="49.41213" lon="1.17875">
        <ele>142</ele>
        <time>2017-06-06T13:48:42Z</time>
      </trkpt>
      <trkpt lat="49.41216" lon="1.17877">
        <ele>142</ele>
        <time>2017-06-06T13:48:42Z</time>
      </trkpt>
      <trkpt lat="49.41221" lon="1.17882">
        <ele>142</ele>
        <time>2017-06-06T13:48:42Z</time>
      </trkpt>
      <trkpt lat="49.41225" lon="1.17885">
        <ele>142</ele>
        <time>2017-06-06T13:48:57Z</time>
      </trkpt>
      <trkpt lat="49.41229" lon="1.17889">
        <ele>142</ele>
        <time>2017-06-06T13:48:58Z</time>
      </trkpt>
      <trkpt lat="49.41233" lon="1.17894">
        <ele>142</ele>
        <time>2017-06-06T13:48:58Z</time>
      </trkpt>
      <trkpt lat="49.41238" lon="1.17899">
        <ele>142</ele>
        <time>2017-06-06T13:48:58Z</time>
      </trkpt>
      <trkpt lat="49.41239" lon="1.179">
        <ele>142</ele>
        <time>2017-06-06T13:49:15Z</time>
      </trkpt>
      <trkpt lat="49.41246" lon="1.17905">
        <ele>142</ele>
        <time>2017-06-06T13:49:15Z</time>
      </trkpt>
      <trkpt lat="49.4125" lon="1.17909">
        <ele>142</ele>
        <time>2017-06-06T13:49:15Z</time>
      </trkpt>
      <trkpt lat="49.41255" lon="1.17916">
        <ele>142</ele>
        <time>2017-06-06T13:49:15Z</time>
      </trkpt>
      <trkpt lat="49.41258" lon="1.17923">
        <ele>142</ele>
        <time>2017-06-06T13:49:30Z</time>
      </trkpt>
      <trkpt lat="49.41263" lon="1.17927">
        <ele>142</ele>
        <time>2017-06-06T13:49:30Z</time>
      </trkpt>
      <trkpt lat="49.41267" lon="1.17932">
        <ele>142</ele>
        <time>2017-06-06T13:49:30Z</time>
      </trkpt>
      <trkpt lat="49.41271" lon="1.17936">
        <ele>142</ele>
        <time>2017-06-06T13:49:30Z</time>
      </trkpt>
      <trkpt lat="49.41276" lon="1.17941">
        <ele>142</ele>
        <time>2017-06-06T13:49:46Z</time>
      </trkpt>
      <trkpt lat="49.4128" lon="1.17946">
        <ele>142</ele>
        <time>2017-06-06T13:49:46Z</time>
      </trkpt>
      <trkpt lat="49.41287" lon="1.17952">
        <ele>142</ele>
        <time>2017-06-06T13:49:46Z</time>
      </trkpt>
      <trkpt lat="49.4129" lon="1.17956">
        <ele>142</ele>
        <time>2017-06-06T13:49:46Z</time>
      </trkpt>
      <trkpt lat="49.41294" lon="1.17961">
        <ele>139</ele>
        <time>2017-06-06T13:50:02Z</time>
      </trkpt>
      <trkpt lat="49.41298" lon="1.17967">
        <ele>139</ele>
        <time>2017-06-06T13:50:02Z</time>
      </trkpt>
      <trkpt lat="49.41303" lon="1.17973">
        <ele>139</ele>
        <time>2017-06-06T13:50:02Z</time>
      </trkpt>
      <trkpt lat="49.41307" lon="1.17976">
        <ele>139</ele>
        <time>2017-06-06T13:50:02Z</time>
      </trkpt>
      <trkpt lat="49.41311" lon="1.1798">
        <ele>139</ele>
        <time>2017-06-06T13:50:19Z</time>
      </trkpt>
      <trkpt lat="49.41315" lon="1.17984">
        <ele>139</ele>
        <time>2017-06-06T13:50:19Z</time>
      </trkpt>
      <trkpt lat="49.4132" lon="1.17988">
        <ele>139</ele>
        <time>2017-06-06T13:50:19Z</time>
      </trkpt>
      <trkpt lat="49.41324" lon="1.17995">
        <ele>139</ele>
        <time>2017-06-06T13:50:19Z</time>
      </trkpt>
      <trkpt lat="49.41328" lon="1.18001">
        <ele>139</ele>
        <time>2017-06-06T13:50:34Z</time>
      </trkpt>
      <trkpt lat="49.41334" lon="1.18007">
        <ele>139</ele>
        <time>2017-06-06T13:50:34Z</time>
      </trkpt>
      <trkpt lat="49.41337" lon="1.18011">
        <ele>139</ele>
        <time>2017-06-06T13:50:34Z</time>
      </trkpt>
      <trkpt lat="49.41341" lon="1.18014">
        <ele>139</ele>
        <time>2017-06-06T13:50:34Z</time>
      </trkpt>
      <trkpt lat="49.41345" lon="1.18018">
        <ele>139</ele>
        <time>2017-06-06T13:50:51Z</time>
      </trkpt>
      <trkpt lat="49.4135" lon="1.18025">
        <ele>139</ele>
        <time>2017-06-06T13:50:51Z</time>
      </trkpt>
      <trkpt lat="49.41354" lon="1.18032">
        <ele>139</ele>
        <time>2017-06-06T13:50:51Z</time>
      </trkpt>
      <trkpt lat="49.41358" lon="1.18039">
        <ele>139</ele>
        <time>2017-06-06T13:50:51Z</time>
      </trkpt>
      <trkpt lat="49.41361" lon="1.18043">
        <ele>139</ele>
        <time>2017-06-06T13:51:07Z</time>
      </trkpt>
      <trkpt lat="49.41365" lon="1.18046">
        <ele>139</ele>
        <time>2017-06-06T13:51:07Z</time>
      </trkpt>
      <trkpt lat="49.41369" lon="1.1805">
        <ele>139</ele>
        <time>2017-06-06T13:51:07Z</time>
      </trkpt>
      <trkpt lat="49.41374" lon="1.18054">
        <ele>139</ele>
        <time>2017-06-06T13:51:07Z</time>
      </trkpt>
      <trkpt lat="49.41381" lon="1.18058">
        <ele>140</ele>
        <time>2017-06-06T13:51:23Z</time>
      </trkpt>
      <trkpt lat="49.41385" lon="1.1806">
        <ele>140</ele>
        <time>2017-06-06T13:51:23Z</time>
      </trkpt>
      <trkpt lat="49.4139" lon="1.18058">
        <ele>140</ele>
        <time>2017-06-06T13:51:23Z</time>
      </trkpt>
      <trkpt lat="49.41396" lon="1.18052">
        <ele>140</ele>
        <time>2017-06-06T13:51:23Z</time>
      </trkpt>
      <trkpt lat="49.41398" lon="1.1805">
        <ele>140</ele>
        <time>2017-06-06T13:51:38Z</time>
      </trkpt>
      <trkpt lat="49.41401" lon="1.18044">
        <ele>140</ele>
        <time>2017-06-06T13:51:38Z</time>
      </trkpt>
      <trkpt lat="49.41404" lon="1.18038">
        <ele>141</ele>
        <time>2017-06-06T13:51:38Z</time>
      </trkpt>
      <trkpt lat="49.41407" lon="1.18032">
        <ele>141</ele>
        <time>2017-06-06T13:51:38Z</time>
      </trkpt>
      <trkpt lat="49.41412" lon="1.18025">
        <ele>141</ele>
        <time>2017-06-06T13:51:54Z</time>
      </trkpt>
      <trkpt lat="49.41415" lon="1.18018">
        <ele>141</ele>
        <time>2017-06-06T13:51:54Z</time>
      </trkpt>
      <trkpt lat="49.41417" lon="1.18014">
        <ele>141</ele>
        <time>2017-06-06T13:51:54Z</time>
      </trkpt>
      <trkpt lat="49.4142" lon="1.18009">
        <ele>141</ele>
        <time>2017-06-06T13:51:54Z</time>
      </trkpt>
      <trkpt lat="49.41423" lon="1.18005">
        <ele>141</ele>
        <time>2017-06-06T13:52:09Z</time>
      </trkpt>
      <trkpt lat="49.41426" lon="1.17999">
        <ele>141</ele>
        <time>2017-06-06T13:52:10Z</time>
      </trkpt>
      <trkpt lat="49.4143" lon="1.17993">
        <ele>141</ele>
        <time>2017-06-06T13:52:10Z</time>
      </trkpt>
      <trkpt lat="49.41433" lon="1.17988">
        <ele>141</ele>
        <time>2017-06-06T13:52:10Z</time>
      </trkpt>
      <trkpt lat="49.41437" lon="1.17983">
        <ele>141</ele>
        <time>2017-06-06T13:52:26Z</time>
      </trkpt>
      <trkpt lat="49.41438" lon="1.17978">
        <ele>141</ele>
        <time>2017-06-06T13:52:26Z</time>
      </trkpt>
      <trkpt lat="49.4144" lon="1.17967">
        <ele>141</ele>
        <time>2017-06-06T13:52:26Z</time>
      </trkpt>
      <trkpt lat="49.41442" lon="1.17963">
        <ele>141</ele>
        <time>2017-06-06T13:52:26Z</time>
      </trkpt>
      <trkpt lat="49.41444" lon="1.17955">
        <ele>140</ele>
        <time>2017-06-06T13:52:41Z</time>
      </trkpt>
      <trkpt lat="49.41446" lon="1.17946">
        <ele>140</ele>
        <time>2017-06-06T13:52:42Z</time>
      </trkpt>
      <trkpt lat="49.41448" lon="1.17939">
        <ele>140</ele>
        <time>2017-06-06T13:52:42Z</time>
      </trkpt>
      <trkpt lat="49.41449" lon="1.17931">
        <ele>140</ele>
        <time>2017-06-06T13:52:42Z</time>
      </trkpt>
      <trkpt lat="49.4145" lon="1.17922">
        <ele>140</ele>
        <time>2017-06-06T13:55:27Z</time>
      </trkpt>
      <trkpt lat="49.41452" lon="1.17919">
        <ele>140</ele>
        <time>2017-06-06T13:55:27Z</time>
      </trkpt>
      <trkpt lat="49.41453" lon="1.17913">
        <ele>140</ele>
        <time>2017-06-06T13:55:27Z</time>
      </trkpt>
      <trkpt lat="49.41455" lon="1.17907">
        <ele>140</ele>
        <time>2017-06-06T13:55:27Z</time>
      </trkpt>
      <trkpt lat="49.41457" lon="1.17899">
        <ele>140</ele>
        <time>2017-06-06T13:55:27Z</time>
      </trkpt>
      <trkpt lat="49.41458" lon="1.1789">
        <ele>140</ele>
        <time>2017-06-06T13:55:42Z</time>
      </trkpt>
      <trkpt lat="49.41458" lon="1.17881">
        <ele>140</ele>
        <time>2017-06-06T13:55:42Z</time>
      </trkpt>
      <trkpt lat="49.41459" lon="1.17873">
        <ele>140</ele>
        <time>2017-06-06T13:55:42Z</time>
      </trkpt>
      <trkpt lat="49.41459" lon="1.17865">
        <ele>140</ele>
        <time>2017-06-06T13:55:42Z</time>
      </trkpt>
      <trkpt lat="49.41458" lon="1.17855">
        <ele>140</ele>
        <time>2017-06-06T13:55:59Z</time>
      </trkpt>
      <trkpt lat="49.41459" lon="1.17847">
        <ele>140</ele>
        <time>2017-06-06T13:55:59Z</time>
      </trkpt>
      <trkpt lat="49.41459" lon="1.17837">
        <ele>140</ele>
        <time>2017-06-06T13:55:59Z</time>
      </trkpt>
      <trkpt lat="49.4146" lon="1.17832">
        <ele>140</ele>
        <time>2017-06-06T13:55:59Z</time>
      </trkpt>
      <trkpt lat="49.4146" lon="1.17824">
        <ele>140</ele>
        <time>2017-06-06T13:56:15Z</time>
      </trkpt>
      <trkpt lat="49.41461" lon="1.17816">
        <ele>140</ele>
        <time>2017-06-06T13:56:15Z</time>
      </trkpt>
      <trkpt lat="49.41462" lon="1.17808">
        <ele>140</ele>
        <time>2017-06-06T13:56:15Z</time>
      </trkpt>
      <trkpt lat="49.41463" lon="1.178">
        <ele>140</ele>
        <time>2017-06-06T13:56:15Z</time>
      </trkpt>
      <trkpt lat="49.41464" lon="1.17792">
        <ele>140</ele>
        <time>2017-06-06T13:56:31Z</time>
      </trkpt>
      <trkpt lat="49.41464" lon="1.17785">
        <ele>139</ele>
        <time>2017-06-06T13:56:31Z</time>
      </trkpt>
      <trkpt lat="49.41465" lon="1.17776">
        <ele>139</ele>
        <time>2017-06-06T13:56:31Z</time>
      </trkpt>
      <trkpt lat="49.41466" lon="1.17767">
        <ele>139</ele>
        <time>2017-06-06T13:56:31Z</time>
      </trkpt>
      <trkpt lat="49.41466" lon="1.17758">
        <ele>139</ele>
        <time>2017-06-06T13:56:46Z</time>
      </trkpt>
      <trkpt lat="49.41466" lon="1.1775">
        <ele>139</ele>
        <time>2017-06-06T13:56:46Z</time>
      </trkpt>
      <trkpt lat="49.41467" lon="1.17742">
        <ele>139</ele>
        <time>2017-06-06T13:56:46Z</time>
      </trkpt>
      <trkpt lat="49.41467" lon="1.17739">
        <ele>139</ele>
        <time>2017-06-06T13:56:46Z</time>
      </trkpt>
      <trkpt lat="49.41469" lon="1.17729">
        <ele>139</ele>
        <time>2017-06-06T13:57:03Z</time>
      </trkpt>
      <trkpt lat="49.4147" lon="1.17719">
        <ele>139</ele>
        <time>2017-06-06T13:57:03Z</time>
      </trkpt>
      <trkpt lat="49.41471" lon="1.17712">
        <ele>139</ele>
        <time>2017-06-06T13:57:03Z</time>
      </trkpt>
      <trkpt lat="49.41473" lon="1.17702">
        <ele>138</ele>
        <time>2017-06-06T13:57:03Z</time>
      </trkpt>
      <trkpt lat="49.41473" lon="1.17693">
        <ele>138</ele>
        <time>2017-06-06T13:57:18Z</time>
      </trkpt>
      <trkpt lat="49.41474" lon="1.17686">
        <ele>138</ele>
        <time>2017-06-06T13:57:18Z</time>
      </trkpt>
      <trkpt lat="49.41474" lon="1.17678">
        <ele>138</ele>
        <time>2017-06-06T13:57:18Z</time>
      </trkpt>
      <trkpt lat="49.41475" lon="1.17668">
        <ele>138</ele>
        <time>2017-06-06T13:57:18Z</time>
      </trkpt>
      <trkpt lat="49.41476" lon="1.17658">
        <ele>138</ele>
        <time>2017-06-06T13:57:35Z</time>
      </trkpt>
      <trkpt lat="49.41476" lon="1.17655">
        <ele>138</ele>
        <time>2017-06-06T13:57:35Z</time>
      </trkpt>
      <trkpt lat="49.41478" lon="1.17645">
        <ele>138</ele>
        <time>2017-06-06T13:57:35Z</time>
      </trkpt>
      <trkpt lat="49.41478" lon="1.17634">
        <ele>138</ele>
        <time>2017-06-06T13:57:36Z</time>
      </trkpt>
      <trkpt lat="49.41478" lon="1.17628">
        <ele>138</ele>
        <time>2017-06-06T13:57:49Z</time>
      </trkpt>
      <trkpt lat="49.41479" lon="1.17621">
        <ele>138</ele>
        <time>2017-06-06T13:57:50Z</time>
      </trkpt>
      <trkpt lat="49.4148" lon="1.17612">
        <ele>138</ele>
        <time>2017-06-06T13:57:50Z</time>
      </trkpt>
      <trkpt lat="49.41482" lon="1.17604">
        <ele>138</ele>
        <time>2017-06-06T13:57:50Z</time>
      </trkpt>
      <trkpt lat="49.41483" lon="1.17593">
        <ele>138</ele>
        <time>2017-06-06T13:58:05Z</time>
      </trkpt>
      <trkpt lat="49.41483" lon="1.17586">
        <ele>138</ele>
        <time>2017-06-06T13:58:06Z</time>
      </trkpt>
      <trkpt lat="49.41485" lon="1.17579">
        <ele>138</ele>
        <time>2017-06-06T13:58:06Z</time>
      </trkpt>
      <trkpt lat="49.41485" lon="1.1757">
        <ele>138</ele>
        <time>2017-06-06T13:58:06Z</time>
      </trkpt>
      <trkpt lat="49.41485" lon="1.17561">
        <ele>138</ele>
        <time>2017-06-06T13:58:22Z</time>
      </trkpt>
      <trkpt lat="49.41486" lon="1.17554">
        <ele>138</ele>
        <time>2017-06-06T13:58:22Z</time>
      </trkpt>
      <trkpt lat="49.41487" lon="1.17546">
        <ele>138</ele>
        <time>2017-06-06T13:58:22Z</time>
      </trkpt>
      <trkpt lat="49.41488" lon="1.17537">
        <ele>138</ele>
        <time>2017-06-06T13:58:22Z</time>
      </trkpt>
      <trkpt lat="49.41489" lon="1.1753">
        <ele>138</ele>
        <time>2017-06-06T13:58:40Z</time>
      </trkpt>
      <trkpt lat="49.4149" lon="1.17522">
        <ele>138</ele>
        <time>2017-06-06T13:58:40Z</time>
      </trkpt>
      <trkpt lat="49.41491" lon="1.17512">
        <ele>138</ele>
        <time>2017-06-06T13:58:40Z</time>
      </trkpt>
      <trkpt lat="49.41492" lon="1.17502">
        <ele>138</ele>
        <time>2017-06-06T13:58:40Z</time>
      </trkpt>
      <trkpt lat="49.41493" lon="1.17495">
        <ele>138</ele>
        <time>2017-06-06T13:58:53Z</time>
      </trkpt>
      <trkpt lat="49.41495" lon="1.17486">
        <ele>138</ele>
        <time>2017-06-06T13:58:54Z</time>
      </trkpt>
      <trkpt lat="49.41495" lon="1.17477">
        <ele>138</ele>
        <time>2017-06-06T13:58:54Z</time>
      </trkpt>
      <trkpt lat="49.41497" lon="1.17471">
        <ele>138</ele>
        <time>2017-06-06T13:58:54Z</time>
      </trkpt>
      <trkpt lat="49.41499" lon="1.17461">
        <ele>138</ele>
        <time>2017-06-06T13:59:11Z</time>
      </trkpt>
      <trkpt lat="49.41499" lon="1.17455">
        <ele>136</ele>
        <time>2017-06-06T13:59:11Z</time>
      </trkpt>
      <trkpt lat="49.415" lon="1.17448">
        <ele>136</ele>
        <time>2017-06-06T13:59:11Z</time>
      </trkpt>
      <trkpt lat="49.415" lon="1.17439">
        <ele>136</ele>
        <time>2017-06-06T13:59:11Z</time>
      </trkpt>
      <trkpt lat="49.41501" lon="1.17431">
        <ele>136</ele>
        <time>2017-06-06T13:59:27Z</time>
      </trkpt>
      <trkpt lat="49.41502" lon="1.17423">
        <ele>136</ele>
        <time>2017-06-06T13:59:27Z</time>
      </trkpt>
      <trkpt lat="49.41503" lon="1.17414">
        <ele>136</ele>
        <time>2017-06-06T13:59:27Z</time>
      </trkpt>
      <trkpt lat="49.41504" lon="1.17405">
        <ele>136</ele>
        <time>2017-06-06T13:59:27Z</time>
      </trkpt>
      <trkpt lat="49.41505" lon="1.17398">
        <ele>136</ele>
        <time>2017-06-06T13:59:43Z</time>
      </trkpt>
      <trkpt lat="49.41506" lon="1.1739">
        <ele>136</ele>
        <time>2017-06-06T13:59:43Z</time>
      </trkpt>
      <trkpt lat="49.41506" lon="1.17382">
        <ele>136</ele>
        <time>2017-06-06T13:59:43Z</time>
      </trkpt>
      <trkpt lat="49.41508" lon="1.17375">
        <ele>138</ele>
        <time>2017-06-06T13:59:43Z</time>
      </trkpt>
      <trkpt lat="49.41512" lon="1.17373">
        <ele>138</ele>
        <time>2017-06-06T13:59:58Z</time>
      </trkpt>
      <trkpt lat="49.41517" lon="1.17372">
        <ele>138</ele>
        <time>2017-06-06T13:59:58Z</time>
      </trkpt>
      <trkpt lat="49.41523" lon="1.17373">
        <ele>138</ele>
        <time>2017-06-06T13:59:58Z</time>
      </trkpt>
      <trkpt lat="49.4153" lon="1.17375">
        <ele>136</ele>
        <time>2017-06-06T13:59:58Z</time>
      </trkpt>
      <trkpt lat="49.41533" lon="1.17376">
        <ele>136</ele>
        <time>2017-06-06T14:00:13Z</time>
      </trkpt>
      <trkpt lat="49.41538" lon="1.17377">
        <ele>136</ele>
        <time>2017-06-06T14:00:14Z</time>
      </trkpt>
      <trkpt lat="49.41543" lon="1.17379">
        <ele>136</ele>
        <time>2017-06-06T14:00:14Z</time>
      </trkpt>
      <trkpt lat="49.41549" lon="1.17381">
        <ele>136</ele>
        <time>2017-06-06T14:00:14Z</time>
      </trkpt>
      <trkpt lat="49.41555" lon="1.17382">
        <ele>136</ele>
        <time>2017-06-06T14:00:29Z</time>
      </trkpt>
      <trkpt lat="49.4156" lon="1.17384">
        <ele>136</ele>
        <time>2017-06-06T14:00:30Z</time>
      </trkpt>
      <trkpt lat="49.41564" lon="1.17384">
        <ele>136</ele>
        <time>2017-06-06T14:00:30Z</time>
      </trkpt>
      <trkpt lat="49.41569" lon="1.17384">
        <ele>136</ele>
        <time>2017-06-06T14:00:30Z</time>
      </trkpt>
      <trkpt lat="49.41573" lon="1.17385">
        <ele>136</ele>
        <time>2017-06-06T14:00:45Z</time>
      </trkpt>
      <trkpt lat="49.4158" lon="1.17387">
        <ele>136</ele>
        <time>2017-06-06T14:00:46Z</time>
      </trkpt>
      <trkpt lat="49.41586" lon="1.17389">
        <ele>136</ele>
        <time>2017-06-06T14:00:46Z</time>
      </trkpt>
      <trkpt lat="49.41591" lon="1.17389">
        <ele>136</ele>
        <time>2017-06-06T14:00:46Z</time>
      </trkpt>
      <trkpt lat="49.41597" lon="1.17388">
        <ele>136</ele>
        <time>2017-06-06T14:01:01Z</time>
      </trkpt>
      <trkpt lat="49.41602" lon="1.17388">
        <ele>136</ele>
        <time>2017-06-06T14:01:02Z</time>
      </trkpt>
      <trkpt lat="49.41607" lon="1.17387">
        <ele>136</ele>
        <time>2017-06-06T14:01:02Z</time>
      </trkpt>
      <trkpt lat="49.41612" lon="1.17386">
        <ele>136</ele>
        <time>2017-06-06T14:01:02Z</time>
      </trkpt>
      <trkpt lat="49.41616" lon="1.17385">
        <ele>136</ele>
        <time>2017-06-06T14:01:19Z</time>
      </trkpt>
      <trkpt lat="49.41621" lon="1.17382">
        <ele>136</ele>
        <time>2017-06-06T14:01:19Z</time>
      </trkpt>
      <trkpt lat="49.41627" lon="1.17379">
        <ele>138</ele>
        <time>2017-06-06T14:01:19Z</time>
      </trkpt>
      <trkpt lat="49.41631" lon="1.17377">
        <ele>138</ele>
        <time>2017-06-06T14:01:19Z</time>
      </trkpt>
      <trkpt lat="49.41637" lon="1.17376">
        <ele>138</ele>
        <time>2017-06-06T14:01:34Z</time>
      </trkpt>
      <trkpt lat="49.41642" lon="1.17372">
        <ele>133</ele>
        <time>2017-06-06T14:01:34Z</time>
      </trkpt>
      <trkpt lat="49.41646" lon="1.17368">
        <ele>133</ele>
        <time>2017-06-06T14:01:34Z</time>
      </trkpt>
      <trkpt lat="49.4165" lon="1.17366">
        <ele>133</ele>
        <time>2017-06-06T14:01:34Z</time>
      </trkpt>
      <trkpt lat="49.41656" lon="1.17362">
        <ele>133</ele>
        <time>2017-06-06T14:01:51Z</time>
      </trkpt>
      <trkpt lat="49.41659" lon="1.17358">
        <ele>133</ele>
        <time>2017-06-06T14:01:51Z</time>
      </trkpt>
      <trkpt lat="49.41662" lon="1.17352">
        <ele>133</ele>
        <time>2017-06-06T14:01:51Z</time>
      </trkpt>
      <trkpt lat="49.41666" lon="1.17348">
        <ele>133</ele>
        <time>2017-06-06T14:01:51Z</time>
      </trkpt>
      <trkpt lat="49.41669" lon="1.17349">
        <ele>133</ele>
        <time>2017-06-06T14:02:09Z</time>
      </trkpt>
      <trkpt lat="49.41665" lon="1.17349">
        <ele>133</ele>
        <time>2017-06-06T14:02:10Z</time>
      </trkpt>
      <trkpt lat="49.41662" lon="1.17349">
        <ele>133</ele>
        <time>2017-06-06T14:02:10Z</time>
      </trkpt>
      <trkpt lat="49.41661" lon="1.17348">
        <ele>133</ele>
        <time>2017-06-06T14:02:10Z</time>
      </trkpt>
      <trkpt lat="49.41661" lon="1.17343">
        <ele>133</ele>
        <time>2017-06-06T14:02:10Z</time>
      </trkpt>
      <trkpt lat="49.4166" lon="1.17338">
        <ele>133</ele>
        <time>2017-06-06T14:02:43Z</time>
      </trkpt>
      <trkpt lat="49.41666" lon="1.17336">
        <ele>133</ele>
        <time>2017-06-06T14:02:43Z</time>
      </trkpt>
      <trkpt lat="49.4167" lon="1.17336">
        <ele>133</ele>
        <time>2017-06-06T14:02:43Z</time>
      </trkpt>
      <trkpt lat="49.41672" lon="1.1733">
        <ele>133</ele>
        <time>2017-06-06T14:02:43Z</time>
      </trkpt>
      <trkpt lat="49.41674" lon="1.17321">
        <ele>133</ele>
        <time>2017-06-06T14:02:43Z</time>
      </trkpt>
      <trkpt lat="49.41678" lon="1.17323">
        <ele>133</ele>
        <time>2017-06-06T14:04:15Z</time>
      </trkpt>
      <trkpt lat="49.41684" lon="1.17327">
        <ele>133</ele>
        <time>2017-06-06T14:04:15Z</time>
      </trkpt>
      <trkpt lat="49.41686" lon="1.17331">
        <ele>133</ele>
        <time>2017-06-06T14:04:15Z</time>
      </trkpt>
      <trkpt lat="49.4169" lon="1.17334">
        <ele>133</ele>
        <time>2017-06-06T14:04:15Z</time>
      </trkpt>
      <trkpt lat="49.4169" lon="1.17333">
        <ele>133</ele>
        <time>2017-06-06T14:04:15Z</time>
      </trkpt>
      <trkpt lat="49.41692" lon="1.17329">
        <ele>133</ele>
        <time>2017-06-06T14:05:21Z</time>
      </trkpt>
      <trkpt lat="49.41717" lon="1.17351">
        <ele>127</ele>
        <time>2017-06-06T14:05:22Z</time>
      </trkpt>
      <trkpt lat="49.41725" lon="1.17359">
        <ele>127</ele>
        <time>2017-06-06T14:05:22Z</time>
      </trkpt>
      <trkpt lat="49.41729" lon="1.17365">
        <ele>127</ele>
        <time>2017-06-06T14:05:22Z</time>
      </trkpt>
      <trkpt lat="49.41735" lon="1.17374">
        <ele>127</ele>
        <time>2017-06-06T14:05:22Z</time>
      </trkpt>
      <trkpt lat="49.41738" lon="1.17379">
        <ele>138</ele>
        <time>2017-06-06T14:05:51Z</time>
      </trkpt>
      <trkpt lat="49.41739" lon="1.17385">
        <ele>138</ele>
        <time>2017-06-06T14:05:51Z</time>
      </trkpt>
      <trkpt lat="49.4174" lon="1.17384">
        <ele>138</ele>
        <time>2017-06-06T14:05:51Z</time>
      </trkpt>
      <trkpt lat="49.41742" lon="1.17383">
        <ele>138</ele>
        <time>2017-06-06T14:05:51Z</time>
      </trkpt>
      <trkpt lat="49.41748" lon="1.17387">
        <ele>138</ele>
        <time>2017-06-06T14:05:51Z</time>
      </trkpt>
      <trkpt lat="49.41752" lon="1.17391">
        <ele>138</ele>
        <time>2017-06-06T14:06:07Z</time>
      </trkpt>
      <trkpt lat="49.41758" lon="1.17398">
        <ele>138</ele>
        <time>2017-06-06T14:06:07Z</time>
      </trkpt>
      <trkpt lat="49.41761" lon="1.174">
        <ele>138</ele>
        <time>2017-06-06T14:06:07Z</time>
      </trkpt>
      <trkpt lat="49.41763" lon="1.17405">
        <ele>138</ele>
        <time>2017-06-06T14:06:07Z</time>
      </trkpt>
      <trkpt lat="49.41764" lon="1.17407">
        <ele>138</ele>
        <time>2017-06-06T14:06:22Z</time>
      </trkpt>
      <trkpt lat="49.41771" lon="1.17413">
        <ele>138</ele>
        <time>2017-06-06T14:06:22Z</time>
      </trkpt>
      <trkpt lat="49.41783" lon="1.17416">
        <ele>138</ele>
        <time>2017-06-06T14:06:22Z</time>
      </trkpt>
      <trkpt lat="49.4179" lon="1.17419">
        <ele>138</ele>
        <time>2017-06-06T14:06:22Z</time>
      </trkpt>
      <trkpt lat="49.41791" lon="1.17426">
        <ele>138</ele>
        <time>2017-06-06T14:06:39Z</time>
      </trkpt>
      <trkpt lat="49.41792" lon="1.17432">
        <ele>118</ele>
        <time>2017-06-06T14:06:39Z</time>
      </trkpt>
      <trkpt lat="49.41801" lon="1.17433">
        <ele>118</ele>
        <time>2017-06-06T14:06:39Z</time>
      </trkpt>
      <trkpt lat="49.41812" lon="1.1744">
        <ele>118</ele>
        <time>2017-06-06T14:06:39Z</time>
      </trkpt>
      <trkpt lat="49.41821" lon="1.17444">
        <ele>118</ele>
        <time>2017-06-06T14:06:54Z</time>
      </trkpt>
      <trkpt lat="49.41825" lon="1.17443">
        <ele>118</ele>
        <time>2017-06-06T14:06:54Z</time>
      </trkpt>
      <trkpt lat="49.41829" lon="1.17442">
        <ele>118</ele>
        <time>2017-06-06T14:06:54Z</time>
      </trkpt>
      <trkpt lat="49.41834" lon="1.17443">
        <ele>118</ele>
        <time>2017-06-06T14:06:54Z</time>
      </trkpt>
      <trkpt lat="49.41838" lon="1.17443">
        <ele>118</ele>
        <time>2017-06-06T14:07:11Z</time>
      </trkpt>
      <trkpt lat="49.41843" lon="1.17444">
        <ele>118</ele>
        <time>2017-06-06T14:07:11Z</time>
      </trkpt>
      <trkpt lat="49.41847" lon="1.17443">
        <ele>118</ele>
        <time>2017-06-06T14:07:11Z</time>
      </trkpt>
      <trkpt lat="49.41855" lon="1.17442">
        <ele>118</ele>
        <time>2017-06-06T14:07:11Z</time>
      </trkpt>
      <trkpt lat="49.41861" lon="1.17442">
        <ele>118</ele>
        <time>2017-06-06T14:07:25Z</time>
      </trkpt>
      <trkpt lat="49.41865" lon="1.17441">
        <ele>118</ele>
        <time>2017-06-06T14:07:26Z</time>
      </trkpt>
      <trkpt lat="49.41869" lon="1.1744">
        <ele>118</ele>
        <time>2017-06-06T14:07:26Z</time>
      </trkpt>
      <trkpt lat="49.41872" lon="1.1744">
        <ele>118</ele>
        <time>2017-06-06T14:07:26Z</time>
      </trkpt>
      <trkpt lat="49.41876" lon="1.1744">
        <ele>92</ele>
        <time>2017-06-06T14:07:46Z</time>
      </trkpt>
      <trkpt lat="49.41879" lon="1.1744">
        <ele>92</ele>
        <time>2017-06-06T14:07:46Z</time>
      </trkpt>
      <trkpt lat="49.41882" lon="1.17439">
        <ele>92</ele>
        <time>2017-06-06T14:07:46Z</time>
      </trkpt>
      <trkpt lat="49.41883" lon="1.17439">
        <ele>92</ele>
        <time>2017-06-06T14:07:46Z</time>
      </trkpt>
      <trkpt lat="49.41886" lon="1.17439">
        <ele>92</ele>
        <time>2017-06-06T14:07:46Z</time>
      </trkpt>
      <trkpt lat="49.41888" lon="1.17438">
        <ele>92</ele>
        <time>2017-06-06T14:08:07Z</time>
      </trkpt>
      <trkpt lat="49.41889" lon="1.17438">
        <ele>92</ele>
        <time>2017-06-06T14:08:07Z</time>
      </trkpt>
      <trkpt lat="49.41893" lon="1.17436">
        <ele>92</ele>
        <time>2017-06-06T14:08:07Z</time>
      </trkpt>
      <trkpt lat="49.41896" lon="1.17435">
        <ele>92</ele>
        <time>2017-06-06T14:08:07Z</time>
      </trkpt>
      <trkpt lat="49.41902" lon="1.17435">
        <ele>92</ele>
        <time>2017-06-06T14:08:07Z</time>
      </trkpt>
      <trkpt lat="49.41905" lon="1.17435">
        <ele>92</ele>
        <time>2017-06-06T14:08:23Z</time>
      </trkpt>
      <trkpt lat="49.41906" lon="1.17435">
        <ele>92</ele>
        <time>2017-06-06T14:08:23Z</time>
      </trkpt>
      <trkpt lat="49.4191" lon="1.17435">
        <ele>92</ele>
        <time>2017-06-06T14:08:23Z</time>
      </trkpt>
      <trkpt lat="49.41916" lon="1.17435">
        <ele>92</ele>
        <time>2017-06-06T14:08:23Z</time>
      </trkpt>
      <trkpt lat="49.41922" lon="1.17435">
        <ele>92</ele>
        <time>2017-06-06T14:08:46Z</time>
      </trkpt>
      <trkpt lat="49.41924" lon="1.17435">
        <ele>92</ele>
        <time>2017-06-06T14:08:46Z</time>
      </trkpt>
      <trkpt lat="49.41925" lon="1.17435">
        <ele>92</ele>
        <time>2017-06-06T14:08:46Z</time>
      </trkpt>
      <trkpt lat="49.41927" lon="1.17433">
        <ele>92</ele>
        <time>2017-06-06T14:08:46Z</time>
      </trkpt>
      <trkpt lat="49.41935" lon="1.17433">
        <ele>92</ele>
        <time>2017-06-06T14:08:46Z</time>
      </trkpt>
      <trkpt lat="49.41952" lon="1.17438">
        <ele>92</ele>
        <time>2017-06-06T14:09:01Z</time>
      </trkpt>
      <trkpt lat="49.41962" lon="1.17442">
        <ele>75</ele>
        <time>2017-06-06T14:09:02Z</time>
      </trkpt>
      <trkpt lat="49.41971" lon="1.17445">
        <ele>75</ele>
        <time>2017-06-06T14:09:02Z</time>
      </trkpt>
      <trkpt lat="49.41981" lon="1.17448">
        <ele>75</ele>
        <time>2017-06-06T14:09:02Z</time>
      </trkpt>
      <trkpt lat="49.41989" lon="1.17451">
        <ele>75</ele>
        <time>2017-06-06T14:09:19Z</time>
      </trkpt>
      <trkpt lat="49.41996" lon="1.17455">
        <ele>75</ele>
        <time>2017-06-06T14:09:19Z</time>
      </trkpt>
      <trkpt lat="49.42003" lon="1.17459">
        <ele>68</ele>
        <time>2017-06-06T14:09:19Z</time>
      </trkpt>
      <trkpt lat="49.42009" lon="1.17463">
        <ele>68</ele>
        <time>2017-06-06T14:09:19Z</time>
      </trkpt>
      <trkpt lat="49.42011" lon="1.17466">
        <ele>68</ele>
        <time>2017-06-06T14:09:35Z</time>
      </trkpt>
      <trkpt lat="49.42015" lon="1.17472">
        <ele>68</ele>
        <time>2017-06-06T14:09:35Z</time>
      </trkpt>
      <trkpt lat="49.42019" lon="1.17478">
        <ele>68</ele>
        <time>2017-06-06T14:09:35Z</time>
      </trkpt>
      <trkpt lat="49.42023" lon="1.17485">
        <ele>68</ele>
        <time>2017-06-06T14:09:35Z</time>
      </trkpt>
      <trkpt lat="49.42026" lon="1.17491">
        <ele>68</ele>
        <time>2017-06-06T14:09:51Z</time>
      </trkpt>
      <trkpt lat="49.42028" lon="1.17498">
        <ele>68</ele>
        <time>2017-06-06T14:09:51Z</time>
      </trkpt>
      <trkpt lat="49.42033" lon="1.17505">
        <ele>68</ele>
        <time>2017-06-06T14:09:51Z</time>
      </trkpt>
      <trkpt lat="49.42037" lon="1.17511">
        <ele>68</ele>
        <time>2017-06-06T14:09:51Z</time>
      </trkpt>
      <trkpt lat="49.42041" lon="1.17517">
        <ele>68</ele>
        <time>2017-06-06T14:10:06Z</time>
      </trkpt>
      <trkpt lat="49.42045" lon="1.17523">
        <ele>66</ele>
        <time>2017-06-06T14:10:06Z</time>
      </trkpt>
      <trkpt lat="49.42049" lon="1.17529">
        <ele>66</ele>
        <time>2017-06-06T14:10:06Z</time>
      </trkpt>
      <trkpt lat="49.42053" lon="1.17534">
        <ele>66</ele>
        <time>2017-06-06T14:10:06Z</time>
      </trkpt>
      <trkpt lat="49.42057" lon="1.17541">
        <ele>66</ele>
        <time>2017-06-06T14:10:23Z</time>
      </trkpt>
      <trkpt lat="49.42061" lon="1.17547">
        <ele>55</ele>
        <time>2017-06-06T14:10:23Z</time>
      </trkpt>
      <trkpt lat="49.42064" lon="1.17553">
        <ele>55</ele>
        <time>2017-06-06T14:10:23Z</time>
      </trkpt>
      <trkpt lat="49.42066" lon="1.17558">
        <ele>55</ele>
        <time>2017-06-06T14:10:23Z</time>
      </trkpt>
      <trkpt lat="49.42064" lon="1.17563">
        <ele>55</ele>
        <time>2017-06-06T14:10:38Z</time>
      </trkpt>
      <trkpt lat="49.4206" lon="1.17562">
        <ele>55</ele>
        <time>2017-06-06T14:10:38Z</time>
      </trkpt>
      <trkpt lat="49.42056" lon="1.1756">
        <ele>55</ele>
        <time>2017-06-06T14:10:38Z</time>
      </trkpt>
      <trkpt lat="49.42052" lon="1.17559">
        <ele>55</ele>
        <time>2017-06-06T14:10:38Z</time>
      </trkpt>
      <trkpt lat="49.42048" lon="1.17562">
        <ele>55</ele>
        <time>2017-06-06T14:10:55Z</time>
      </trkpt>
      <trkpt lat="49.42044" lon="1.17568">
        <ele>55</ele>
        <time>2017-06-06T14:10:55Z</time>
      </trkpt>
      <trkpt lat="49.42042" lon="1.17577">
        <ele>55</ele>
        <time>2017-06-06T14:10:55Z</time>
      </trkpt>
      <trkpt lat="49.4204" lon="1.17581">
        <ele>68</ele>
        <time>2017-06-06T14:10:55Z</time>
      </trkpt>
      <trkpt lat="49.42039" lon="1.17588">
        <ele>68</ele>
        <time>2017-06-06T14:11:11Z</time>
      </trkpt>
      <trkpt lat="49.42037" lon="1.17595">
        <ele>68</ele>
        <time>2017-06-06T14:11:11Z</time>
      </trkpt>
      <trkpt lat="49.42034" lon="1.17601">
        <ele>68</ele>
        <time>2017-06-06T14:11:11Z</time>
      </trkpt>
      <trkpt lat="49.42031" lon="1.17606">
        <ele>68</ele>
        <time>2017-06-06T14:11:11Z</time>
      </trkpt>
      <trkpt lat="49.42029" lon="1.17611">
        <ele>68</ele>
        <time>2017-06-06T14:11:27Z</time>
      </trkpt>
      <trkpt lat="49.42028" lon="1.17617">
        <ele>68</ele>
        <time>2017-06-06T14:11:27Z</time>
      </trkpt>
      <trkpt lat="49.42027" lon="1.17622">
        <ele>68</ele>
        <time>2017-06-06T14:11:27Z</time>
      </trkpt>
      <trkpt lat="49.42024" lon="1.17627">
        <ele>64</ele>
        <time>2017-06-06T14:11:27Z</time>
      </trkpt>
      <trkpt lat="49.42021" lon="1.17635">
        <ele>64</ele>
        <time>2017-06-06T14:11:42Z</time>
      </trkpt>
      <trkpt lat="49.42019" lon="1.17639">
        <ele>64</ele>
        <time>2017-06-06T14:11:42Z</time>
      </trkpt>
      <trkpt lat="49.42017" lon="1.17644">
        <ele>64</ele>
        <time>2017-06-06T14:11:42Z</time>
      </trkpt>
      <trkpt lat="49.42014" lon="1.17649">
        <ele>64</ele>
        <time>2017-06-06T14:11:42Z</time>
      </trkpt>
      <trkpt lat="49.42012" lon="1.17657">
        <ele>64</ele>
        <time>2017-06-06T14:11:59Z</time>
      </trkpt>
      <trkpt lat="49.4201" lon="1.17665">
        <ele>64</ele>
        <time>2017-06-06T14:11:59Z</time>
      </trkpt>
      <trkpt lat="49.42009" lon="1.17669">
        <ele>64</ele>
        <time>2017-06-06T14:11:59Z</time>
      </trkpt>
      <trkpt lat="49.42006" lon="1.17675">
        <ele>64</ele>
        <time>2017-06-06T14:11:59Z</time>
      </trkpt>
      <trkpt lat="49.42004" lon="1.17681">
        <ele>64</ele>
        <time>2017-06-06T14:12:15Z</time>
      </trkpt>
      <trkpt lat="49.42003" lon="1.17687">
        <ele>64</ele>
        <time>2017-06-06T14:12:15Z</time>
      </trkpt>
      <trkpt lat="49.42002" lon="1.17693">
        <ele>64</ele>
        <time>2017-06-06T14:12:15Z</time>
      </trkpt>
      <trkpt lat="49.41999" lon="1.17698">
        <ele>64</ele>
        <time>2017-06-06T14:12:15Z</time>
      </trkpt>
      <trkpt lat="49.41996" lon="1.17704">
        <ele>64</ele>
        <time>2017-06-06T14:12:30Z</time>
      </trkpt>
      <trkpt lat="49.41994" lon="1.1771">
        <ele>62</ele>
        <time>2017-06-06T14:12:30Z</time>
      </trkpt>
      <trkpt lat="49.41993" lon="1.17716">
        <ele>62</ele>
        <time>2017-06-06T14:12:30Z</time>
      </trkpt>
      <trkpt lat="49.41992" lon="1.17723">
        <ele>62</ele>
        <time>2017-06-06T14:12:30Z</time>
      </trkpt>
      <trkpt lat="49.41989" lon="1.17729">
        <ele>62</ele>
        <time>2017-06-06T14:12:45Z</time>
      </trkpt>
      <trkpt lat="49.41986" lon="1.17735">
        <ele>62</ele>
        <time>2017-06-06T14:12:46Z</time>
      </trkpt>
      <trkpt lat="49.41984" lon="1.17741">
        <ele>62</ele>
        <time>2017-06-06T14:12:46Z</time>
      </trkpt>
      <trkpt lat="49.41983" lon="1.17746">
        <ele>62</ele>
        <time>2017-06-06T14:12:46Z</time>
      </trkpt>
      <trkpt lat="49.41981" lon="1.17753">
        <ele>62</ele>
        <time>2017-06-06T14:13:02Z</time>
      </trkpt>
      <trkpt lat="49.41981" lon="1.17759">
        <ele>62</ele>
        <time>2017-06-06T14:13:02Z</time>
      </trkpt>
      <trkpt lat="49.41979" lon="1.17766">
        <ele>62</ele>
        <time>2017-06-06T14:13:02Z</time>
      </trkpt>
      <trkpt lat="49.41974" lon="1.17771">
        <ele>62</ele>
        <time>2017-06-06T14:13:02Z</time>
      </trkpt>
      <trkpt lat="49.41971" lon="1.17774">
        <ele>62</ele>
        <time>2017-06-06T14:13:19Z</time>
      </trkpt>
      <trkpt lat="49.41966" lon="1.17779">
        <ele>62</ele>
        <time>2017-06-06T14:13:19Z</time>
      </trkpt>
      <trkpt lat="49.41964" lon="1.17785">
        <ele>62</ele>
        <time>2017-06-06T14:13:19Z</time>
      </trkpt>
      <trkpt lat="49.4196" lon="1.17791">
        <ele>62</ele>
        <time>2017-06-06T14:13:19Z</time>
      </trkpt>
      <trkpt lat="49.41959" lon="1.17799">
        <ele>54</ele>
        <time>2017-06-06T14:13:36Z</time>
      </trkpt>
      <trkpt lat="49.41957" lon="1.17804">
        <ele>71</ele>
        <time>2017-06-06T14:13:36Z</time>
      </trkpt>
      <trkpt lat="49.41953" lon="1.17813">
        <ele>71</ele>
        <time>2017-06-06T14:13:36Z</time>
      </trkpt>
      <trkpt lat="49.41951" lon="1.17818">
        <ele>71</ele>
        <time>2017-06-06T14:13:36Z</time>
      </trkpt>
      <trkpt lat="49.4195" lon="1.17822">
        <ele>71</ele>
        <time>2017-06-06T14:13:50Z</time>
      </trkpt>
      <trkpt lat="49.41949" lon="1.1783">
        <ele>71</ele>
        <time>2017-06-06T14:13:50Z</time>
      </trkpt>
      <trkpt lat="49.41949" lon="1.17835">
        <ele>71</ele>
        <time>2017-06-06T14:13:50Z</time>
      </trkpt>
      <trkpt lat="49.41949" lon="1.1784">
        <ele>71</ele>
        <time>2017-06-06T14:13:50Z</time>
      </trkpt>
      <trkpt lat="49.41949" lon="1.1785">
        <ele>71</ele>
        <time>2017-06-06T14:14:07Z</time>
      </trkpt>
      <trkpt lat="49.41948" lon="1.17857">
        <ele>71</ele>
        <time>2017-06-06T14:14:07Z</time>
      </trkpt>
      <trkpt lat="49.41948" lon="1.17862">
        <ele>71</ele>
        <time>2017-06-06T14:14:07Z</time>
      </trkpt>
      <trkpt lat="49.41947" lon="1.17868">
        <ele>71</ele>
        <time>2017-06-06T14:14:07Z</time>
      </trkpt>
      <trkpt lat="49.41947" lon="1.17877">
        <ele>64</ele>
        <time>2017-06-06T14:14:21Z</time>
      </trkpt>
      <trkpt lat="49.41946" lon="1.17882">
        <ele>64</ele>
        <time>2017-06-06T14:14:22Z</time>
      </trkpt>
      <trkpt lat="49.41944" lon="1.17886">
        <ele>64</ele>
        <time>2017-06-06T14:14:22Z</time>
      </trkpt>
      <trkpt lat="49.41941" lon="1.17892">
        <ele>64</ele>
        <time>2017-06-06T14:14:22Z</time>
      </trkpt>
      <trkpt lat="49.41941" lon="1.179">
        <ele>64</ele>
        <time>2017-06-06T14:14:38Z</time>
      </trkpt>
      <trkpt lat="49.41941" lon="1.17905">
        <ele>64</ele>
        <time>2017-06-06T14:14:38Z</time>
      </trkpt>
      <trkpt lat="49.4194" lon="1.17911">
        <ele>64</ele>
        <time>2017-06-06T14:14:38Z</time>
      </trkpt>
      <trkpt lat="49.41941" lon="1.17918">
        <ele>64</ele>
        <time>2017-06-06T14:14:38Z</time>
      </trkpt>
      <trkpt lat="49.41941" lon="1.17925">
        <ele>64</ele>
        <time>2017-06-06T14:14:53Z</time>
      </trkpt>
      <trkpt lat="49.41941" lon="1.17931">
        <ele>64</ele>
        <time>2017-06-06T14:14:54Z</time>
      </trkpt>
      <trkpt lat="49.41941" lon="1.17938">
        <ele>64</ele>
        <time>2017-06-06T14:14:54Z</time>
      </trkpt>
      <trkpt lat="49.41941" lon="1.17944">
        <ele>64</ele>
        <time>2017-06-06T14:14:54Z</time>
      </trkpt>
      <trkpt lat="49.41939" lon="1.1795">
        <ele>64</ele>
        <time>2017-06-06T14:15:09Z</time>
      </trkpt>
      <trkpt lat="49.41932" lon="1.17955">
        <ele>64</ele>
        <time>2017-06-06T14:15:10Z</time>
      </trkpt>
      <trkpt lat="49.41929" lon="1.17961">
        <ele>61</ele>
        <time>2017-06-06T14:15:10Z</time>
      </trkpt>
      <trkpt lat="49.41929" lon="1.17967">
        <ele>61</ele>
        <time>2017-06-06T14:15:10Z</time>
      </trkpt>
      <trkpt lat="49.41925" lon="1.17974">
        <ele>61</ele>
        <time>2017-06-06T14:15:25Z</time>
      </trkpt>
      <trkpt lat="49.41921" lon="1.17984">
        <ele>61</ele>
        <time>2017-06-06T14:15:26Z</time>
      </trkpt>
      <trkpt lat="49.41919" lon="1.17992">
        <ele>61</ele>
        <time>2017-06-06T14:15:26Z</time>
      </trkpt>
      <trkpt lat="49.41918" lon="1.17998">
        <ele>61</ele>
        <time>2017-06-06T14:15:26Z</time>
      </trkpt>
      <trkpt lat="49.41918" lon="1.18005">
        <ele>61</ele>
        <time>2017-06-06T14:15:41Z</time>
      </trkpt>
      <trkpt lat="49.41917" lon="1.18012">
        <ele>61</ele>
        <time>2017-06-06T14:15:42Z</time>
      </trkpt>
      <trkpt lat="49.41916" lon="1.18018">
        <ele>61</ele>
        <time>2017-06-06T14:15:42Z</time>
      </trkpt>
      <trkpt lat="49.41915" lon="1.18025">
        <ele>61</ele>
        <time>2017-06-06T14:15:42Z</time>
      </trkpt>
      <trkpt lat="49.41915" lon="1.18032">
        <ele>61</ele>
        <time>2017-06-06T14:15:57Z</time>
      </trkpt>
      <trkpt lat="49.41914" lon="1.18038">
        <ele>61</ele>
        <time>2017-06-06T14:15:58Z</time>
      </trkpt>
      <trkpt lat="49.41913" lon="1.18045">
        <ele>59</ele>
        <time>2017-06-06T14:15:58Z</time>
      </trkpt>
      <trkpt lat="49.41912" lon="1.18051">
        <ele>59</ele>
        <time>2017-06-06T14:15:58Z</time>
      </trkpt>
      <trkpt lat="49.4191" lon="1.18057">
        <ele>59</ele>
        <time>2017-06-06T14:16:14Z</time>
      </trkpt>
      <trkpt lat="49.4191" lon="1.18062">
        <ele>59</ele>
        <time>2017-06-06T14:16:14Z</time>
      </trkpt>
      <trkpt lat="49.41908" lon="1.18072">
        <ele>59</ele>
        <time>2017-06-06T14:16:14Z</time>
      </trkpt>
      <trkpt lat="49.41907" lon="1.18077">
        <ele>59</ele>
        <time>2017-06-06T14:16:14Z</time>
      </trkpt>
      <trkpt lat="49.41906" lon="1.18083">
        <ele>59</ele>
        <time>2017-06-06T14:16:30Z</time>
      </trkpt>
      <trkpt lat="49.41905" lon="1.18089">
        <ele>59</ele>
        <time>2017-06-06T14:16:30Z</time>
      </trkpt>
      <trkpt lat="49.41904" lon="1.18094">
        <ele>59</ele>
        <time>2017-06-06T14:16:30Z</time>
      </trkpt>
      <trkpt lat="49.41903" lon="1.18104">
        <ele>59</ele>
        <time>2017-06-06T14:16:30Z</time>
      </trkpt>
      <trkpt lat="49.41901" lon="1.1811">
        <ele>59</ele>
        <time>2017-06-06T14:16:46Z</time>
      </trkpt>
      <trkpt lat="49.41901" lon="1.18115">
        <ele>59</ele>
        <time>2017-06-06T14:16:46Z</time>
      </trkpt>
      <trkpt lat="49.419" lon="1.18122">
        <ele>59</ele>
        <time>2017-06-06T14:16:46Z</time>
      </trkpt>
      <trkpt lat="49.41899" lon="1.18128">
        <ele>51</ele>
        <time>2017-06-06T14:16:46Z</time>
      </trkpt>
      <trkpt lat="49.41898" lon="1.18135">
        <ele>51</ele>
        <time>2017-06-06T14:17:05Z</time>
      </trkpt>
      <trkpt lat="49.41897" lon="1.18143">
        <ele>51</ele>
        <time>2017-06-06T14:17:06Z</time>
      </trkpt>
      <trkpt lat="49.41898" lon="1.18148">
        <ele>51</ele>
        <time>2017-06-06T14:17:06Z</time>
      </trkpt>
      <trkpt lat="49.41898" lon="1.18149">
        <ele>51</ele>
        <time>2017-06-06T14:17:06Z</time>
      </trkpt>
      <trkpt lat="49.419" lon="1.18151">
        <ele>51</ele>
        <time>2017-06-06T14:17:06Z</time>
      </trkpt>
      <trkpt lat="49.41901" lon="1.18156">
        <ele>51</ele>
        <time>2017-06-06T14:17:22Z</time>
      </trkpt>
      <trkpt lat="49.419" lon="1.18155">
        <ele>51</ele>
        <time>2017-06-06T14:17:22Z</time>
      </trkpt>
      <trkpt lat="49.4189" lon="1.1814">
        <ele>51</ele>
        <time>2017-06-06T14:17:22Z</time>
      </trkpt>
      <trkpt lat="49.41887" lon="1.18135">
        <ele>51</ele>
        <time>2017-06-06T14:17:22Z</time>
      </trkpt>
      <trkpt lat="49.41884" lon="1.18131">
        <ele>51</ele>
        <time>2017-06-06T14:17:39Z</time>
      </trkpt>
      <trkpt lat="49.41868" lon="1.18154">
        <ele>66</ele>
        <time>2017-06-06T14:17:39Z</time>
      </trkpt>
      <trkpt lat="49.41857" lon="1.1816">
        <ele>66</ele>
        <time>2017-06-06T14:17:39Z</time>
      </trkpt>
      <trkpt lat="49.41853" lon="1.18154">
        <ele>66</ele>
        <time>2017-06-06T14:17:39Z</time>
      </trkpt>
      <trkpt lat="49.4185" lon="1.18152">
        <ele>66</ele>
        <time>2017-06-06T14:17:54Z</time>
      </trkpt>
      <trkpt lat="49.41848" lon="1.18161">
        <ele>66</ele>
        <time>2017-06-06T14:17:54Z</time>
      </trkpt>
      <trkpt lat="49.41849" lon="1.18173">
        <ele>66</ele>
        <time>2017-06-06T14:17:54Z</time>
      </trkpt>
      <trkpt lat="49.41844" lon="1.18177">
        <ele>66</ele>
        <time>2017-06-06T14:17:54Z</time>
      </trkpt>
      <trkpt lat="49.41841" lon="1.18181">
        <ele>66</ele>
        <time>2017-06-06T14:18:11Z</time>
      </trkpt>
      <trkpt lat="49.4184" lon="1.18184">
        <ele>66</ele>
        <time>2017-06-06T14:18:11Z</time>
      </trkpt>
      <trkpt lat="49.41843" lon="1.18199">
        <ele>66</ele>
        <time>2017-06-06T14:18:11Z</time>
      </trkpt>
      <trkpt lat="49.41843" lon="1.18211">
        <ele>58</ele>
        <time>2017-06-06T14:18:11Z</time>
      </trkpt>
      <trkpt lat="49.41845" lon="1.18222">
        <ele>58</ele>
        <time>2017-06-06T14:18:26Z</time>
      </trkpt>
      <trkpt lat="49.41843" lon="1.18232">
        <ele>58</ele>
        <time>2017-06-06T14:18:26Z</time>
      </trkpt>
      <trkpt lat="49.41846" lon="1.18242">
        <ele>58</ele>
        <time>2017-06-06T14:18:26Z</time>
      </trkpt>
      <trkpt lat="49.41847" lon="1.18251">
        <ele>58</ele>
        <time>2017-06-06T14:18:26Z</time>
      </trkpt>
      <trkpt lat="49.41848" lon="1.18258">
        <ele>58</ele>
        <time>2017-06-06T14:18:42Z</time>
      </trkpt>
      <trkpt lat="49.41848" lon="1.18267">
        <ele>58</ele>
        <time>2017-06-06T14:18:42Z</time>
      </trkpt>
      <trkpt lat="49.41848" lon="1.18272">
        <ele>58</ele>
        <time>2017-06-06T14:18:42Z</time>
      </trkpt>
      <trkpt lat="49.41846" lon="1.18278">
        <ele>58</ele>
        <time>2017-06-06T14:18:42Z</time>
      </trkpt>
      <trkpt lat="49.41846" lon="1.18289">
        <ele>58</ele>
        <time>2017-06-06T14:19:02Z</time>
      </trkpt>
      <trkpt lat="49.41848" lon="1.18291">
        <ele>58</ele>
        <time>2017-06-06T14:19:02Z</time>
      </trkpt>
      <trkpt lat="49.41851" lon="1.18295">
        <ele>51</ele>
        <time>2017-06-06T14:19:02Z</time>
      </trkpt>
      <trkpt lat="49.41852" lon="1.18299">
        <ele>51</ele>
        <time>2017-06-06T14:19:02Z</time>
      </trkpt>
      <trkpt lat="49.41856" lon="1.18305">
        <ele>51</ele>
        <time>2017-06-06T14:19:02Z</time>
      </trkpt>
      <trkpt lat="49.41857" lon="1.18311">
        <ele>51</ele>
        <time>2017-06-06T14:19:19Z</time>
      </trkpt>
      <trkpt lat="49.41861" lon="1.18319">
        <ele>51</ele>
        <time>2017-06-06T14:19:19Z</time>
      </trkpt>
      <trkpt lat="49.41863" lon="1.18325">
        <ele>51</ele>
        <time>2017-06-06T14:19:19Z</time>
      </trkpt>
      <trkpt lat="49.41866" lon="1.1833">
        <ele>51</ele>
        <time>2017-06-06T14:19:19Z</time>
      </trkpt>
      <trkpt lat="49.41869" lon="1.18335">
        <ele>51</ele>
        <time>2017-06-06T14:19:35Z</time>
      </trkpt>
      <trkpt lat="49.41872" lon="1.1834">
        <ele>51</ele>
        <time>2017-06-06T14:19:35Z</time>
      </trkpt>
      <trkpt lat="49.41876" lon="1.18347">
        <ele>45</ele>
        <time>2017-06-06T14:19:35Z</time>
      </trkpt>
      <trkpt lat="49.41878" lon="1.18353">
        <ele>45</ele>
        <time>2017-06-06T14:19:35Z</time>
      </trkpt>
      <trkpt lat="49.4188" lon="1.18359">
        <ele>45</ele>
        <time>2017-06-06T14:19:50Z</time>
      </trkpt>
      <trkpt lat="49.41883" lon="1.18366">
        <ele>45</ele>
        <time>2017-06-06T14:19:50Z</time>
      </trkpt>
      <trkpt lat="49.41886" lon="1.18372">
        <ele>45</ele>
        <time>2017-06-06T14:19:50Z</time>
      </trkpt>
      <trkpt lat="49.4189" lon="1.18379">
        <ele>45</ele>
        <time>2017-06-06T14:19:50Z</time>
      </trkpt>
      <trkpt lat="49.41892" lon="1.18385">
        <ele>45</ele>
        <time>2017-06-06T14:20:07Z</time>
      </trkpt>
      <trkpt lat="49.41893" lon="1.18391">
        <ele>45</ele>
        <time>2017-06-06T14:20:07Z</time>
      </trkpt>
      <trkpt lat="49.41895" lon="1.184">
        <ele>45</ele>
        <time>2017-06-06T14:20:07Z</time>
      </trkpt>
      <trkpt lat="49.41895" lon="1.18405">
        <ele>45</ele>
        <time>2017-06-06T14:20:07Z</time>
      </trkpt>
      <trkpt lat="49.41895" lon="1.18413">
        <ele>45</ele>
        <time>2017-06-06T14:20:23Z</time>
      </trkpt>
      <trkpt lat="49.41895" lon="1.18418">
        <ele>45</ele>
        <time>2017-06-06T14:20:23Z</time>
      </trkpt>
      <trkpt lat="49.41892" lon="1.18424">
        <ele>45</ele>
        <time>2017-06-06T14:20:23Z</time>
      </trkpt>
      <trkpt lat="49.41887" lon="1.18431">
        <ele>45</ele>
        <time>2017-06-06T14:20:23Z</time>
      </trkpt>
      <trkpt lat="49.41885" lon="1.18436">
        <ele>45</ele>
        <time>2017-06-06T14:20:38Z</time>
      </trkpt>
      <trkpt lat="49.41883" lon="1.18443">
        <ele>45</ele>
        <time>2017-06-06T14:20:38Z</time>
      </trkpt>
      <trkpt lat="49.41881" lon="1.18449">
        <ele>45</ele>
        <time>2017-06-06T14:20:38Z</time>
      </trkpt>
      <trkpt lat="49.41877" lon="1.18454">
        <ele>45</ele>
        <time>2017-06-06T14:20:38Z</time>
      </trkpt>
      <trkpt lat="49.41875" lon="1.18459">
        <ele>47</ele>
        <time>2017-06-06T14:20:54Z</time>
      </trkpt>
      <trkpt lat="49.41873" lon="1.18465">
        <ele>47</ele>
        <time>2017-06-06T14:20:54Z</time>
      </trkpt>
      <trkpt lat="49.41871" lon="1.18471">
        <ele>47</ele>
        <time>2017-06-06T14:20:54Z</time>
      </trkpt>
      <trkpt lat="49.41869" lon="1.18479">
        <ele>47</ele>
        <time>2017-06-06T14:20:54Z</time>
      </trkpt>
      <trkpt lat="49.41866" lon="1.18481">
        <ele>47</ele>
        <time>2017-06-06T14:21:11Z</time>
      </trkpt>
      <trkpt lat="49.41866" lon="1.18489">
        <ele>47</ele>
        <time>2017-06-06T14:21:11Z</time>
      </trkpt>
      <trkpt lat="49.41866" lon="1.18495">
        <ele>47</ele>
        <time>2017-06-06T14:21:11Z</time>
      </trkpt>
      <trkpt lat="49.41867" lon="1.185">
        <ele>47</ele>
        <time>2017-06-06T14:21:11Z</time>
      </trkpt>
      <trkpt lat="49.41867" lon="1.18505">
        <ele>47</ele>
        <time>2017-06-06T14:21:27Z</time>
      </trkpt>
      <trkpt lat="49.41869" lon="1.1851">
        <ele>47</ele>
        <time>2017-06-06T14:21:27Z</time>
      </trkpt>
      <trkpt lat="49.41873" lon="1.18513">
        <ele>47</ele>
        <time>2017-06-06T14:21:27Z</time>
      </trkpt>
      <trkpt lat="49.41875" lon="1.18514">
        <ele>46</ele>
        <time>2017-06-06T14:21:27Z</time>
      </trkpt>
      <trkpt lat="49.41876" lon="1.18517">
        <ele>46</ele>
        <time>2017-06-06T14:21:47Z</time>
      </trkpt>
      <trkpt lat="49.41877" lon="1.1852">
        <ele>46</ele>
        <time>2017-06-06T14:21:47Z</time>
      </trkpt>
      <trkpt lat="49.4188" lon="1.18521">
        <ele>46</ele>
        <time>2017-06-06T14:21:47Z</time>
      </trkpt>
      <trkpt lat="49.41884" lon="1.18524">
        <ele>46</ele>
        <time>2017-06-06T14:21:47Z</time>
      </trkpt>
      <trkpt lat="49.41889" lon="1.18528">
        <ele>46</ele>
        <time>2017-06-06T14:21:47Z</time>
      </trkpt>
      <trkpt lat="49.41892" lon="1.1853">
        <ele>46</ele>
        <time>2017-06-06T14:22:02Z</time>
      </trkpt>
      <trkpt lat="49.41895" lon="1.18535">
        <ele>46</ele>
        <time>2017-06-06T14:22:02Z</time>
      </trkpt>
      <trkpt lat="49.419" lon="1.18539">
        <ele>46</ele>
        <time>2017-06-06T14:22:02Z</time>
      </trkpt>
      <trkpt lat="49.41901" lon="1.18546">
        <ele>48</ele>
        <time>2017-06-06T14:22:02Z</time>
      </trkpt>
      <trkpt lat="49.419" lon="1.18551">
        <ele>48</ele>
        <time>2017-06-06T14:22:17Z</time>
      </trkpt>
      <trkpt lat="49.41898" lon="1.18557">
        <ele>48</ele>
        <time>2017-06-06T14:22:18Z</time>
      </trkpt>
      <trkpt lat="49.41895" lon="1.18563">
        <ele>48</ele>
        <time>2017-06-06T14:22:18Z</time>
      </trkpt>
      <trkpt lat="49.41893" lon="1.18567">
        <ele>48</ele>
        <time>2017-06-06T14:22:18Z</time>
      </trkpt>
      <trkpt lat="49.41893" lon="1.18572">
        <ele>48</ele>
        <time>2017-06-06T14:22:35Z</time>
      </trkpt>
      <trkpt lat="49.41891" lon="1.1858">
        <ele>48</ele>
        <time>2017-06-06T14:22:35Z</time>
      </trkpt>
      <trkpt lat="49.41891" lon="1.18586">
        <ele>48</ele>
        <time>2017-06-06T14:22:35Z</time>
      </trkpt>
      <trkpt lat="49.4189" lon="1.18591">
        <ele>48</ele>
        <time>2017-06-06T14:22:35Z</time>
      </trkpt>
      <trkpt lat="49.4189" lon="1.18599">
        <ele>48</ele>
        <time>2017-06-06T14:22:50Z</time>
      </trkpt>
      <trkpt lat="49.4189" lon="1.18606">
        <ele>48</ele>
        <time>2017-06-06T14:22:50Z</time>
      </trkpt>
      <trkpt lat="49.41889" lon="1.18614">
        <ele>48</ele>
        <time>2017-06-06T14:22:50Z</time>
      </trkpt>
      <trkpt lat="49.41888" lon="1.18621">
        <ele>48</ele>
        <time>2017-06-06T14:22:50Z</time>
      </trkpt>
      <trkpt lat="49.41887" lon="1.18627">
        <ele>55</ele>
        <time>2017-06-06T14:23:07Z</time>
      </trkpt>
      <trkpt lat="49.41886" lon="1.18633">
        <ele>55</ele>
        <time>2017-06-06T14:23:07Z</time>
      </trkpt>
      <trkpt lat="49.41884" lon="1.18639">
        <ele>55</ele>
        <time>2017-06-06T14:23:07Z</time>
      </trkpt>
      <trkpt lat="49.41881" lon="1.18645">
        <ele>55</ele>
        <time>2017-06-06T14:23:07Z</time>
      </trkpt>
      <trkpt lat="49.41879" lon="1.18652">
        <ele>55</ele>
        <time>2017-06-06T14:23:21Z</time>
      </trkpt>
      <trkpt lat="49.41879" lon="1.18659">
        <ele>55</ele>
        <time>2017-06-06T14:23:22Z</time>
      </trkpt>
      <trkpt lat="49.41878" lon="1.18665">
        <ele>55</ele>
        <time>2017-06-06T14:23:22Z</time>
      </trkpt>
      <trkpt lat="49.41876" lon="1.18672">
        <ele>55</ele>
        <time>2017-06-06T14:23:22Z</time>
      </trkpt>
      <trkpt lat="49.41874" lon="1.18678">
        <ele>49</ele>
        <time>2017-06-06T14:23:37Z</time>
      </trkpt>
      <trkpt lat="49.41873" lon="1.18683">
        <ele>49</ele>
        <time>2017-06-06T14:23:38Z</time>
      </trkpt>
      <trkpt lat="49.41871" lon="1.18689">
        <ele>49</ele>
        <time>2017-06-06T14:23:38Z</time>
      </trkpt>
      <trkpt lat="49.41868" lon="1.18695">
        <ele>49</ele>
        <time>2017-06-06T14:23:38Z</time>
      </trkpt>
      <trkpt lat="49.41865" lon="1.18701">
        <ele>49</ele>
        <time>2017-06-06T14:23:56Z</time>
      </trkpt>
      <trkpt lat="49.41862" lon="1.18707">
        <ele>49</ele>
        <time>2017-06-06T14:23:56Z</time>
      </trkpt>
      <trkpt lat="49.41856" lon="1.18708">
        <ele>49</ele>
        <time>2017-06-06T14:23:56Z</time>
      </trkpt>
      <trkpt lat="49.41852" lon="1.18712">
        <ele>48</ele>
        <time>2017-06-06T14:23:56Z</time>
      </trkpt>
      <trkpt lat="49.4185" lon="1.18716">
        <ele>48</ele>
        <time>2017-06-06T14:24:11Z</time>
      </trkpt>
      <trkpt lat="49.41846" lon="1.18721">
        <ele>48</ele>
        <time>2017-06-06T14:24:11Z</time>
      </trkpt>
      <trkpt lat="49.41843" lon="1.18727">
        <ele>48</ele>
        <time>2017-06-06T14:24:11Z</time>
      </trkpt>
      <trkpt lat="49.41838" lon="1.18735">
        <ele>48</ele>
        <time>2017-06-06T14:24:11Z</time>
      </trkpt>
      <trkpt lat="49.41837" lon="1.1874">
        <ele>48</ele>
        <time>2017-06-06T14:24:27Z</time>
      </trkpt>
      <trkpt lat="49.41833" lon="1.18745">
        <ele>48</ele>
        <time>2017-06-06T14:24:27Z</time>
      </trkpt>
      <trkpt lat="49.41831" lon="1.18749">
        <ele>48</ele>
        <time>2017-06-06T14:24:27Z</time>
      </trkpt>
      <trkpt lat="49.41828" lon="1.18755">
        <ele>48</ele>
        <time>2017-06-06T14:24:27Z</time>
      </trkpt>
      <trkpt lat="49.41824" lon="1.1876">
        <ele>48</ele>
        <time>2017-06-06T14:24:42Z</time>
      </trkpt>
      <trkpt lat="49.4182" lon="1.18765">
        <ele>48</ele>
        <time>2017-06-06T14:24:42Z</time>
      </trkpt>
      <trkpt lat="49.41814" lon="1.18769">
        <ele>48</ele>
        <time>2017-06-06T14:24:42Z</time>
      </trkpt>
      <trkpt lat="49.41811" lon="1.1877">
        <ele>48</ele>
        <time>2017-06-06T14:24:42Z</time>
      </trkpt>
      <trkpt lat="49.41808" lon="1.18775">
        <ele>48</ele>
        <time>2017-06-06T14:24:59Z</time>
      </trkpt>
      <trkpt lat="49.41805" lon="1.1878">
        <ele>48</ele>
        <time>2017-06-06T14:24:59Z</time>
      </trkpt>
      <trkpt lat="49.41802" lon="1.18787">
        <ele>48</ele>
        <time>2017-06-06T14:24:59Z</time>
      </trkpt>
      <trkpt lat="49.41799" lon="1.18793">
        <ele>51</ele>
        <time>2017-06-06T14:24:59Z</time>
      </trkpt>
      <trkpt lat="49.41797" lon="1.18799">
        <ele>51</ele>
        <time>2017-06-06T14:25:15Z</time>
      </trkpt>
      <trkpt lat="49.41795" lon="1.18809">
        <ele>51</ele>
        <time>2017-06-06T14:25:15Z</time>
      </trkpt>
      <trkpt lat="49.41794" lon="1.18813">
        <ele>51</ele>
        <time>2017-06-06T14:25:15Z</time>
      </trkpt>
      <trkpt lat="49.41792" lon="1.18818">
        <ele>51</ele>
        <time>2017-06-06T14:25:15Z</time>
      </trkpt>
      <trkpt lat="49.4179" lon="1.18825">
        <ele>50</ele>
        <time>2017-06-06T14:25:31Z</time>
      </trkpt>
      <trkpt lat="49.41789" lon="1.18832">
        <ele>50</ele>
        <time>2017-06-06T14:25:31Z</time>
      </trkpt>
      <trkpt lat="49.41787" lon="1.1884">
        <ele>50</ele>
        <time>2017-06-06T14:25:31Z</time>
      </trkpt>
      <trkpt lat="49.41785" lon="1.18844">
        <ele>50</ele>
        <time>2017-06-06T14:25:31Z</time>
      </trkpt>
      <trkpt lat="49.41783" lon="1.1885">
        <ele>50</ele>
        <time>2017-06-06T14:25:46Z</time>
      </trkpt>
      <trkpt lat="49.41778" lon="1.18854">
        <ele>50</ele>
        <time>2017-06-06T14:25:46Z</time>
      </trkpt>
      <trkpt lat="49.41775" lon="1.18862">
        <ele>50</ele>
        <time>2017-06-06T14:25:46Z</time>
      </trkpt>
      <trkpt lat="49.41774" lon="1.18867">
        <ele>50</ele>
        <time>2017-06-06T14:25:46Z</time>
      </trkpt>
      <trkpt lat="49.41773" lon="1.18874">
        <ele>50</ele>
        <time>2017-06-06T14:26:02Z</time>
      </trkpt>
      <trkpt lat="49.41773" lon="1.18881">
        <ele>50</ele>
        <time>2017-06-06T14:26:02Z</time>
      </trkpt>
      <trkpt lat="49.41773" lon="1.18889">
        <ele>50</ele>
        <time>2017-06-06T14:26:02Z</time>
      </trkpt>
      <trkpt lat="49.4177" lon="1.18896">
        <ele>50</ele>
        <time>2017-06-06T14:26:02Z</time>
      </trkpt>
      <trkpt lat="49.41767" lon="1.18902">
        <ele>50</ele>
        <time>2017-06-06T14:26:18Z</time>
      </trkpt>
      <trkpt lat="49.41766" lon="1.18909">
        <ele>50</ele>
        <time>2017-06-06T14:26:18Z</time>
      </trkpt>
      <trkpt lat="49.41765" lon="1.18916">
        <ele>50</ele>
        <time>2017-06-06T14:26:18Z</time>
      </trkpt>
      <trkpt lat="49.41764" lon="1.18922">
        <ele>50</ele>
        <time>2017-06-06T14:26:18Z</time>
      </trkpt>
      <trkpt lat="49.41763" lon="1.18928">
        <ele>50</ele>
        <time>2017-06-06T14:26:35Z</time>
      </trkpt>
      <trkpt lat="49.4176" lon="1.18936">
        <ele>50</ele>
        <time>2017-06-06T14:26:35Z</time>
      </trkpt>
      <trkpt lat="49.41759" lon="1.18943">
        <ele>50</ele>
        <time>2017-06-06T14:26:35Z</time>
      </trkpt>
      <trkpt lat="49.41757" lon="1.18951">
        <ele>50</ele>
        <time>2017-06-06T14:26:35Z</time>
      </trkpt>
      <trkpt lat="49.41755" lon="1.18959">
        <ele>50</ele>
        <time>2017-06-06T14:26:51Z</time>
      </trkpt>
      <trkpt lat="49.41754" lon="1.18965">
        <ele>50</ele>
        <time>2017-06-06T14:26:51Z</time>
      </trkpt>
      <trkpt lat="49.41753" lon="1.18976">
        <ele>50</ele>
        <time>2017-06-06T14:26:51Z</time>
      </trkpt>
      <trkpt lat="49.41751" lon="1.18984">
        <ele>50</ele>
        <time>2017-06-06T14:26:51Z</time>
      </trkpt>
      <trkpt lat="49.41748" lon="1.18991">
        <ele>50</ele>
        <time>2017-06-06T14:27:07Z</time>
      </trkpt>
      <trkpt lat="49.41747" lon="1.18997">
        <ele>50</ele>
        <time>2017-06-06T14:27:07Z</time>
      </trkpt>
      <trkpt lat="49.41744" lon="1.19004">
        <ele>50</ele>
        <time>2017-06-06T14:27:07Z</time>
      </trkpt>
      <trkpt lat="49.41742" lon="1.19012">
        <ele>50</ele>
        <time>2017-06-06T14:27:07Z</time>
      </trkpt>
      <trkpt lat="49.4174" lon="1.19019">
        <ele>50</ele>
        <time>2017-06-06T14:27:24Z</time>
      </trkpt>
      <trkpt lat="49.41738" lon="1.19026">
        <ele>50</ele>
        <time>2017-06-06T14:27:24Z</time>
      </trkpt>
      <trkpt lat="49.41734" lon="1.19031">
        <ele>50</ele>
        <time>2017-06-06T14:27:24Z</time>
      </trkpt>
      <trkpt lat="49.4173" lon="1.1904">
        <ele>50</ele>
        <time>2017-06-06T14:27:24Z</time>
      </trkpt>
      <trkpt lat="49.41728" lon="1.19045">
        <ele>50</ele>
        <time>2017-06-06T14:27:39Z</time>
      </trkpt>
      <trkpt lat="49.41726" lon="1.19051">
        <ele>50</ele>
        <time>2017-06-06T14:27:39Z</time>
      </trkpt>
      <trkpt lat="49.41725" lon="1.19058">
        <ele>50</ele>
        <time>2017-06-06T14:27:39Z</time>
      </trkpt>
      <trkpt lat="49.41724" lon="1.19065">
        <ele>50</ele>
        <time>2017-06-06T14:27:39Z</time>
      </trkpt>
      <trkpt lat="49.41721" lon="1.19072">
        <ele>50</ele>
        <time>2017-06-06T14:27:54Z</time>
      </trkpt>
      <trkpt lat="49.41721" lon="1.19076">
        <ele>50</ele>
        <time>2017-06-06T14:27:54Z</time>
      </trkpt>
      <trkpt lat="49.4172" lon="1.1908">
        <ele>50</ele>
        <time>2017-06-06T14:27:54Z</time>
      </trkpt>
      <trkpt lat="49.41719" lon="1.19086">
        <ele>50</ele>
        <time>2017-06-06T14:27:54Z</time>
      </trkpt>
      <trkpt lat="49.41718" lon="1.19094">
        <ele>50</ele>
        <time>2017-06-06T14:28:10Z</time>
      </trkpt>
      <trkpt lat="49.41717" lon="1.19104">
        <ele>50</ele>
        <time>2017-06-06T14:28:10Z</time>
      </trkpt>
      <trkpt lat="49.41716" lon="1.19111">
        <ele>50</ele>
        <time>2017-06-06T14:28:10Z</time>
      </trkpt>
      <trkpt lat="49.41714" lon="1.19118">
        <ele>50</ele>
        <time>2017-06-06T14:28:10Z</time>
      </trkpt>
      <trkpt lat="49.41712" lon="1.19126">
        <ele>51</ele>
        <time>2017-06-06T14:28:27Z</time>
      </trkpt>
      <trkpt lat="49.41709" lon="1.19132">
        <ele>51</ele>
        <time>2017-06-06T14:28:27Z</time>
      </trkpt>
      <trkpt lat="49.41706" lon="1.19139">
        <ele>56</ele>
        <time>2017-06-06T14:28:27Z</time>
      </trkpt>
      <trkpt lat="49.41704" lon="1.19147">
        <ele>56</ele>
        <time>2017-06-06T14:28:27Z</time>
      </trkpt>
      <trkpt lat="49.41702" lon="1.19154">
        <ele>56</ele>
        <time>2017-06-06T14:28:43Z</time>
      </trkpt>
      <trkpt lat="49.417" lon="1.19161">
        <ele>56</ele>
        <time>2017-06-06T14:28:43Z</time>
      </trkpt>
      <trkpt lat="49.417" lon="1.19168">
        <ele>56</ele>
        <time>2017-06-06T14:28:43Z</time>
      </trkpt>
      <trkpt lat="49.41698" lon="1.19176">
        <ele>56</ele>
        <time>2017-06-06T14:28:43Z</time>
      </trkpt>
      <trkpt lat="49.41695" lon="1.19183">
        <ele>56</ele>
        <time>2017-06-06T14:28:59Z</time>
      </trkpt>
      <trkpt lat="49.41693" lon="1.19192">
        <ele>56</ele>
        <time>2017-06-06T14:28:59Z</time>
      </trkpt>
      <trkpt lat="49.41691" lon="1.192">
        <ele>56</ele>
        <time>2017-06-06T14:28:59Z</time>
      </trkpt>
      <trkpt lat="49.4169" lon="1.19207">
        <ele>56</ele>
        <time>2017-06-06T14:28:59Z</time>
      </trkpt>
      <trkpt lat="49.41689" lon="1.19213">
        <ele>55</ele>
        <time>2017-06-06T14:29:13Z</time>
      </trkpt>
      <trkpt lat="49.41689" lon="1.19221">
        <ele>55</ele>
        <time>2017-06-06T14:29:14Z</time>
      </trkpt>
      <trkpt lat="49.41686" lon="1.19229">
        <ele>55</ele>
        <time>2017-06-06T14:29:14Z</time>
      </trkpt>
      <trkpt lat="49.41685" lon="1.19234">
        <ele>55</ele>
        <time>2017-06-06T14:29:14Z</time>
      </trkpt>
      <trkpt lat="49.41683" lon="1.19241">
        <ele>55</ele>
        <time>2017-06-06T14:29:31Z</time>
      </trkpt>
      <trkpt lat="49.41683" lon="1.19248">
        <ele>55</ele>
        <time>2017-06-06T14:29:31Z</time>
      </trkpt>
      <trkpt lat="49.41681" lon="1.19255">
        <ele>55</ele>
        <time>2017-06-06T14:29:31Z</time>
      </trkpt>
      <trkpt lat="49.41679" lon="1.19261">
        <ele>55</ele>
        <time>2017-06-06T14:29:31Z</time>
      </trkpt>
      <trkpt lat="49.41677" lon="1.19268">
        <ele>55</ele>
        <time>2017-06-06T14:29:47Z</time>
      </trkpt>
      <trkpt lat="49.41674" lon="1.19275">
        <ele>55</ele>
        <time>2017-06-06T14:29:47Z</time>
      </trkpt>
      <trkpt lat="49.41671" lon="1.19281">
        <ele>55</ele>
        <time>2017-06-06T14:29:47Z</time>
      </trkpt>
      <trkpt lat="49.41668" lon="1.19287">
        <ele>55</ele>
        <time>2017-06-06T14:29:47Z</time>
      </trkpt>
      <trkpt lat="49.41665" lon="1.19294">
        <ele>53</ele>
        <time>2017-06-06T14:30:03Z</time>
      </trkpt>
      <trkpt lat="49.41662" lon="1.19303">
        <ele>53</ele>
        <time>2017-06-06T14:30:03Z</time>
      </trkpt>
      <trkpt lat="49.41661" lon="1.1931">
        <ele>53</ele>
        <time>2017-06-06T14:30:03Z</time>
      </trkpt>
      <trkpt lat="49.41658" lon="1.19317">
        <ele>53</ele>
        <time>2017-06-06T14:30:03Z</time>
      </trkpt>
      <trkpt lat="49.41655" lon="1.19324">
        <ele>53</ele>
        <time>2017-06-06T14:30:17Z</time>
      </trkpt>
      <trkpt lat="49.41653" lon="1.19333">
        <ele>53</ele>
        <time>2017-06-06T14:30:18Z</time>
      </trkpt>
      <trkpt lat="49.41652" lon="1.19339">
        <ele>53</ele>
        <time>2017-06-06T14:30:18Z</time>
      </trkpt>
      <trkpt lat="49.41651" lon="1.19345">
        <ele>53</ele>
        <time>2017-06-06T14:30:18Z</time>
      </trkpt>
      <trkpt lat="49.41649" lon="1.19352">
        <ele>53</ele>
        <time>2017-06-06T14:30:33Z</time>
      </trkpt>
      <trkpt lat="49.41645" lon="1.19358">
        <ele>53</ele>
        <time>2017-06-06T14:30:34Z</time>
      </trkpt>
      <trkpt lat="49.41642" lon="1.19365">
        <ele>53</ele>
        <time>2017-06-06T14:30:34Z</time>
      </trkpt>
      <trkpt lat="49.4164" lon="1.19371">
        <ele>53</ele>
        <time>2017-06-06T14:30:34Z</time>
      </trkpt>
      <trkpt lat="49.41638" lon="1.19379">
        <ele>53</ele>
        <time>2017-06-06T14:30:49Z</time>
      </trkpt>
      <trkpt lat="49.41634" lon="1.19386">
        <ele>53</ele>
        <time>2017-06-06T14:30:50Z</time>
      </trkpt>
      <trkpt lat="49.41632" lon="1.19394">
        <ele>53</ele>
        <time>2017-06-06T14:30:50Z</time>
      </trkpt>
      <trkpt lat="49.4163" lon="1.19402">
        <ele>53</ele>
        <time>2017-06-06T14:30:50Z</time>
      </trkpt>
      <trkpt lat="49.41628" lon="1.19409">
        <ele>53</ele>
        <time>2017-06-06T14:31:05Z</time>
      </trkpt>
      <trkpt lat="49.41626" lon="1.19417">
        <ele>53</ele>
        <time>2017-06-06T14:31:06Z</time>
      </trkpt>
      <trkpt lat="49.41624" lon="1.19423">
        <ele>57</ele>
        <time>2017-06-06T14:31:06Z</time>
      </trkpt>
      <trkpt lat="49.41623" lon="1.19429">
        <ele>57</ele>
        <time>2017-06-06T14:31:06Z</time>
      </trkpt>
      <trkpt lat="49.41621" lon="1.19436">
        <ele>57</ele>
        <time>2017-06-06T14:31:23Z</time>
      </trkpt>
      <trkpt lat="49.4162" lon="1.19443">
        <ele>57</ele>
        <time>2017-06-06T14:31:23Z</time>
      </trkpt>
      <trkpt lat="49.41619" lon="1.19451">
        <ele>57</ele>
        <time>2017-06-06T14:31:23Z</time>
      </trkpt>
      <trkpt lat="49.41618" lon="1.19457">
        <ele>57</ele>
        <time>2017-06-06T14:31:23Z</time>
      </trkpt>
      <trkpt lat="49.41617" lon="1.19464">
        <ele>54</ele>
        <time>2017-06-06T14:31:38Z</time>
      </trkpt>
      <trkpt lat="49.41615" lon="1.1947">
        <ele>54</ele>
        <time>2017-06-06T14:31:38Z</time>
      </trkpt>
      <trkpt lat="49.41611" lon="1.19475">
        <ele>54</ele>
        <time>2017-06-06T14:31:38Z</time>
      </trkpt>
      <trkpt lat="49.41607" lon="1.19478">
        <ele>54</ele>
        <time>2017-06-06T14:31:38Z</time>
      </trkpt>
      <trkpt lat="49.41604" lon="1.19483">
        <ele>54</ele>
        <time>2017-06-06T14:31:54Z</time>
      </trkpt>
      <trkpt lat="49.416" lon="1.19488">
        <ele>54</ele>
        <time>2017-06-06T14:31:54Z</time>
      </trkpt>
      <trkpt lat="49.41598" lon="1.19494">
        <ele>54</ele>
        <time>2017-06-06T14:31:54Z</time>
      </trkpt>
      <trkpt lat="49.41596" lon="1.19502">
        <ele>54</ele>
        <time>2017-06-06T14:31:54Z</time>
      </trkpt>
      <trkpt lat="49.41595" lon="1.19509">
        <ele>54</ele>
        <time>2017-06-06T14:32:11Z</time>
      </trkpt>
      <trkpt lat="49.41594" lon="1.19515">
        <ele>54</ele>
        <time>2017-06-06T14:32:11Z</time>
      </trkpt>
      <trkpt lat="49.41593" lon="1.19525">
        <ele>54</ele>
        <time>2017-06-06T14:32:11Z</time>
      </trkpt>
      <trkpt lat="49.41592" lon="1.1953">
        <ele>54</ele>
        <time>2017-06-06T14:32:11Z</time>
      </trkpt>
      <trkpt lat="49.41591" lon="1.19537">
        <ele>54</ele>
        <time>2017-06-06T14:32:27Z</time>
      </trkpt>
      <trkpt lat="49.4159" lon="1.19544">
        <ele>53</ele>
        <time>2017-06-06T14:32:27Z</time>
      </trkpt>
      <trkpt lat="49.41588" lon="1.19551">
        <ele>53</ele>
        <time>2017-06-06T14:32:27Z</time>
      </trkpt>
      <trkpt lat="49.41587" lon="1.19558">
        <ele>53</ele>
        <time>2017-06-06T14:32:27Z</time>
      </trkpt>
      <trkpt lat="49.41588" lon="1.19566">
        <ele>53</ele>
        <time>2017-06-06T14:32:43Z</time>
      </trkpt>
      <trkpt lat="49.41588" lon="1.19574">
        <ele>53</ele>
        <time>2017-06-06T14:32:43Z</time>
      </trkpt>
      <trkpt lat="49.41585" lon="1.19579">
        <ele>53</ele>
        <time>2017-06-06T14:32:43Z</time>
      </trkpt>
      <trkpt lat="49.4158" lon="1.19577">
        <ele>53</ele>
        <time>2017-06-06T14:32:43Z</time>
      </trkpt>
      <trkpt lat="49.41579" lon="1.19577">
        <ele>53</ele>
        <time>2017-06-06T14:34:33Z</time>
      </trkpt>
      <trkpt lat="49.41579" lon="1.19577">
        <ele>53</ele>
        <time>2017-06-06T14:34:34Z</time>
      </trkpt>
      <trkpt lat="49.41579" lon="1.19578">
        <ele>53</ele>
        <time>2017-06-06T14:34:34Z</time>
      </trkpt>
      <trkpt lat="49.41571" lon="1.19577">
        <ele>53</ele>
        <time>2017-06-06T14:34:34Z</time>
      </trkpt>
      <trkpt lat="49.41562" lon="1.19573">
        <ele>53</ele>
        <time>2017-06-06T14:34:34Z</time>
      </trkpt>
      <trkpt lat="49.41565" lon="1.19578">
        <ele>53</ele>
        <time>2017-06-06T14:36:23Z</time>
      </trkpt>
      <trkpt lat="49.41558" lon="1.19585">
        <ele>53</ele>
        <time>2017-06-06T14:36:23Z</time>
      </trkpt>
      <trkpt lat="49.41554" lon="1.19589">
        <ele>53</ele>
        <time>2017-06-06T14:36:23Z</time>
      </trkpt>
      <trkpt lat="49.41553" lon="1.19596">
        <ele>53</ele>
        <time>2017-06-06T14:36:23Z</time>
      </trkpt>
      <trkpt lat="49.4155" lon="1.19604">
        <ele>53</ele>
        <time>2017-06-06T14:36:23Z</time>
      </trkpt>
      <trkpt lat="49.41549" lon="1.19609">
        <ele>53</ele>
        <time>2017-06-06T14:36:39Z</time>
      </trkpt>
      <trkpt lat="49.41546" lon="1.19616">
        <ele>53</ele>
        <time>2017-06-06T14:36:39Z</time>
      </trkpt>
      <trkpt lat="49.41544" lon="1.19621">
        <ele>53</ele>
        <time>2017-06-06T14:36:39Z</time>
      </trkpt>
      <trkpt lat="49.41542" lon="1.19627">
        <ele>52</ele>
        <time>2017-06-06T14:36:39Z</time>
      </trkpt>
      <trkpt lat="49.41539" lon="1.19636">
        <ele>56</ele>
        <time>2017-06-06T14:36:54Z</time>
      </trkpt>
      <trkpt lat="49.41537" lon="1.19642">
        <ele>56</ele>
        <time>2017-06-06T14:36:54Z</time>
      </trkpt>
      <trkpt lat="49.41534" lon="1.19648">
        <ele>56</ele>
        <time>2017-06-06T14:36:54Z</time>
      </trkpt>
      <trkpt lat="49.41532" lon="1.19652">
        <ele>56</ele>
        <time>2017-06-06T14:36:54Z</time>
      </trkpt>
      <trkpt lat="49.41528" lon="1.19659">
        <ele>56</ele>
        <time>2017-06-06T14:37:11Z</time>
      </trkpt>
      <trkpt lat="49.41525" lon="1.19664">
        <ele>56</ele>
        <time>2017-06-06T14:37:11Z</time>
      </trkpt>
      <trkpt lat="49.41522" lon="1.19672">
        <ele>56</ele>
        <time>2017-06-06T14:37:11Z</time>
      </trkpt>
      <trkpt lat="49.41519" lon="1.19679">
        <ele>56</ele>
        <time>2017-06-06T14:37:11Z</time>
      </trkpt>
      <trkpt lat="49.41517" lon="1.19686">
        <ele>56</ele>
        <time>2017-06-06T14:37:27Z</time>
      </trkpt>
      <trkpt lat="49.41515" lon="1.19694">
        <ele>56</ele>
        <time>2017-06-06T14:37:27Z</time>
      </trkpt>
      <trkpt lat="49.41512" lon="1.19701">
        <ele>56</ele>
        <time>2017-06-06T14:37:27Z</time>
      </trkpt>
      <trkpt lat="49.4151" lon="1.19707">
        <ele>56</ele>
        <time>2017-06-06T14:37:27Z</time>
      </trkpt>
      <trkpt lat="49.41507" lon="1.19713">
        <ele>54</ele>
        <time>2017-06-06T14:37:43Z</time>
      </trkpt>
      <trkpt lat="49.41506" lon="1.19722">
        <ele>54</ele>
        <time>2017-06-06T14:37:43Z</time>
      </trkpt>
      <trkpt lat="49.41503" lon="1.19728">
        <ele>54</ele>
        <time>2017-06-06T14:37:43Z</time>
      </trkpt>
      <trkpt lat="49.415" lon="1.19734">
        <ele>54</ele>
        <time>2017-06-06T14:37:43Z</time>
      </trkpt>
      <trkpt lat="49.41498" lon="1.1974">
        <ele>54</ele>
        <time>2017-06-06T14:37:59Z</time>
      </trkpt>
      <trkpt lat="49.41495" lon="1.19748">
        <ele>54</ele>
        <time>2017-06-06T14:37:59Z</time>
      </trkpt>
      <trkpt lat="49.41491" lon="1.19756">
        <ele>54</ele>
        <time>2017-06-06T14:37:59Z</time>
      </trkpt>
      <trkpt lat="49.41489" lon="1.19762">
        <ele>54</ele>
        <time>2017-06-06T14:37:59Z</time>
      </trkpt>
      <trkpt lat="49.41488" lon="1.19766">
        <ele>54</ele>
        <time>2017-06-06T14:38:14Z</time>
      </trkpt>
      <trkpt lat="49.41485" lon="1.19771">
        <ele>54</ele>
        <time>2017-06-06T14:38:14Z</time>
      </trkpt>
      <trkpt lat="49.41482" lon="1.19778">
        <ele>54</ele>
        <time>2017-06-06T14:38:14Z</time>
      </trkpt>
      <trkpt lat="49.4148" lon="1.19785">
        <ele>54</ele>
        <time>2017-06-06T14:38:14Z</time>
      </trkpt>
      <trkpt lat="49.41477" lon="1.19791">
        <ele>54</ele>
        <time>2017-06-06T14:38:31Z</time>
      </trkpt>
      <trkpt lat="49.41475" lon="1.19796">
        <ele>54</ele>
        <time>2017-06-06T14:38:31Z</time>
      </trkpt>
      <trkpt lat="49.41471" lon="1.19803">
        <ele>54</ele>
        <time>2017-06-06T14:38:31Z</time>
      </trkpt>
      <trkpt lat="49.41469" lon="1.19807">
        <ele>54</ele>
        <time>2017-06-06T14:38:31Z</time>
      </trkpt>
      <trkpt lat="49.41466" lon="1.19815">
        <ele>54</ele>
        <time>2017-06-06T14:38:47Z</time>
      </trkpt>
      <trkpt lat="49.41463" lon="1.19823">
        <ele>54</ele>
        <time>2017-06-06T14:38:47Z</time>
      </trkpt>
      <trkpt lat="49.41459" lon="1.19831">
        <ele>54</ele>
        <time>2017-06-06T14:38:47Z</time>
      </trkpt>
      <trkpt lat="49.41457" lon="1.19838">
        <ele>64</ele>
        <time>2017-06-06T14:38:47Z</time>
      </trkpt>
      <trkpt lat="49.41454" lon="1.19846">
        <ele>64</ele>
        <time>2017-06-06T14:39:02Z</time>
      </trkpt>
      <trkpt lat="49.41452" lon="1.19853">
        <ele>64</ele>
        <time>2017-06-06T14:39:02Z</time>
      </trkpt>
      <trkpt lat="49.41451" lon="1.19858">
        <ele>64</ele>
        <time>2017-06-06T14:39:02Z</time>
      </trkpt>
      <trkpt lat="49.41449" lon="1.19867">
        <ele>64</ele>
        <time>2017-06-06T14:39:02Z</time>
      </trkpt>
      <trkpt lat="49.41447" lon="1.19873">
        <ele>64</ele>
        <time>2017-06-06T14:39:19Z</time>
      </trkpt>
      <trkpt lat="49.41446" lon="1.19881">
        <ele>55</ele>
        <time>2017-06-06T14:39:19Z</time>
      </trkpt>
      <trkpt lat="49.41445" lon="1.19888">
        <ele>55</ele>
        <time>2017-06-06T14:39:19Z</time>
      </trkpt>
      <trkpt lat="49.41443" lon="1.19897">
        <ele>55</ele>
        <time>2017-06-06T14:39:19Z</time>
      </trkpt>
      <trkpt lat="49.41443" lon="1.19903">
        <ele>55</ele>
        <time>2017-06-06T14:39:35Z</time>
      </trkpt>
      <trkpt lat="49.4144" lon="1.19911">
        <ele>55</ele>
        <time>2017-06-06T14:39:35Z</time>
      </trkpt>
      <trkpt lat="49.41439" lon="1.1992">
        <ele>55</ele>
        <time>2017-06-06T14:39:35Z</time>
      </trkpt>
      <trkpt lat="49.41437" lon="1.19928">
        <ele>55</ele>
        <time>2017-06-06T14:39:35Z</time>
      </trkpt>
      <trkpt lat="49.41436" lon="1.19935">
        <ele>55</ele>
        <time>2017-06-06T14:39:51Z</time>
      </trkpt>
      <trkpt lat="49.41434" lon="1.19943">
        <ele>55</ele>
        <time>2017-06-06T14:39:51Z</time>
      </trkpt>
      <trkpt lat="49.41432" lon="1.19952">
        <ele>55</ele>
        <time>2017-06-06T14:39:51Z</time>
      </trkpt>
      <trkpt lat="49.41431" lon="1.19959">
        <ele>54</ele>
        <time>2017-06-06T14:39:51Z</time>
      </trkpt>
      <trkpt lat="49.4143" lon="1.19966">
        <ele>54</ele>
        <time>2017-06-06T14:40:07Z</time>
      </trkpt>
      <trkpt lat="49.41429" lon="1.19977">
        <ele>54</ele>
        <time>2017-06-06T14:40:07Z</time>
      </trkpt>
      <trkpt lat="49.41429" lon="1.19978">
        <ele>54</ele>
        <time>2017-06-06T14:40:07Z</time>
      </trkpt>
      <trkpt lat="49.41428" lon="1.19992">
        <ele>54</ele>
        <time>2017-06-06T14:40:07Z</time>
      </trkpt>
      <trkpt lat="49.41429" lon="1.19999">
        <ele>54</ele>
        <time>2017-06-06T14:40:23Z</time>
      </trkpt>
      <trkpt lat="49.41429" lon="1.20008">
        <ele>54</ele>
        <time>2017-06-06T14:40:23Z</time>
      </trkpt>
      <trkpt lat="49.41427" lon="1.20016">
        <ele>54</ele>
        <time>2017-06-06T14:40:23Z</time>
      </trkpt>
      <trkpt lat="49.41427" lon="1.20023">
        <ele>54</ele>
        <time>2017-06-06T14:40:23Z</time>
      </trkpt>
      <trkpt lat="49.41426" lon="1.20032">
        <ele>54</ele>
        <time>2017-06-06T14:40:38Z</time>
      </trkpt>
      <trkpt lat="49.41426" lon="1.20038">
        <ele>54</ele>
        <time>2017-06-06T14:40:38Z</time>
      </trkpt>
      <trkpt lat="49.41425" lon="1.20046">
        <ele>54</ele>
        <time>2017-06-06T14:40:38Z</time>
      </trkpt>
      <trkpt lat="49.41425" lon="1.20054">
        <ele>54</ele>
        <time>2017-06-06T14:40:38Z</time>
      </trkpt>
      <trkpt lat="49.41425" lon="1.20062">
        <ele>54</ele>
        <time>2017-06-06T14:40:55Z</time>
      </trkpt>
      <trkpt lat="49.41424" lon="1.2007">
        <ele>54</ele>
        <time>2017-06-06T14:40:55Z</time>
      </trkpt>
      <trkpt lat="49.41423" lon="1.20078">
        <ele>54</ele>
        <time>2017-06-06T14:40:55Z</time>
      </trkpt>
      <trkpt lat="49.41424" lon="1.20086">
        <ele>54</ele>
        <time>2017-06-06T14:40:55Z</time>
      </trkpt>
      <trkpt lat="49.41424" lon="1.20094">
        <ele>54</ele>
        <time>2017-06-06T14:41:10Z</time>
      </trkpt>
      <trkpt lat="49.41423" lon="1.20102">
        <ele>54</ele>
        <time>2017-06-06T14:41:10Z</time>
      </trkpt>
      <trkpt lat="49.41422" lon="1.2011">
        <ele>54</ele>
        <time>2017-06-06T14:41:10Z</time>
      </trkpt>
      <trkpt lat="49.41421" lon="1.20117">
        <ele>54</ele>
        <time>2017-06-06T14:41:10Z</time>
      </trkpt>
      <trkpt lat="49.4142" lon="1.20124">
        <ele>54</ele>
        <time>2017-06-06T14:41:26Z</time>
      </trkpt>
      <trkpt lat="49.41419" lon="1.20131">
        <ele>56</ele>
        <time>2017-06-06T14:41:26Z</time>
      </trkpt>
      <trkpt lat="49.4142" lon="1.20139">
        <ele>56</ele>
        <time>2017-06-06T14:41:26Z</time>
      </trkpt>
      <trkpt lat="49.4142" lon="1.2015">
        <ele>56</ele>
        <time>2017-06-06T14:41:26Z</time>
      </trkpt>
      <trkpt lat="49.41421" lon="1.20156">
        <ele>56</ele>
        <time>2017-06-06T14:41:43Z</time>
      </trkpt>
      <trkpt lat="49.41421" lon="1.20164">
        <ele>56</ele>
        <time>2017-06-06T14:41:43Z</time>
      </trkpt>
      <trkpt lat="49.41421" lon="1.20172">
        <ele>56</ele>
        <time>2017-06-06T14:41:43Z</time>
      </trkpt>
      <trkpt lat="49.41421" lon="1.20179">
        <ele>56</ele>
        <time>2017-06-06T14:41:43Z</time>
      </trkpt>
      <trkpt lat="49.41421" lon="1.20186">
        <ele>56</ele>
        <time>2017-06-06T14:41:59Z</time>
      </trkpt>
      <trkpt lat="49.41422" lon="1.20193">
        <ele>56</ele>
        <time>2017-06-06T14:41:59Z</time>
      </trkpt>
      <trkpt lat="49.41423" lon="1.20204">
        <ele>56</ele>
        <time>2017-06-06T14:41:59Z</time>
      </trkpt>
      <trkpt lat="49.41424" lon="1.20209">
        <ele>56</ele>
        <time>2017-06-06T14:41:59Z</time>
      </trkpt>
      <trkpt lat="49.41423" lon="1.20216">
        <ele>56</ele>
        <time>2017-06-06T14:42:14Z</time>
      </trkpt>
      <trkpt lat="49.41423" lon="1.20224">
        <ele>56</ele>
        <time>2017-06-06T14:42:14Z</time>
      </trkpt>
      <trkpt lat="49.41423" lon="1.20233">
        <ele>56</ele>
        <time>2017-06-06T14:42:14Z</time>
      </trkpt>
      <trkpt lat="49.41424" lon="1.20241">
        <ele>56</ele>
        <time>2017-06-06T14:42:14Z</time>
      </trkpt>
      <trkpt lat="49.41424" lon="1.20246">
        <ele>56</ele>
        <time>2017-06-06T14:42:30Z</time>
      </trkpt>
      <trkpt lat="49.41425" lon="1.20258">
        <ele>56</ele>
        <time>2017-06-06T14:42:30Z</time>
      </trkpt>
      <trkpt lat="49.41425" lon="1.20264">
        <ele>56</ele>
        <time>2017-06-06T14:42:30Z</time>
      </trkpt>
      <trkpt lat="49.41426" lon="1.20271">
        <ele>56</ele>
        <time>2017-06-06T14:42:30Z</time>
      </trkpt>
      <trkpt lat="49.41426" lon="1.20278">
        <ele>56</ele>
        <time>2017-06-06T14:42:47Z</time>
      </trkpt>
      <trkpt lat="49.41425" lon="1.20287">
        <ele>56</ele>
        <time>2017-06-06T14:42:47Z</time>
      </trkpt>
      <trkpt lat="49.41425" lon="1.20296">
        <ele>55</ele>
        <time>2017-06-06T14:42:47Z</time>
      </trkpt>
      <trkpt lat="49.41426" lon="1.20302">
        <ele>55</ele>
        <time>2017-06-06T14:42:47Z</time>
      </trkpt>
      <trkpt lat="49.41426" lon="1.20309">
        <ele>55</ele>
        <time>2017-06-06T14:43:04Z</time>
      </trkpt>
      <trkpt lat="49.41428" lon="1.20318">
        <ele>55</ele>
        <time>2017-06-06T14:43:04Z</time>
      </trkpt>
      <trkpt lat="49.41428" lon="1.20326">
        <ele>55</ele>
        <time>2017-06-06T14:43:04Z</time>
      </trkpt>
      <trkpt lat="49.41429" lon="1.20337">
        <ele>55</ele>
        <time>2017-06-06T14:43:04Z</time>
      </trkpt>
      <trkpt lat="49.4143" lon="1.20343">
        <ele>55</ele>
        <time>2017-06-06T14:43:19Z</time>
      </trkpt>
      <trkpt lat="49.41431" lon="1.20352">
        <ele>55</ele>
        <time>2017-06-06T14:43:19Z</time>
      </trkpt>
      <trkpt lat="49.41431" lon="1.2036">
        <ele>55</ele>
        <time>2017-06-06T14:43:19Z</time>
      </trkpt>
      <trkpt lat="49.41431" lon="1.20365">
        <ele>55</ele>
        <time>2017-06-06T14:43:19Z</time>
      </trkpt>
      <trkpt lat="49.41432" lon="1.20373">
        <ele>55</ele>
        <time>2017-06-06T14:43:33Z</time>
      </trkpt>
      <trkpt lat="49.41432" lon="1.20379">
        <ele>55</ele>
        <time>2017-06-06T14:43:34Z</time>
      </trkpt>
      <trkpt lat="49.41433" lon="1.20386">
        <ele>55</ele>
        <time>2017-06-06T14:43:34Z</time>
      </trkpt>
      <trkpt lat="49.41435" lon="1.20393">
        <ele>55</ele>
        <time>2017-06-06T14:43:34Z</time>
      </trkpt>
      <trkpt lat="49.41436" lon="1.20401">
        <ele>55</ele>
        <time>2017-06-06T14:43:51Z</time>
      </trkpt>
      <trkpt lat="49.41437" lon="1.2041">
        <ele>55</ele>
        <time>2017-06-06T14:43:51Z</time>
      </trkpt>
      <trkpt lat="49.41439" lon="1.20418">
        <ele>55</ele>
        <time>2017-06-06T14:43:51Z</time>
      </trkpt>
      <trkpt lat="49.4144" lon="1.20427">
        <ele>55</ele>
        <time>2017-06-06T14:43:51Z</time>
      </trkpt>
      <trkpt lat="49.41442" lon="1.20436">
        <ele>55</ele>
        <time>2017-06-06T14:44:07Z</time>
      </trkpt>
      <trkpt lat="49.41443" lon="1.20441">
        <ele>55</ele>
        <time>2017-06-06T14:44:07Z</time>
      </trkpt>
      <trkpt lat="49.41445" lon="1.20448">
        <ele>55</ele>
        <time>2017-06-06T14:44:07Z</time>
      </trkpt>
      <trkpt lat="49.41448" lon="1.20456">
        <ele>55</ele>
        <time>2017-06-06T14:44:07Z</time>
      </trkpt>
      <trkpt lat="49.41448" lon="1.20463">
        <ele>57</ele>
        <time>2017-06-06T14:44:23Z</time>
      </trkpt>
      <trkpt lat="49.4145" lon="1.20473">
        <ele>57</ele>
        <time>2017-06-06T14:44:23Z</time>
      </trkpt>
      <trkpt lat="49.41451" lon="1.20478">
        <ele>57</ele>
        <time>2017-06-06T14:44:23Z</time>
      </trkpt>
      <trkpt lat="49.41452" lon="1.20485">
        <ele>57</ele>
        <time>2017-06-06T14:44:23Z</time>
      </trkpt>
      <trkpt lat="49.41454" lon="1.20491">
        <ele>57</ele>
        <time>2017-06-06T14:44:37Z</time>
      </trkpt>
      <trkpt lat="49.41455" lon="1.205">
        <ele>57</ele>
        <time>2017-06-06T14:44:38Z</time>
      </trkpt>
      <trkpt lat="49.41456" lon="1.20508">
        <ele>57</ele>
        <time>2017-06-06T14:44:38Z</time>
      </trkpt>
      <trkpt lat="49.41457" lon="1.20517">
        <ele>57</ele>
        <time>2017-06-06T14:44:38Z</time>
      </trkpt>
      <trkpt lat="49.41459" lon="1.20527">
        <ele>57</ele>
        <time>2017-06-06T14:44:54Z</time>
      </trkpt>
      <trkpt lat="49.4146" lon="1.20532">
        <ele>57</ele>
        <time>2017-06-06T14:44:54Z</time>
      </trkpt>
      <trkpt lat="49.41462" lon="1.20538">
        <ele>57</ele>
        <time>2017-06-06T14:44:54Z</time>
      </trkpt>
      <trkpt lat="49.41462" lon="1.20543">
        <ele>58</ele>
        <time>2017-06-06T14:44:54Z</time>
      </trkpt>
      <trkpt lat="49.41463" lon="1.20551">
        <ele>58</ele>
        <time>2017-06-06T14:45:11Z</time>
      </trkpt>
      <trkpt lat="49.41465" lon="1.2056">
        <ele>58</ele>
        <time>2017-06-06T14:45:11Z</time>
      </trkpt>
      <trkpt lat="49.41467" lon="1.20567">
        <ele>58</ele>
        <time>2017-06-06T14:45:11Z</time>
      </trkpt>
      <trkpt lat="49.41468" lon="1.20578">
        <ele>58</ele>
        <time>2017-06-06T14:45:11Z</time>
      </trkpt>
      <trkpt lat="49.41469" lon="1.20583">
        <ele>58</ele>
        <time>2017-06-06T14:45:25Z</time>
      </trkpt>
      <trkpt lat="49.4147" lon="1.20592">
        <ele>58</ele>
        <time>2017-06-06T14:45:26Z</time>
      </trkpt>
      <trkpt lat="49.41471" lon="1.206">
        <ele>58</ele>
        <time>2017-06-06T14:45:26Z</time>
      </trkpt>
      <trkpt lat="49.41471" lon="1.20608">
        <ele>58</ele>
        <time>2017-06-06T14:45:26Z</time>
      </trkpt>
      <trkpt lat="49.41473" lon="1.20617">
        <ele>58</ele>
        <time>2017-06-06T14:45:41Z</time>
      </trkpt>
      <trkpt lat="49.41475" lon="1.20624">
        <ele>58</ele>
        <time>2017-06-06T14:45:42Z</time>
      </trkpt>
      <trkpt lat="49.41476" lon="1.20632">
        <ele>58</ele>
        <time>2017-06-06T14:45:42Z</time>
      </trkpt>
      <trkpt lat="49.41477" lon="1.2064">
        <ele>58</ele>
        <time>2017-06-06T14:45:42Z</time>
      </trkpt>
      <trkpt lat="49.41476" lon="1.20647">
        <ele>58</ele>
        <time>2017-06-06T14:45:57Z</time>
      </trkpt>
      <trkpt lat="49.41478" lon="1.20653">
        <ele>58</ele>
        <time>2017-06-06T14:45:58Z</time>
      </trkpt>
      <trkpt lat="49.41481" lon="1.20657">
        <ele>58</ele>
        <time>2017-06-06T14:45:58Z</time>
      </trkpt>
      <trkpt lat="49.41485" lon="1.2066">
        <ele>58</ele>
        <time>2017-06-06T14:45:58Z</time>
      </trkpt>
      <trkpt lat="49.4149" lon="1.20664">
        <ele>58</ele>
        <time>2017-06-06T14:49:06Z</time>
      </trkpt>
      <trkpt lat="49.4149" lon="1.20664">
        <ele>58</ele>
        <time>2017-06-06T14:49:06Z</time>
      </trkpt>
      <trkpt lat="49.4149" lon="1.20665">
        <ele>58</ele>
        <time>2017-06-06T14:49:06Z</time>
      </trkpt>
      <trkpt lat="49.41494" lon="1.20672">
        <ele>58</ele>
        <time>2017-06-06T14:49:06Z</time>
      </trkpt>
      <trkpt lat="49.41495" lon="1.2068">
        <ele>58</ele>
        <time>2017-06-06T14:49:06Z</time>
      </trkpt>
      <trkpt lat="49.41496" lon="1.20688">
        <ele>58</ele>
        <time>2017-06-06T14:49:23Z</time>
      </trkpt>
      <trkpt lat="49.41495" lon="1.20697">
        <ele>58</ele>
        <time>2017-06-06T14:49:23Z</time>
      </trkpt>
      <trkpt lat="49.41495" lon="1.20704">
        <ele>58</ele>
        <time>2017-06-06T14:49:23Z</time>
      </trkpt>
      <trkpt lat="49.41496" lon="1.2071">
        <ele>58</ele>
        <time>2017-06-06T14:49:23Z</time>
      </trkpt>
      <trkpt lat="49.41497" lon="1.20717">
        <ele>58</ele>
        <time>2017-06-06T14:49:38Z</time>
      </trkpt>
      <trkpt lat="49.41498" lon="1.20722">
        <ele>58</ele>
        <time>2017-06-06T14:49:38Z</time>
      </trkpt>
      <trkpt lat="49.41499" lon="1.20731">
        <ele>58</ele>
        <time>2017-06-06T14:49:38Z</time>
      </trkpt>
      <trkpt lat="49.415" lon="1.20737">
        <ele>58</ele>
        <time>2017-06-06T14:49:38Z</time>
      </trkpt>
      <trkpt lat="49.41501" lon="1.20747">
        <ele>58</ele>
        <time>2017-06-06T14:49:55Z</time>
      </trkpt>
      <trkpt lat="49.41501" lon="1.20752">
        <ele>58</ele>
        <time>2017-06-06T14:49:55Z</time>
      </trkpt>
      <trkpt lat="49.41502" lon="1.2076">
        <ele>58</ele>
        <time>2017-06-06T14:49:55Z</time>
      </trkpt>
      <trkpt lat="49.41502" lon="1.20767">
        <ele>58</ele>
        <time>2017-06-06T14:49:55Z</time>
      </trkpt>
      <trkpt lat="49.41502" lon="1.20775">
        <ele>58</ele>
        <time>2017-06-06T14:50:11Z</time>
      </trkpt>
      <trkpt lat="49.41504" lon="1.20782">
        <ele>58</ele>
        <time>2017-06-06T14:50:11Z</time>
      </trkpt>
      <trkpt lat="49.41506" lon="1.20793">
        <ele>61</ele>
        <time>2017-06-06T14:50:11Z</time>
      </trkpt>
      <trkpt lat="49.41507" lon="1.20799">
        <ele>61</ele>
        <time>2017-06-06T14:50:11Z</time>
      </trkpt>
      <trkpt lat="49.41508" lon="1.20805">
        <ele>61</ele>
        <time>2017-06-06T14:50:26Z</time>
      </trkpt>
      <trkpt lat="49.41509" lon="1.20812">
        <ele>61</ele>
        <time>2017-06-06T14:50:26Z</time>
      </trkpt>
      <trkpt lat="49.4151" lon="1.20819">
        <ele>61</ele>
        <time>2017-06-06T14:50:26Z</time>
      </trkpt>
      <trkpt lat="49.41511" lon="1.20827">
        <ele>61</ele>
        <time>2017-06-06T14:50:26Z</time>
      </trkpt>
      <trkpt lat="49.41513" lon="1.20837">
        <ele>61</ele>
        <time>2017-06-06T14:50:42Z</time>
      </trkpt>
      <trkpt lat="49.41513" lon="1.20843">
        <ele>61</ele>
        <time>2017-06-06T14:50:42Z</time>
      </trkpt>
      <trkpt lat="49.41514" lon="1.2085">
        <ele>61</ele>
        <time>2017-06-06T14:50:42Z</time>
      </trkpt>
      <trkpt lat="49.41515" lon="1.20858">
        <ele>61</ele>
        <time>2017-06-06T14:50:42Z</time>
      </trkpt>
      <trkpt lat="49.41517" lon="1.20864">
        <ele>61</ele>
        <time>2017-06-06T14:50:59Z</time>
      </trkpt>
      <trkpt lat="49.41518" lon="1.20872">
        <ele>61</ele>
        <time>2017-06-06T14:50:59Z</time>
      </trkpt>
      <trkpt lat="49.4152" lon="1.2088">
        <ele>63</ele>
        <time>2017-06-06T14:50:59Z</time>
      </trkpt>
      <trkpt lat="49.41519" lon="1.20883">
        <ele>63</ele>
        <time>2017-06-06T14:50:59Z</time>
      </trkpt>
      <trkpt lat="49.41519" lon="1.20888">
        <ele>63</ele>
        <time>2017-06-06T14:51:14Z</time>
      </trkpt>
      <trkpt lat="49.41516" lon="1.20895">
        <ele>63</ele>
        <time>2017-06-06T14:51:14Z</time>
      </trkpt>
      <trkpt lat="49.4151" lon="1.209">
        <ele>63</ele>
        <time>2017-06-06T14:51:14Z</time>
      </trkpt>
      <trkpt lat="49.41503" lon="1.209">
        <ele>63</ele>
        <time>2017-06-06T14:51:14Z</time>
      </trkpt>
      <trkpt lat="49.415" lon="1.20899">
        <ele>63</ele>
        <time>2017-06-06T14:51:30Z</time>
      </trkpt>
      <trkpt lat="49.41495" lon="1.20897">
        <ele>63</ele>
        <time>2017-06-06T14:51:30Z</time>
      </trkpt>
      <trkpt lat="49.4149" lon="1.20897">
        <ele>63</ele>
        <time>2017-06-06T14:51:30Z</time>
      </trkpt>
      <trkpt lat="49.41485" lon="1.20896">
        <ele>63</ele>
        <time>2017-06-06T14:51:30Z</time>
      </trkpt>
      <trkpt lat="49.4148" lon="1.20894">
        <ele>63</ele>
        <time>2017-06-06T14:51:45Z</time>
      </trkpt>
      <trkpt lat="49.41476" lon="1.20892">
        <ele>63</ele>
        <time>2017-06-06T14:51:46Z</time>
      </trkpt>
      <trkpt lat="49.41472" lon="1.20888">
        <ele>63</ele>
        <time>2017-06-06T14:51:46Z</time>
      </trkpt>
      <trkpt lat="49.41469" lon="1.20886">
        <ele>63</ele>
        <time>2017-06-06T14:51:46Z</time>
      </trkpt>
      <trkpt lat="49.41465" lon="1.20886">
        <ele>63</ele>
        <time>2017-06-06T14:52:03Z</time>
      </trkpt>
      <trkpt lat="49.41459" lon="1.20886">
        <ele>63</ele>
        <time>2017-06-06T14:52:03Z</time>
      </trkpt>
      <trkpt lat="49.41454" lon="1.20885">
        <ele>65</ele>
        <time>2017-06-06T14:52:03Z</time>
      </trkpt>
      <trkpt lat="49.41447" lon="1.20882">
        <ele>65</ele>
        <time>2017-06-06T14:52:03Z</time>
      </trkpt>
      <trkpt lat="49.41441" lon="1.20879">
        <ele>65</ele>
        <time>2017-06-06T14:52:17Z</time>
      </trkpt>
      <trkpt lat="49.41438" lon="1.20877">
        <ele>65</ele>
        <time>2017-06-06T14:52:18Z</time>
      </trkpt>
      <trkpt lat="49.41434" lon="1.20875">
        <ele>65</ele>
        <time>2017-06-06T14:52:18Z</time>
      </trkpt>
      <trkpt lat="49.4143" lon="1.20876">
        <ele>65</ele>
        <time>2017-06-06T14:52:18Z</time>
      </trkpt>
      <trkpt lat="49.41427" lon="1.20885">
        <ele>65</ele>
        <time>2017-06-06T14:52:34Z</time>
      </trkpt>
      <trkpt lat="49.41424" lon="1.20888">
        <ele>65</ele>
        <time>2017-06-06T14:52:34Z</time>
      </trkpt>
      <trkpt lat="49.4142" lon="1.20895">
        <ele>65</ele>
        <time>2017-06-06T14:52:34Z</time>
      </trkpt>
      <trkpt lat="49.41418" lon="1.20902">
        <ele>65</ele>
        <time>2017-06-06T14:52:34Z</time>
      </trkpt>
      <trkpt lat="49.41419" lon="1.20911">
        <ele>65</ele>
        <time>2017-06-06T14:52:51Z</time>
      </trkpt>
      <trkpt lat="49.41417" lon="1.20918">
        <ele>65</ele>
        <time>2017-06-06T14:52:51Z</time>
      </trkpt>
      <trkpt lat="49.41415" lon="1.20925">
        <ele>65</ele>
        <time>2017-06-06T14:52:51Z</time>
      </trkpt>
      <trkpt lat="49.41412" lon="1.20933">
        <ele>65</ele>
        <time>2017-06-06T14:52:51Z</time>
      </trkpt>
      <trkpt lat="49.41412" lon="1.20938">
        <ele>65</ele>
        <time>2017-06-06T14:53:07Z</time>
      </trkpt>
      <trkpt lat="49.41411" lon="1.20943">
        <ele>65</ele>
        <time>2017-06-06T14:53:07Z</time>
      </trkpt>
      <trkpt lat="49.4141" lon="1.20951">
        <ele>65</ele>
        <time>2017-06-06T14:53:07Z</time>
      </trkpt>
      <trkpt lat="49.4141" lon="1.20956">
        <ele>65</ele>
        <time>2017-06-06T14:53:07Z</time>
      </trkpt>
      <trkpt lat="49.4141" lon="1.20964">
        <ele>65</ele>
        <time>2017-06-06T14:53:22Z</time>
      </trkpt>
      <trkpt lat="49.41408" lon="1.20972">
        <ele>65</ele>
        <time>2017-06-06T14:53:22Z</time>
      </trkpt>
      <trkpt lat="49.41407" lon="1.20981">
        <ele>65</ele>
        <time>2017-06-06T14:53:22Z</time>
      </trkpt>
      <trkpt lat="49.41406" lon="1.20986">
        <ele>65</ele>
        <time>2017-06-06T14:53:22Z</time>
      </trkpt>
      <trkpt lat="49.41405" lon="1.20993">
        <ele>65</ele>
        <time>2017-06-06T14:53:37Z</time>
      </trkpt>
      <trkpt lat="49.41401" lon="1.21">
        <ele>65</ele>
        <time>2017-06-06T14:53:38Z</time>
      </trkpt>
      <trkpt lat="49.414" lon="1.21007">
        <ele>65</ele>
        <time>2017-06-06T14:53:38Z</time>
      </trkpt>
      <trkpt lat="49.41401" lon="1.21012">
        <ele>65</ele>
        <time>2017-06-06T14:53:38Z</time>
      </trkpt>
      <trkpt lat="49.41402" lon="1.21018">
        <ele>65</ele>
        <time>2017-06-06T14:53:54Z</time>
      </trkpt>
      <trkpt lat="49.41402" lon="1.21024">
        <ele>65</ele>
        <time>2017-06-06T14:53:54Z</time>
      </trkpt>
      <trkpt lat="49.41403" lon="1.21033">
        <ele>65</ele>
        <time>2017-06-06T14:53:54Z</time>
      </trkpt>
      <trkpt lat="49.41404" lon="1.21041">
        <ele>65</ele>
        <time>2017-06-06T14:53:54Z</time>
      </trkpt>
      <trkpt lat="49.41404" lon="1.21049">
        <ele>68</ele>
        <time>2017-06-06T14:54:11Z</time>
      </trkpt>
      <trkpt lat="49.41405" lon="1.21055">
        <ele>68</ele>
        <time>2017-06-06T14:54:11Z</time>
      </trkpt>
      <trkpt lat="49.41405" lon="1.2106">
        <ele>68</ele>
        <time>2017-06-06T14:54:11Z</time>
      </trkpt>
      <trkpt lat="49.41407" lon="1.21067">
        <ele>68</ele>
        <time>2017-06-06T14:54:11Z</time>
      </trkpt>
      <trkpt lat="49.4141" lon="1.21075">
        <ele>68</ele>
        <time>2017-06-06T14:54:26Z</time>
      </trkpt>
      <trkpt lat="49.41408" lon="1.21082">
        <ele>68</ele>
        <time>2017-06-06T14:54:26Z</time>
      </trkpt>
      <trkpt lat="49.41407" lon="1.21088">
        <ele>68</ele>
        <time>2017-06-06T14:54:26Z</time>
      </trkpt>
      <trkpt lat="49.41405" lon="1.21094">
        <ele>68</ele>
        <time>2017-06-06T14:54:26Z</time>
      </trkpt>
      <trkpt lat="49.41404" lon="1.211">
        <ele>68</ele>
        <time>2017-06-06T14:54:43Z</time>
      </trkpt>
      <trkpt lat="49.41404" lon="1.21107">
        <ele>68</ele>
        <time>2017-06-06T14:54:43Z</time>
      </trkpt>
      <trkpt lat="49.41404" lon="1.2111">
        <ele>68</ele>
        <time>2017-06-06T14:54:43Z</time>
      </trkpt>
      <trkpt lat="49.41405" lon="1.21121">
        <ele>68</ele>
        <time>2017-06-06T14:54:43Z</time>
      </trkpt>
      <trkpt lat="49.41406" lon="1.21127">
        <ele>72</ele>
        <time>2017-06-06T14:54:59Z</time>
      </trkpt>
      <trkpt lat="49.41406" lon="1.21135">
        <ele>72</ele>
        <time>2017-06-06T14:54:59Z</time>
      </trkpt>
      <trkpt lat="49.41406" lon="1.2114">
        <ele>72</ele>
        <time>2017-06-06T14:54:59Z</time>
      </trkpt>
      <trkpt lat="49.41406" lon="1.21146">
        <ele>72</ele>
        <time>2017-06-06T14:54:59Z</time>
      </trkpt>
      <trkpt lat="49.41407" lon="1.21153">
        <ele>72</ele>
        <time>2017-06-06T14:55:15Z</time>
      </trkpt>
      <trkpt lat="49.41407" lon="1.21161">
        <ele>72</ele>
        <time>2017-06-06T14:55:15Z</time>
      </trkpt>
      <trkpt lat="49.41406" lon="1.21168">
        <ele>72</ele>
        <time>2017-06-06T14:55:15Z</time>
      </trkpt>
      <trkpt lat="49.41405" lon="1.21176">
        <ele>72</ele>
        <time>2017-06-06T14:55:15Z</time>
      </trkpt>
      <trkpt lat="49.41405" lon="1.21181">
        <ele>72</ele>
        <time>2017-06-06T14:55:31Z</time>
      </trkpt>
      <trkpt lat="49.41405" lon="1.21188">
        <ele>72</ele>
        <time>2017-06-06T14:55:31Z</time>
      </trkpt>
      <trkpt lat="49.41405" lon="1.21194">
        <ele>72</ele>
        <time>2017-06-06T14:55:31Z</time>
      </trkpt>
      <trkpt lat="49.41406" lon="1.212">
        <ele>72</ele>
        <time>2017-06-06T14:55:31Z</time>
      </trkpt>
      <trkpt lat="49.41406" lon="1.21207">
        <ele>72</ele>
        <time>2017-06-06T14:55:45Z</time>
      </trkpt>
      <trkpt lat="49.41406" lon="1.21213">
        <ele>75</ele>
        <time>2017-06-06T14:55:46Z</time>
      </trkpt>
      <trkpt lat="49.41406" lon="1.21219">
        <ele>75</ele>
        <time>2017-06-06T14:55:46Z</time>
      </trkpt>
      <trkpt lat="49.41407" lon="1.21227">
        <ele>75</ele>
        <time>2017-06-06T14:55:46Z</time>
      </trkpt>
      <trkpt lat="49.41407" lon="1.21234">
        <ele>75</ele>
        <time>2017-06-06T14:56:03Z</time>
      </trkpt>
      <trkpt lat="49.41408" lon="1.21243">
        <ele>75</ele>
        <time>2017-06-06T14:56:03Z</time>
      </trkpt>
      <trkpt lat="49.41409" lon="1.21247">
        <ele>75</ele>
        <time>2017-06-06T14:56:03Z</time>
      </trkpt>
      <trkpt lat="49.41409" lon="1.21253">
        <ele>75</ele>
        <time>2017-06-06T14:56:03Z</time>
      </trkpt>
      <trkpt lat="49.41409" lon="1.21259">
        <ele>75</ele>
        <time>2017-06-06T14:56:17Z</time>
      </trkpt>
      <trkpt lat="49.41409" lon="1.21266">
        <ele>75</ele>
        <time>2017-06-06T14:56:18Z</time>
      </trkpt>
      <trkpt lat="49.41408" lon="1.21271">
        <ele>75</ele>
        <time>2017-06-06T14:56:18Z</time>
      </trkpt>
      <trkpt lat="49.41408" lon="1.21279">
        <ele>75</ele>
        <time>2017-06-06T14:56:18Z</time>
      </trkpt>
      <trkpt lat="49.41407" lon="1.21285">
        <ele>75</ele>
        <time>2017-06-06T14:56:33Z</time>
      </trkpt>
      <trkpt lat="49.41406" lon="1.21291">
        <ele>75</ele>
        <time>2017-06-06T14:56:34Z</time>
      </trkpt>
      <trkpt lat="49.41404" lon="1.21299">
        <ele>74</ele>
        <time>2017-06-06T14:56:34Z</time>
      </trkpt>
      <trkpt lat="49.41403" lon="1.21305">
        <ele>74</ele>
        <time>2017-06-06T14:56:34Z</time>
      </trkpt>
      <trkpt lat="49.41401" lon="1.21313">
        <ele>74</ele>
        <time>2017-06-06T14:56:51Z</time>
      </trkpt>
      <trkpt lat="49.414" lon="1.21319">
        <ele>74</ele>
        <time>2017-06-06T14:56:51Z</time>
      </trkpt>
      <trkpt lat="49.41399" lon="1.21327">
        <ele>74</ele>
        <time>2017-06-06T14:56:51Z</time>
      </trkpt>
      <trkpt lat="49.41396" lon="1.21333">
        <ele>74</ele>
        <time>2017-06-06T14:56:51Z</time>
      </trkpt>
      <trkpt lat="49.41394" lon="1.21339">
        <ele>74</ele>
        <time>2017-06-06T14:57:07Z</time>
      </trkpt>
      <trkpt lat="49.41392" lon="1.21343">
        <ele>74</ele>
        <time>2017-06-06T14:57:07Z</time>
      </trkpt>
      <trkpt lat="49.41388" lon="1.21346">
        <ele>74</ele>
        <time>2017-06-06T14:57:07Z</time>
      </trkpt>
      <trkpt lat="49.41385" lon="1.21351">
        <ele>74</ele>
        <time>2017-06-06T14:57:07Z</time>
      </trkpt>
      <trkpt lat="49.41384" lon="1.21356">
        <ele>74</ele>
        <time>2017-06-06T14:57:23Z</time>
      </trkpt>
      <trkpt lat="49.41381" lon="1.21364">
        <ele>74</ele>
        <time>2017-06-06T14:57:23Z</time>
      </trkpt>
      <trkpt lat="49.41379" lon="1.21372">
        <ele>74</ele>
        <time>2017-06-06T14:57:23Z</time>
      </trkpt>
      <trkpt lat="49.41376" lon="1.21376">
        <ele>75</ele>
        <time>2017-06-06T14:57:23Z</time>
      </trkpt>
      <trkpt lat="49.41374" lon="1.21382">
        <ele>93</ele>
        <time>2017-06-06T14:57:38Z</time>
      </trkpt>
      <trkpt lat="49.41373" lon="1.21388">
        <ele>93</ele>
        <time>2017-06-06T14:57:38Z</time>
      </trkpt>
      <trkpt lat="49.41372" lon="1.21394">
        <ele>93</ele>
        <time>2017-06-06T14:57:38Z</time>
      </trkpt>
      <trkpt lat="49.41373" lon="1.214">
        <ele>93</ele>
        <time>2017-06-06T14:57:38Z</time>
      </trkpt>
      <trkpt lat="49.41377" lon="1.21408">
        <ele>75</ele>
        <time>2017-06-06T14:58:15Z</time>
      </trkpt>
      <trkpt lat="49.41377" lon="1.2141">
        <ele>75</ele>
        <time>2017-06-06T14:58:15Z</time>
      </trkpt>
      <trkpt lat="49.41376" lon="1.21415">
        <ele>75</ele>
        <time>2017-06-06T14:58:15Z</time>
      </trkpt>
      <trkpt lat="49.41374" lon="1.21418">
        <ele>93</ele>
        <time>2017-06-06T14:58:15Z</time>
      </trkpt>
      <trkpt lat="49.41374" lon="1.21422">
        <ele>93</ele>
        <time>2017-06-06T14:58:15Z</time>
      </trkpt>
      <trkpt lat="49.41372" lon="1.21429">
        <ele>93</ele>
        <time>2017-06-06T14:58:30Z</time>
      </trkpt>
      <trkpt lat="49.41371" lon="1.21434">
        <ele>93</ele>
        <time>2017-06-06T14:58:30Z</time>
      </trkpt>
      <trkpt lat="49.41371" lon="1.21439">
        <ele>93</ele>
        <time>2017-06-06T14:58:30Z</time>
      </trkpt>
      <trkpt lat="49.41371" lon="1.21445">
        <ele>93</ele>
        <time>2017-06-06T14:58:30Z</time>
      </trkpt>
      <trkpt lat="49.41371" lon="1.21451">
        <ele>93</ele>
        <time>2017-06-06T14:58:47Z</time>
      </trkpt>
      <trkpt lat="49.41372" lon="1.21457">
        <ele>93</ele>
        <time>2017-06-06T14:58:47Z</time>
      </trkpt>
      <trkpt lat="49.41372" lon="1.21461">
        <ele>95</ele>
        <time>2017-06-06T14:58:47Z</time>
      </trkpt>
      <trkpt lat="49.4137" lon="1.21466">
        <ele>95</ele>
        <time>2017-06-06T14:58:47Z</time>
      </trkpt>
      <trkpt lat="49.41367" lon="1.21469">
        <ele>95</ele>
        <time>2017-06-06T14:59:03Z</time>
      </trkpt>
      <trkpt lat="49.41364" lon="1.21474">
        <ele>95</ele>
        <time>2017-06-06T14:59:03Z</time>
      </trkpt>
      <trkpt lat="49.41358" lon="1.21479">
        <ele>95</ele>
        <time>2017-06-06T14:59:03Z</time>
      </trkpt>
      <trkpt lat="49.41353" lon="1.21483">
        <ele>95</ele>
        <time>2017-06-06T14:59:03Z</time>
      </trkpt>
      <trkpt lat="49.41348" lon="1.21484">
        <ele>95</ele>
        <time>2017-06-06T14:59:19Z</time>
      </trkpt>
      <trkpt lat="49.41343" lon="1.21484">
        <ele>95</ele>
        <time>2017-06-06T14:59:19Z</time>
      </trkpt>
      <trkpt lat="49.41338" lon="1.21482">
        <ele>95</ele>
        <time>2017-06-06T14:59:19Z</time>
      </trkpt>
      <trkpt lat="49.41336" lon="1.21485">
        <ele>95</ele>
        <time>2017-06-06T14:59:19Z</time>
      </trkpt>
      <trkpt lat="49.41336" lon="1.21486">
        <ele>95</ele>
        <time>2017-06-06T15:00:33Z</time>
      </trkpt>
      <trkpt lat="49.41336" lon="1.21486">
        <ele>95</ele>
        <time>2017-06-06T15:00:34Z</time>
      </trkpt>
      <trkpt lat="49.41338" lon="1.21483">
        <ele>95</ele>
        <time>2017-06-06T15:00:34Z</time>
      </trkpt>
      <trkpt lat="49.41337" lon="1.21476">
        <ele>95</ele>
        <time>2017-06-06T15:00:34Z</time>
      </trkpt>
      <trkpt lat="49.41334" lon="1.2147">
        <ele>95</ele>
        <time>2017-06-06T15:00:34Z</time>
      </trkpt>
      <trkpt lat="49.4133" lon="1.21467">
        <ele>95</ele>
        <time>2017-06-06T15:00:51Z</time>
      </trkpt>
      <trkpt lat="49.41328" lon="1.21463">
        <ele>95</ele>
        <time>2017-06-06T15:00:51Z</time>
      </trkpt>
      <trkpt lat="49.41323" lon="1.21457">
        <ele>93</ele>
        <time>2017-06-06T15:00:51Z</time>
      </trkpt>
      <trkpt lat="49.41319" lon="1.21452">
        <ele>93</ele>
        <time>2017-06-06T15:00:51Z</time>
      </trkpt>
      <trkpt lat="49.41315" lon="1.21447">
        <ele>93</ele>
        <time>2017-06-06T15:01:07Z</time>
      </trkpt>
      <trkpt lat="49.41311" lon="1.21442">
        <ele>93</ele>
        <time>2017-06-06T15:01:07Z</time>
      </trkpt>
      <trkpt lat="49.4131" lon="1.2144">
        <ele>93</ele>
        <time>2017-06-06T15:01:07Z</time>
      </trkpt>
      <trkpt lat="49.41307" lon="1.21435">
        <ele>93</ele>
        <time>2017-06-06T15:01:07Z</time>
      </trkpt>
      <trkpt lat="49.41304" lon="1.2143">
        <ele>93</ele>
        <time>2017-06-06T15:01:23Z</time>
      </trkpt>
      <trkpt lat="49.41301" lon="1.21424">
        <ele>93</ele>
        <time>2017-06-06T15:01:23Z</time>
      </trkpt>
      <trkpt lat="49.41298" lon="1.21421">
        <ele>93</ele>
        <time>2017-06-06T15:01:23Z</time>
      </trkpt>
      <trkpt lat="49.41295" lon="1.21418">
        <ele>93</ele>
        <time>2017-06-06T15:01:23Z</time>
      </trkpt>
      <trkpt lat="49.41292" lon="1.21416">
        <ele>106</ele>
        <time>2017-06-06T15:01:39Z</time>
      </trkpt>
      <trkpt lat="49.41288" lon="1.21417">
        <ele>106</ele>
        <time>2017-06-06T15:01:39Z</time>
      </trkpt>
      <trkpt lat="49.41285" lon="1.21416">
        <ele>106</ele>
        <time>2017-06-06T15:01:39Z</time>
      </trkpt>
      <trkpt lat="49.41278" lon="1.21413">
        <ele>106</ele>
        <time>2017-06-06T15:01:39Z</time>
      </trkpt>
      <trkpt lat="49.41275" lon="1.21412">
        <ele>106</ele>
        <time>2017-06-06T15:01:55Z</time>
      </trkpt>
      <trkpt lat="49.4127" lon="1.2141">
        <ele>106</ele>
        <time>2017-06-06T15:01:55Z</time>
      </trkpt>
      <trkpt lat="49.41265" lon="1.21408">
        <ele>106</ele>
        <time>2017-06-06T15:01:55Z</time>
      </trkpt>
      <trkpt lat="49.4126" lon="1.21407">
        <ele>106</ele>
        <time>2017-06-06T15:01:55Z</time>
      </trkpt>
      <trkpt lat="49.41257" lon="1.21406">
        <ele>106</ele>
        <time>2017-06-06T15:02:10Z</time>
      </trkpt>
      <trkpt lat="49.41253" lon="1.21405">
        <ele>106</ele>
        <time>2017-06-06T15:02:10Z</time>
      </trkpt>
      <trkpt lat="49.41248" lon="1.21404">
        <ele>106</ele>
        <time>2017-06-06T15:02:10Z</time>
      </trkpt>
      <trkpt lat="49.41241" lon="1.21403">
        <ele>106</ele>
        <time>2017-06-06T15:02:10Z</time>
      </trkpt>
      <trkpt lat="49.41237" lon="1.21401">
        <ele>106</ele>
        <time>2017-06-06T15:02:27Z</time>
      </trkpt>
      <trkpt lat="49.41233" lon="1.21402">
        <ele>106</ele>
        <time>2017-06-06T15:02:27Z</time>
      </trkpt>
      <trkpt lat="49.41229" lon="1.21403">
        <ele>106</ele>
        <time>2017-06-06T15:02:27Z</time>
      </trkpt>
      <trkpt lat="49.41225" lon="1.21402">
        <ele>106</ele>
        <time>2017-06-06T15:02:27Z</time>
      </trkpt>
      <trkpt lat="49.4122" lon="1.214">
        <ele>106</ele>
        <time>2017-06-06T15:02:43Z</time>
      </trkpt>
      <trkpt lat="49.41216" lon="1.21399">
        <ele>106</ele>
        <time>2017-06-06T15:02:43Z</time>
      </trkpt>
      <trkpt lat="49.41213" lon="1.21397">
        <ele>106</ele>
        <time>2017-06-06T15:02:43Z</time>
      </trkpt>
      <trkpt lat="49.4121" lon="1.21396">
        <ele>106</ele>
        <time>2017-06-06T15:02:43Z</time>
      </trkpt>
      <trkpt lat="49.41207" lon="1.21395">
        <ele>119</ele>
        <time>2017-06-06T15:02:59Z</time>
      </trkpt>
      <trkpt lat="49.41204" lon="1.21395">
        <ele>119</ele>
        <time>2017-06-06T15:02:59Z</time>
      </trkpt>
      <trkpt lat="49.41199" lon="1.21394">
        <ele>119</ele>
        <time>2017-06-06T15:02:59Z</time>
      </trkpt>
      <trkpt lat="49.41194" lon="1.21392">
        <ele>119</ele>
        <time>2017-06-06T15:02:59Z</time>
      </trkpt>
      <trkpt lat="49.41189" lon="1.21389">
        <ele>119</ele>
        <time>2017-06-06T15:03:14Z</time>
      </trkpt>
      <trkpt lat="49.41185" lon="1.21386">
        <ele>119</ele>
        <time>2017-06-06T15:03:14Z</time>
      </trkpt>
      <trkpt lat="49.41181" lon="1.21384">
        <ele>119</ele>
        <time>2017-06-06T15:03:14Z</time>
      </trkpt>
      <trkpt lat="49.41177" lon="1.21381">
        <ele>119</ele>
        <time>2017-06-06T15:03:14Z</time>
      </trkpt>
      <trkpt lat="49.41173" lon="1.21379">
        <ele>119</ele>
        <time>2017-06-06T15:03:30Z</time>
      </trkpt>
      <trkpt lat="49.41167" lon="1.21379">
        <ele>119</ele>
        <time>2017-06-06T15:03:30Z</time>
      </trkpt>
      <trkpt lat="49.41166" lon="1.21377">
        <ele>119</ele>
        <time>2017-06-06T15:03:30Z</time>
      </trkpt>
      <trkpt lat="49.41163" lon="1.21374">
        <ele>122</ele>
        <time>2017-06-06T15:03:30Z</time>
      </trkpt>
      <trkpt lat="49.4116" lon="1.21371">
        <ele>122</ele>
        <time>2017-06-06T15:03:51Z</time>
      </trkpt>
      <trkpt lat="49.41158" lon="1.21369">
        <ele>122</ele>
        <time>2017-06-06T15:03:51Z</time>
      </trkpt>
      <trkpt lat="49.41155" lon="1.21368">
        <ele>122</ele>
        <time>2017-06-06T15:03:51Z</time>
      </trkpt>
      <trkpt lat="49.41153" lon="1.21365">
        <ele>122</ele>
        <time>2017-06-06T15:03:51Z</time>
      </trkpt>
      <trkpt lat="49.4115" lon="1.21364">
        <ele>122</ele>
        <time>2017-06-06T15:03:51Z</time>
      </trkpt>
      <trkpt lat="49.41146" lon="1.21363">
        <ele>122</ele>
        <time>2017-06-06T15:04:06Z</time>
      </trkpt>
      <trkpt lat="49.41142" lon="1.21364">
        <ele>122</ele>
        <time>2017-06-06T15:04:06Z</time>
      </trkpt>
      <trkpt lat="49.41137" lon="1.21367">
        <ele>122</ele>
        <time>2017-06-06T15:04:06Z</time>
      </trkpt>
      <trkpt lat="49.41132" lon="1.2137">
        <ele>122</ele>
        <time>2017-06-06T15:04:06Z</time>
      </trkpt>
      <trkpt lat="49.41127" lon="1.21372">
        <ele>122</ele>
        <time>2017-06-06T15:04:22Z</time>
      </trkpt>
      <trkpt lat="49.41123" lon="1.21376">
        <ele>128</ele>
        <time>2017-06-06T15:04:22Z</time>
      </trkpt>
      <trkpt lat="49.41119" lon="1.21379">
        <ele>128</ele>
        <time>2017-06-06T15:04:22Z</time>
      </trkpt>
      <trkpt lat="49.41114" lon="1.21381">
        <ele>128</ele>
        <time>2017-06-06T15:04:22Z</time>
      </trkpt>
      <trkpt lat="49.41111" lon="1.21382">
        <ele>128</ele>
        <time>2017-06-06T15:04:40Z</time>
      </trkpt>
      <trkpt lat="49.41108" lon="1.21384">
        <ele>128</ele>
        <time>2017-06-06T15:04:40Z</time>
      </trkpt>
      <trkpt lat="49.41103" lon="1.21385">
        <ele>128</ele>
        <time>2017-06-06T15:04:40Z</time>
      </trkpt>
      <trkpt lat="49.41099" lon="1.21387">
        <ele>128</ele>
        <time>2017-06-06T15:04:40Z</time>
      </trkpt>
      <trkpt lat="49.41097" lon="1.21388">
        <ele>128</ele>
        <time>2017-06-06T15:04:55Z</time>
      </trkpt>
      <trkpt lat="49.41093" lon="1.21392">
        <ele>128</ele>
        <time>2017-06-06T15:04:55Z</time>
      </trkpt>
      <trkpt lat="49.41089" lon="1.21394">
        <ele>128</ele>
        <time>2017-06-06T15:04:55Z</time>
      </trkpt>
      <trkpt lat="49.41086" lon="1.21395">
        <ele>128</ele>
        <time>2017-06-06T15:04:55Z</time>
      </trkpt>
      <trkpt lat="49.4108" lon="1.21399">
        <ele>128</ele>
        <time>2017-06-06T15:05:10Z</time>
      </trkpt>
      <trkpt lat="49.41077" lon="1.214">
        <ele>128</ele>
        <time>2017-06-06T15:05:10Z</time>
      </trkpt>
      <trkpt lat="49.41072" lon="1.21401">
        <ele>128</ele>
        <time>2017-06-06T15:05:10Z</time>
      </trkpt>
      <trkpt lat="49.41069" lon="1.21402">
        <ele>128</ele>
        <time>2017-06-06T15:05:10Z</time>
      </trkpt>
      <trkpt lat="49.41064" lon="1.21401">
        <ele>128</ele>
        <time>2017-06-06T15:05:27Z</time>
      </trkpt>
      <trkpt lat="49.41059" lon="1.21401">
        <ele>128</ele>
        <time>2017-06-06T15:05:27Z</time>
      </trkpt>
      <trkpt lat="49.41055" lon="1.21403">
        <ele>128</ele>
        <time>2017-06-06T15:05:27Z</time>
      </trkpt>
      <trkpt lat="49.4105" lon="1.21404">
        <ele>128</ele>
        <time>2017-06-06T15:05:27Z</time>
      </trkpt>
      <trkpt lat="49.41046" lon="1.21405">
        <ele>128</ele>
        <time>2017-06-06T15:05:42Z</time>
      </trkpt>
      <trkpt lat="49.41044" lon="1.21407">
        <ele>128</ele>
        <time>2017-06-06T15:05:42Z</time>
      </trkpt>
      <trkpt lat="49.41039" lon="1.21408">
        <ele>131</ele>
        <time>2017-06-06T15:05:42Z</time>
      </trkpt>
      <trkpt lat="49.41034" lon="1.2141">
        <ele>131</ele>
        <time>2017-06-06T15:05:42Z</time>
      </trkpt>
      <trkpt lat="49.41027" lon="1.21422">
        <ele>131</ele>
        <time>2017-06-06T15:20:33Z</time>
      </trkpt>
      <trkpt lat="49.41027" lon="1.21422">
        <ele>131</ele>
        <time>2017-06-06T15:20:34Z</time>
      </trkpt>
      <trkpt lat="49.41027" lon="1.21422">
        <ele>131</ele>
        <time>2017-06-06T15:20:34Z</time>
      </trkpt>
      <trkpt lat="49.41027" lon="1.21422">
        <ele>131</ele>
        <time>2017-06-06T15:20:34Z</time>
      </trkpt>
      <trkpt lat="49.40578" lon="1.21403">
        <ele>151</ele>
        <time>2017-06-06T15:20:34Z</time>
      </trkpt>
      <trkpt lat="49.40573" lon="1.21401">
        <ele>151</ele>
        <time>2017-06-06T15:21:09Z</time>
      </trkpt>
      <trkpt lat="49.40561" lon="1.21395">
        <ele>151</ele>
        <time>2017-06-06T15:21:10Z</time>
      </trkpt>
      <trkpt lat="49.40548" lon="1.21388">
        <ele>151</ele>
        <time>2017-06-06T15:21:10Z</time>
      </trkpt>
      <trkpt lat="49.4054" lon="1.21385">
        <ele>151</ele>
        <time>2017-06-06T15:21:10Z</time>
      </trkpt>
      <trkpt lat="49.40531" lon="1.2138">
        <ele>151</ele>
        <time>2017-06-06T15:21:57Z</time>
      </trkpt>
      <trkpt lat="49.4051" lon="1.2137">
        <ele>148</ele>
        <time>2017-06-06T15:21:58Z</time>
      </trkpt>
      <trkpt lat="49.40494" lon="1.21358">
        <ele>148</ele>
        <time>2017-06-06T15:21:58Z</time>
      </trkpt>
      <trkpt lat="49.4049" lon="1.21355">
        <ele>148</ele>
        <time>2017-06-06T15:21:58Z</time>
      </trkpt>
      <trkpt lat="49.40485" lon="1.21352">
        <ele>148</ele>
        <time>2017-06-06T15:23:33Z</time>
      </trkpt>
      <trkpt lat="49.40477" lon="1.21348">
        <ele>148</ele>
        <time>2017-06-06T15:23:34Z</time>
      </trkpt>
      <trkpt lat="49.40473" lon="1.21345">
        <ele>148</ele>
        <time>2017-06-06T15:23:34Z</time>
      </trkpt>
      <trkpt lat="49.40384" lon="1.21295">
        <ele>150</ele>
        <time>2017-06-06T15:23:34Z</time>
      </trkpt>
      <trkpt lat="49.40285" lon="1.21241">
        <ele>149</ele>
        <time>2017-06-06T15:27:49Z</time>
      </trkpt>
      <trkpt lat="49.40109" lon="1.21175">
        <ele>145</ele>
        <time>2017-06-06T15:27:50Z</time>
      </trkpt>
      <trkpt lat="49.40108" lon="1.21168">
        <ele>145</ele>
        <time>2017-06-06T15:27:50Z</time>
      </trkpt>
      <trkpt lat="49.40104" lon="1.21163">
        <ele>145</ele>
        <time>2017-06-06T15:27:50Z</time>
      </trkpt>
      <trkpt lat="49.40102" lon="1.21157">
        <ele>145</ele>
        <time>2017-06-06T15:28:05Z</time>
      </trkpt>
      <trkpt lat="49.40098" lon="1.21151">
        <ele>145</ele>
        <time>2017-06-06T15:28:06Z</time>
      </trkpt>
      <trkpt lat="49.40096" lon="1.21144">
        <ele>145</ele>
        <time>2017-06-06T15:28:06Z</time>
      </trkpt>
      <trkpt lat="49.40093" lon="1.21136">
        <ele>145</ele>
        <time>2017-06-06T15:28:06Z</time>
      </trkpt>
      <trkpt lat="49.40091" lon="1.21127">
        <ele>145</ele>
        <time>2017-06-06T15:28:21Z</time>
      </trkpt>
      <trkpt lat="49.40089" lon="1.21119">
        <ele>142</ele>
        <time>2017-06-06T15:28:22Z</time>
      </trkpt>
      <trkpt lat="49.40087" lon="1.21111">
        <ele>142</ele>
        <time>2017-06-06T15:28:22Z</time>
      </trkpt>
      <trkpt lat="49.40085" lon="1.21104">
        <ele>142</ele>
        <time>2017-06-06T15:28:22Z</time>
      </trkpt>
      <trkpt lat="49.40082" lon="1.21097">
        <ele>142</ele>
        <time>2017-06-06T15:28:37Z</time>
      </trkpt>
      <trkpt lat="49.4008" lon="1.21089">
        <ele>142</ele>
        <time>2017-06-06T15:28:38Z</time>
      </trkpt>
      <trkpt lat="49.40078" lon="1.21082">
        <ele>142</ele>
        <time>2017-06-06T15:28:38Z</time>
      </trkpt>
      <trkpt lat="49.40075" lon="1.21075">
        <ele>142</ele>
        <time>2017-06-06T15:28:38Z</time>
      </trkpt>
      <trkpt lat="49.40073" lon="1.21068">
        <ele>142</ele>
        <time>2017-06-06T15:28:53Z</time>
      </trkpt>
      <trkpt lat="49.4007" lon="1.21061">
        <ele>142</ele>
        <time>2017-06-06T15:28:54Z</time>
      </trkpt>
      <trkpt lat="49.40067" lon="1.21054">
        <ele>142</ele>
        <time>2017-06-06T15:28:54Z</time>
      </trkpt>
      <trkpt lat="49.40065" lon="1.21047">
        <ele>142</ele>
        <time>2017-06-06T15:28:54Z</time>
      </trkpt>
      <trkpt lat="49.40062" lon="1.21041">
        <ele>140</ele>
        <time>2017-06-06T15:29:11Z</time>
      </trkpt>
      <trkpt lat="49.4006" lon="1.21026">
        <ele>140</ele>
        <time>2017-06-06T15:29:11Z</time>
      </trkpt>
      <trkpt lat="49.40057" lon="1.21005">
        <ele>140</ele>
        <time>2017-06-06T15:29:11Z</time>
      </trkpt>
      <trkpt lat="49.40056" lon="1.20985">
        <ele>140</ele>
        <time>2017-06-06T15:29:11Z</time>
      </trkpt>
      <trkpt lat="49.40056" lon="1.20977">
        <ele>140</ele>
        <time>2017-06-06T15:29:27Z</time>
      </trkpt>
      <trkpt lat="49.40055" lon="1.2097">
        <ele>140</ele>
        <time>2017-06-06T15:29:27Z</time>
      </trkpt>
      <trkpt lat="49.40055" lon="1.20964">
        <ele>140</ele>
        <time>2017-06-06T15:29:27Z</time>
      </trkpt>
      <trkpt lat="49.40052" lon="1.20958">
        <ele>136</ele>
        <time>2017-06-06T15:29:27Z</time>
      </trkpt>
      <trkpt lat="49.4005" lon="1.20952">
        <ele>136</ele>
        <time>2017-06-06T15:29:43Z</time>
      </trkpt>
      <trkpt lat="49.40049" lon="1.20941">
        <ele>136</ele>
        <time>2017-06-06T15:29:43Z</time>
      </trkpt>
      <trkpt lat="49.40049" lon="1.20935">
        <ele>136</ele>
        <time>2017-06-06T15:29:43Z</time>
      </trkpt>
      <trkpt lat="49.40049" lon="1.20928">
        <ele>136</ele>
        <time>2017-06-06T15:29:43Z</time>
      </trkpt>
      <trkpt lat="49.40049" lon="1.20919">
        <ele>136</ele>
        <time>2017-06-06T15:29:59Z</time>
      </trkpt>
      <trkpt lat="49.40048" lon="1.20911">
        <ele>136</ele>
        <time>2017-06-06T15:29:59Z</time>
      </trkpt>
      <trkpt lat="49.40048" lon="1.20904">
        <ele>136</ele>
        <time>2017-06-06T15:29:59Z</time>
      </trkpt>
      <trkpt lat="49.40047" lon="1.20894">
        <ele>136</ele>
        <time>2017-06-06T15:29:59Z</time>
      </trkpt>
      <trkpt lat="49.40048" lon="1.20888">
        <ele>136</ele>
        <time>2017-06-06T15:30:15Z</time>
      </trkpt>
      <trkpt lat="49.40049" lon="1.20882">
        <ele>136</ele>
        <time>2017-06-06T15:30:15Z</time>
      </trkpt>
      <trkpt lat="49.40053" lon="1.20877">
        <ele>136</ele>
        <time>2017-06-06T15:30:15Z</time>
      </trkpt>
      <trkpt lat="49.40057" lon="1.20872">
        <ele>133</ele>
        <time>2017-06-06T15:30:15Z</time>
      </trkpt>
      <trkpt lat="49.4006" lon="1.20868">
        <ele>133</ele>
        <time>2017-06-06T15:30:31Z</time>
      </trkpt>
      <trkpt lat="49.40063" lon="1.20862">
        <ele>133</ele>
        <time>2017-06-06T15:30:31Z</time>
      </trkpt>
      <trkpt lat="49.40066" lon="1.20857">
        <ele>133</ele>
        <time>2017-06-06T15:30:31Z</time>
      </trkpt>
      <trkpt lat="49.4007" lon="1.20849">
        <ele>133</ele>
        <time>2017-06-06T15:30:31Z</time>
      </trkpt>
      <trkpt lat="49.40072" lon="1.20845">
        <ele>133</ele>
        <time>2017-06-06T15:30:46Z</time>
      </trkpt>
      <trkpt lat="49.40076" lon="1.20838">
        <ele>133</ele>
        <time>2017-06-06T15:30:46Z</time>
      </trkpt>
      <trkpt lat="49.40081" lon="1.20833">
        <ele>133</ele>
        <time>2017-06-06T15:30:46Z</time>
      </trkpt>
      <trkpt lat="49.40085" lon="1.20826">
        <ele>133</ele>
        <time>2017-06-06T15:30:46Z</time>
      </trkpt>
      <trkpt lat="49.40087" lon="1.20821">
        <ele>133</ele>
        <time>2017-06-06T15:31:02Z</time>
      </trkpt>
      <trkpt lat="49.40089" lon="1.20818">
        <ele>133</ele>
        <time>2017-06-06T15:31:02Z</time>
      </trkpt>
      <trkpt lat="49.40092" lon="1.20812">
        <ele>133</ele>
        <time>2017-06-06T15:31:02Z</time>
      </trkpt>
      <trkpt lat="49.40096" lon="1.20808">
        <ele>133</ele>
        <time>2017-06-06T15:31:02Z</time>
      </trkpt>
      <trkpt lat="49.401" lon="1.20803">
        <ele>133</ele>
        <time>2017-06-06T15:31:20Z</time>
      </trkpt>
      <trkpt lat="49.40102" lon="1.20797">
        <ele>133</ele>
        <time>2017-06-06T15:31:20Z</time>
      </trkpt>
      <trkpt lat="49.40105" lon="1.20791">
        <ele>132</ele>
        <time>2017-06-06T15:31:20Z</time>
      </trkpt>
      <trkpt lat="49.40108" lon="1.20783">
        <ele>132</ele>
        <time>2017-06-06T15:31:20Z</time>
      </trkpt>
      <trkpt lat="49.4011" lon="1.20779">
        <ele>132</ele>
        <time>2017-06-06T15:31:35Z</time>
      </trkpt>
      <trkpt lat="49.40113" lon="1.20773">
        <ele>132</ele>
        <time>2017-06-06T15:31:35Z</time>
      </trkpt>
      <trkpt lat="49.40116" lon="1.20768">
        <ele>132</ele>
        <time>2017-06-06T15:31:35Z</time>
      </trkpt>
      <trkpt lat="49.40118" lon="1.20763">
        <ele>132</ele>
        <time>2017-06-06T15:31:35Z</time>
      </trkpt>
      <trkpt lat="49.40122" lon="1.20759">
        <ele>132</ele>
        <time>2017-06-06T15:31:51Z</time>
      </trkpt>
      <trkpt lat="49.40125" lon="1.20754">
        <ele>134</ele>
        <time>2017-06-06T15:31:51Z</time>
      </trkpt>
      <trkpt lat="49.40127" lon="1.20749">
        <ele>134</ele>
        <time>2017-06-06T15:31:51Z</time>
      </trkpt>
      <trkpt lat="49.40131" lon="1.20743">
        <ele>134</ele>
        <time>2017-06-06T15:31:51Z</time>
      </trkpt>
      <trkpt lat="49.40134" lon="1.20738">
        <ele>134</ele>
        <time>2017-06-06T15:32:07Z</time>
      </trkpt>
      <trkpt lat="49.40137" lon="1.20731">
        <ele>134</ele>
        <time>2017-06-06T15:32:07Z</time>
      </trkpt>
      <trkpt lat="49.40139" lon="1.20727">
        <ele>134</ele>
        <time>2017-06-06T15:32:07Z</time>
      </trkpt>
      <trkpt lat="49.40142" lon="1.20721">
        <ele>134</ele>
        <time>2017-06-06T15:32:07Z</time>
      </trkpt>
      <trkpt lat="49.40145" lon="1.20714">
        <ele>134</ele>
        <time>2017-06-06T15:32:23Z</time>
      </trkpt>
      <trkpt lat="49.40145" lon="1.20709">
        <ele>134</ele>
        <time>2017-06-06T15:32:23Z</time>
      </trkpt>
      <trkpt lat="49.40146" lon="1.207">
        <ele>132</ele>
        <time>2017-06-06T15:32:23Z</time>
      </trkpt>
      <trkpt lat="49.40147" lon="1.20695">
        <ele>132</ele>
        <time>2017-06-06T15:32:23Z</time>
      </trkpt>
      <trkpt lat="49.40148" lon="1.20688">
        <ele>132</ele>
        <time>2017-06-06T15:32:40Z</time>
      </trkpt>
      <trkpt lat="49.4015" lon="1.20681">
        <ele>132</ele>
        <time>2017-06-06T15:32:40Z</time>
      </trkpt>
      <trkpt lat="49.40151" lon="1.20674">
        <ele>132</ele>
        <time>2017-06-06T15:32:40Z</time>
      </trkpt>
      <trkpt lat="49.40151" lon="1.20665">
        <ele>132</ele>
        <time>2017-06-06T15:32:40Z</time>
      </trkpt>
      <trkpt lat="49.40151" lon="1.20659">
        <ele>132</ele>
        <time>2017-06-06T15:32:55Z</time>
      </trkpt>
      <trkpt lat="49.40152" lon="1.20653">
        <ele>132</ele>
        <time>2017-06-06T15:32:55Z</time>
      </trkpt>
      <trkpt lat="49.40152" lon="1.20646">
        <ele>132</ele>
        <time>2017-06-06T15:32:55Z</time>
      </trkpt>
      <trkpt lat="49.40154" lon="1.20637">
        <ele>132</ele>
        <time>2017-06-06T15:32:55Z</time>
      </trkpt>
      <trkpt lat="49.40155" lon="1.20632">
        <ele>132</ele>
        <time>2017-06-06T15:33:11Z</time>
      </trkpt>
      <trkpt lat="49.40156" lon="1.20626">
        <ele>132</ele>
        <time>2017-06-06T15:33:11Z</time>
      </trkpt>
      <trkpt lat="49.40158" lon="1.20619">
        <ele>129</ele>
        <time>2017-06-06T15:33:11Z</time>
      </trkpt>
      <trkpt lat="49.40159" lon="1.20611">
        <ele>129</ele>
        <time>2017-06-06T15:33:11Z</time>
      </trkpt>
      <trkpt lat="49.40158" lon="1.20605">
        <ele>129</ele>
        <time>2017-06-06T15:33:26Z</time>
      </trkpt>
      <trkpt lat="49.4016" lon="1.20604">
        <ele>129</ele>
        <time>2017-06-06T15:33:26Z</time>
      </trkpt>
      <trkpt lat="49.40169" lon="1.20612">
        <ele>129</ele>
        <time>2017-06-06T15:33:26Z</time>
      </trkpt>
      <trkpt lat="49.40171" lon="1.20615">
        <ele>129</ele>
        <time>2017-06-06T15:33:26Z</time>
      </trkpt>
      <trkpt lat="49.40172" lon="1.20607">
        <ele>129</ele>
        <time>2017-06-06T15:33:41Z</time>
      </trkpt>
      <trkpt lat="49.40174" lon="1.206">
        <ele>129</ele>
        <time>2017-06-06T15:33:42Z</time>
      </trkpt>
      <trkpt lat="49.40183" lon="1.20586">
        <ele>129</ele>
        <time>2017-06-06T15:33:42Z</time>
      </trkpt>
      <trkpt lat="49.40191" lon="1.20582">
        <ele>129</ele>
        <time>2017-06-06T15:33:42Z</time>
      </trkpt>
      <trkpt lat="49.40195" lon="1.20578">
        <ele>129</ele>
        <time>2017-06-06T15:36:11Z</time>
      </trkpt>
      <trkpt lat="49.40197" lon="1.20577">
        <ele>129</ele>
        <time>2017-06-06T15:36:11Z</time>
      </trkpt>
      <trkpt lat="49.40199" lon="1.20572">
        <ele>129</ele>
        <time>2017-06-06T15:36:11Z</time>
      </trkpt>
      <trkpt lat="49.40201" lon="1.20561">
        <ele>129</ele>
        <time>2017-06-06T15:36:11Z</time>
      </trkpt>
      <trkpt lat="49.40204" lon="1.20556">
        <ele>129</ele>
        <time>2017-06-06T15:36:11Z</time>
      </trkpt>
      <trkpt lat="49.40209" lon="1.20551">
        <ele>136</ele>
        <time>2017-06-06T15:36:27Z</time>
      </trkpt>
      <trkpt lat="49.40212" lon="1.20548">
        <ele>136</ele>
        <time>2017-06-06T15:36:27Z</time>
      </trkpt>
      <trkpt lat="49.40214" lon="1.20546">
        <ele>136</ele>
        <time>2017-06-06T15:36:27Z</time>
      </trkpt>
      <trkpt lat="49.40216" lon="1.20542">
        <ele>132</ele>
        <time>2017-06-06T15:36:27Z</time>
      </trkpt>
      <trkpt lat="49.40219" lon="1.20536">
        <ele>132</ele>
        <time>2017-06-06T15:36:42Z</time>
      </trkpt>
      <trkpt lat="49.40223" lon="1.20534">
        <ele>132</ele>
        <time>2017-06-06T15:36:42Z</time>
      </trkpt>
      <trkpt lat="49.40227" lon="1.20532">
        <ele>132</ele>
        <time>2017-06-06T15:36:42Z</time>
      </trkpt>
      <trkpt lat="49.40229" lon="1.20525">
        <ele>132</ele>
        <time>2017-06-06T15:36:42Z</time>
      </trkpt>
      <trkpt lat="49.40234" lon="1.2052">
        <ele>132</ele>
        <time>2017-06-06T15:36:59Z</time>
      </trkpt>
      <trkpt lat="49.40236" lon="1.20517">
        <ele>132</ele>
        <time>2017-06-06T15:36:59Z</time>
      </trkpt>
      <trkpt lat="49.40238" lon="1.20513">
        <ele>132</ele>
        <time>2017-06-06T15:36:59Z</time>
      </trkpt>
      <trkpt lat="49.40241" lon="1.20508">
        <ele>132</ele>
        <time>2017-06-06T15:36:59Z</time>
      </trkpt>
      <trkpt lat="49.40243" lon="1.20502">
        <ele>132</ele>
        <time>2017-06-06T15:37:15Z</time>
      </trkpt>
      <trkpt lat="49.40246" lon="1.20497">
        <ele>132</ele>
        <time>2017-06-06T15:37:15Z</time>
      </trkpt>
      <trkpt lat="49.40247" lon="1.20492">
        <ele>132</ele>
        <time>2017-06-06T15:37:15Z</time>
      </trkpt>
      <trkpt lat="49.4025" lon="1.20486">
        <ele>132</ele>
        <time>2017-06-06T15:37:15Z</time>
      </trkpt>
      <trkpt lat="49.40253" lon="1.20478">
        <ele>132</ele>
        <time>2017-06-06T15:37:30Z</time>
      </trkpt>
      <trkpt lat="49.40253" lon="1.20474">
        <ele>132</ele>
        <time>2017-06-06T15:37:30Z</time>
      </trkpt>
      <trkpt lat="49.40254" lon="1.20467">
        <ele>132</ele>
        <time>2017-06-06T15:37:30Z</time>
      </trkpt>
      <trkpt lat="49.40254" lon="1.2046">
        <ele>132</ele>
        <time>2017-06-06T15:37:30Z</time>
      </trkpt>
      <trkpt lat="49.40257" lon="1.20457">
        <ele>127</ele>
        <time>2017-06-06T15:37:48Z</time>
      </trkpt>
      <trkpt lat="49.40259" lon="1.2045">
        <ele>127</ele>
        <time>2017-06-06T15:37:48Z</time>
      </trkpt>
      <trkpt lat="49.40259" lon="1.20444">
        <ele>127</ele>
        <time>2017-06-06T15:37:48Z</time>
      </trkpt>
      <trkpt lat="49.4026" lon="1.20437">
        <ele>127</ele>
        <time>2017-06-06T15:37:48Z</time>
      </trkpt>
      <trkpt lat="49.4026" lon="1.20433">
        <ele>127</ele>
        <time>2017-06-06T15:38:02Z</time>
      </trkpt>
      <trkpt lat="49.40261" lon="1.20429">
        <ele>127</ele>
        <time>2017-06-06T15:38:02Z</time>
      </trkpt>
      <trkpt lat="49.40263" lon="1.20425">
        <ele>127</ele>
        <time>2017-06-06T15:38:02Z</time>
      </trkpt>
      <trkpt lat="49.40263" lon="1.20418">
        <ele>127</ele>
        <time>2017-06-06T15:38:03Z</time>
      </trkpt>
      <trkpt lat="49.40263" lon="1.20411">
        <ele>127</ele>
        <time>2017-06-06T15:38:17Z</time>
      </trkpt>
      <trkpt lat="49.40263" lon="1.20405">
        <ele>127</ele>
        <time>2017-06-06T15:38:18Z</time>
      </trkpt>
      <trkpt lat="49.40264" lon="1.20398">
        <ele>127</ele>
        <time>2017-06-06T15:38:19Z</time>
      </trkpt>
      <trkpt lat="49.40264" lon="1.20391">
        <ele>127</ele>
        <time>2017-06-06T15:38:19Z</time>
      </trkpt>
      <trkpt lat="49.40266" lon="1.20383">
        <ele>127</ele>
        <time>2017-06-06T15:38:34Z</time>
      </trkpt>
      <trkpt lat="49.40268" lon="1.20378">
        <ele>127</ele>
        <time>2017-06-06T15:38:34Z</time>
      </trkpt>
      <trkpt lat="49.40269" lon="1.20372">
        <ele>123</ele>
        <time>2017-06-06T15:38:34Z</time>
      </trkpt>
      <trkpt lat="49.40271" lon="1.20365">
        <ele>123</ele>
        <time>2017-06-06T15:38:34Z</time>
      </trkpt>
      <trkpt lat="49.40273" lon="1.20359">
        <ele>123</ele>
        <time>2017-06-06T15:38:51Z</time>
      </trkpt>
      <trkpt lat="49.40275" lon="1.20353">
        <ele>123</ele>
        <time>2017-06-06T15:38:51Z</time>
      </trkpt>
      <trkpt lat="49.40277" lon="1.20347">
        <ele>123</ele>
        <time>2017-06-06T15:38:51Z</time>
      </trkpt>
      <trkpt lat="49.40279" lon="1.2034">
        <ele>123</ele>
        <time>2017-06-06T15:38:51Z</time>
      </trkpt>
      <trkpt lat="49.40281" lon="1.20334">
        <ele>123</ele>
        <time>2017-06-06T15:39:06Z</time>
      </trkpt>
      <trkpt lat="49.40283" lon="1.20327">
        <ele>123</ele>
        <time>2017-06-06T15:39:06Z</time>
      </trkpt>
      <trkpt lat="49.40292" lon="1.20318">
        <ele>125</ele>
        <time>2017-06-06T15:39:06Z</time>
      </trkpt>
      <trkpt lat="49.40299" lon="1.20313">
        <ele>125</ele>
        <time>2017-06-06T15:39:06Z</time>
      </trkpt>
      <trkpt lat="49.40304" lon="1.20305">
        <ele>125</ele>
        <time>2017-06-06T15:39:21Z</time>
      </trkpt>
      <trkpt lat="49.40308" lon="1.20305">
        <ele>125</ele>
        <time>2017-06-06T15:39:22Z</time>
      </trkpt>
      <trkpt lat="49.40311" lon="1.20304">
        <ele>125</ele>
        <time>2017-06-06T15:39:22Z</time>
      </trkpt>
      <trkpt lat="49.40315" lon="1.20301">
        <ele>125</ele>
        <time>2017-06-06T15:39:22Z</time>
      </trkpt>
      <trkpt lat="49.4032" lon="1.20294">
        <ele>125</ele>
        <time>2017-06-06T15:39:39Z</time>
      </trkpt>
      <trkpt lat="49.40323" lon="1.20289">
        <ele>121</ele>
        <time>2017-06-06T15:39:39Z</time>
      </trkpt>
      <trkpt lat="49.40327" lon="1.20285">
        <ele>121</ele>
        <time>2017-06-06T15:39:39Z</time>
      </trkpt>
      <trkpt lat="49.4033" lon="1.20281">
        <ele>121</ele>
        <time>2017-06-06T15:39:39Z</time>
      </trkpt>
      <trkpt lat="49.40334" lon="1.20276">
        <ele>121</ele>
        <time>2017-06-06T15:39:55Z</time>
      </trkpt>
      <trkpt lat="49.40339" lon="1.20271">
        <ele>121</ele>
        <time>2017-06-06T15:39:55Z</time>
      </trkpt>
      <trkpt lat="49.40342" lon="1.20269">
        <ele>121</ele>
        <time>2017-06-06T15:39:55Z</time>
      </trkpt>
      <trkpt lat="49.40345" lon="1.20266">
        <ele>121</ele>
        <time>2017-06-06T15:39:55Z</time>
      </trkpt>
      <trkpt lat="49.40349" lon="1.20262">
        <ele>121</ele>
        <time>2017-06-06T15:40:10Z</time>
      </trkpt>
      <trkpt lat="49.40353" lon="1.20257">
        <ele>121</ele>
        <time>2017-06-06T15:40:10Z</time>
      </trkpt>
      <trkpt lat="49.40356" lon="1.20252">
        <ele>121</ele>
        <time>2017-06-06T15:40:10Z</time>
      </trkpt>
      <trkpt lat="49.4036" lon="1.20248">
        <ele>121</ele>
        <time>2017-06-06T15:40:10Z</time>
      </trkpt>
      <trkpt lat="49.40363" lon="1.20243">
        <ele>121</ele>
        <time>2017-06-06T15:40:27Z</time>
      </trkpt>
      <trkpt lat="49.40369" lon="1.20238">
        <ele>121</ele>
        <time>2017-06-06T15:40:27Z</time>
      </trkpt>
      <trkpt lat="49.40374" lon="1.20234">
        <ele>121</ele>
        <time>2017-06-06T15:40:27Z</time>
      </trkpt>
      <trkpt lat="49.40378" lon="1.20229">
        <ele>114</ele>
        <time>2017-06-06T15:40:27Z</time>
      </trkpt>
      <trkpt lat="49.40382" lon="1.20222">
        <ele>114</ele>
        <time>2017-06-06T15:40:42Z</time>
      </trkpt>
      <trkpt lat="49.40384" lon="1.20217">
        <ele>114</ele>
        <time>2017-06-06T15:40:42Z</time>
      </trkpt>
      <trkpt lat="49.40386" lon="1.20212">
        <ele>114</ele>
        <time>2017-06-06T15:40:42Z</time>
      </trkpt>
      <trkpt lat="49.40388" lon="1.20206">
        <ele>125</ele>
        <time>2017-06-06T15:40:42Z</time>
      </trkpt>
      <trkpt lat="49.4039" lon="1.20198">
        <ele>125</ele>
        <time>2017-06-06T15:40:59Z</time>
      </trkpt>
      <trkpt lat="49.40391" lon="1.20194">
        <ele>125</ele>
        <time>2017-06-06T15:40:59Z</time>
      </trkpt>
      <trkpt lat="49.40392" lon="1.20187">
        <ele>125</ele>
        <time>2017-06-06T15:40:59Z</time>
      </trkpt>
      <trkpt lat="49.40393" lon="1.2018">
        <ele>125</ele>
        <time>2017-06-06T15:40:59Z</time>
      </trkpt>
      <trkpt lat="49.40396" lon="1.20175">
        <ele>125</ele>
        <time>2017-06-06T15:41:14Z</time>
      </trkpt>
      <trkpt lat="49.40398" lon="1.20169">
        <ele>125</ele>
        <time>2017-06-06T15:41:14Z</time>
      </trkpt>
      <trkpt lat="49.40399" lon="1.20163">
        <ele>125</ele>
        <time>2017-06-06T15:41:14Z</time>
      </trkpt>
      <trkpt lat="49.404" lon="1.20156">
        <ele>125</ele>
        <time>2017-06-06T15:41:14Z</time>
      </trkpt>
      <trkpt lat="49.404" lon="1.20148">
        <ele>125</ele>
        <time>2017-06-06T15:41:31Z</time>
      </trkpt>
      <trkpt lat="49.40401" lon="1.20142">
        <ele>125</ele>
        <time>2017-06-06T15:41:31Z</time>
      </trkpt>
      <trkpt lat="49.40401" lon="1.20135">
        <ele>125</ele>
        <time>2017-06-06T15:41:31Z</time>
      </trkpt>
      <trkpt lat="49.40399" lon="1.20125">
        <ele>125</ele>
        <time>2017-06-06T15:41:31Z</time>
      </trkpt>
      <trkpt lat="49.40398" lon="1.2012">
        <ele>129</ele>
        <time>2017-06-06T15:41:47Z</time>
      </trkpt>
      <trkpt lat="49.40399" lon="1.20115">
        <ele>129</ele>
        <time>2017-06-06T15:41:47Z</time>
      </trkpt>
      <trkpt lat="49.404" lon="1.2011">
        <ele>129</ele>
        <time>2017-06-06T15:41:47Z</time>
      </trkpt>
      <trkpt lat="49.40399" lon="1.20102">
        <ele>129</ele>
        <time>2017-06-06T15:41:47Z</time>
      </trkpt>
      <trkpt lat="49.40398" lon="1.20091">
        <ele>129</ele>
        <time>2017-06-06T15:42:03Z</time>
      </trkpt>
      <trkpt lat="49.40399" lon="1.20086">
        <ele>129</ele>
        <time>2017-06-06T15:42:03Z</time>
      </trkpt>
      <trkpt lat="49.40399" lon="1.20079">
        <ele>129</ele>
        <time>2017-06-06T15:42:03Z</time>
      </trkpt>
      <trkpt lat="49.40399" lon="1.20071">
        <ele>129</ele>
        <time>2017-06-06T15:42:03Z</time>
      </trkpt>
      <trkpt lat="49.40399" lon="1.20066">
        <ele>129</ele>
        <time>2017-06-06T15:42:19Z</time>
      </trkpt>
      <trkpt lat="49.404" lon="1.20061">
        <ele>129</ele>
        <time>2017-06-06T15:42:19Z</time>
      </trkpt>
      <trkpt lat="49.404" lon="1.20059">
        <ele>129</ele>
        <time>2017-06-06T15:42:19Z</time>
      </trkpt>
      <trkpt lat="49.404" lon="1.2005">
        <ele>129</ele>
        <time>2017-06-06T15:42:19Z</time>
      </trkpt>
      <trkpt lat="49.404" lon="1.20044">
        <ele>129</ele>
        <time>2017-06-06T15:42:34Z</time>
      </trkpt>
      <trkpt lat="49.40401" lon="1.20036">
        <ele>131</ele>
        <time>2017-06-06T15:42:34Z</time>
      </trkpt>
      <trkpt lat="49.40401" lon="1.2003">
        <ele>131</ele>
        <time>2017-06-06T15:42:34Z</time>
      </trkpt>
      <trkpt lat="49.40402" lon="1.20024">
        <ele>131</ele>
        <time>2017-06-06T15:42:34Z</time>
      </trkpt>
      <trkpt lat="49.40401" lon="1.20016">
        <ele>131</ele>
        <time>2017-06-06T15:42:50Z</time>
      </trkpt>
      <trkpt lat="49.40401" lon="1.20007">
        <ele>131</ele>
        <time>2017-06-06T15:42:50Z</time>
      </trkpt>
      <trkpt lat="49.404" lon="1.20001">
        <ele>131</ele>
        <time>2017-06-06T15:42:50Z</time>
      </trkpt>
      <trkpt lat="49.404" lon="1.19993">
        <ele>131</ele>
        <time>2017-06-06T15:42:50Z</time>
      </trkpt>
      <trkpt lat="49.40399" lon="1.19986">
        <ele>131</ele>
        <time>2017-06-06T15:43:06Z</time>
      </trkpt>
      <trkpt lat="49.40398" lon="1.1998">
        <ele>131</ele>
        <time>2017-06-06T15:43:06Z</time>
      </trkpt>
      <trkpt lat="49.40397" lon="1.19974">
        <ele>131</ele>
        <time>2017-06-06T15:43:06Z</time>
      </trkpt>
      <trkpt lat="49.40397" lon="1.19967">
        <ele>131</ele>
        <time>2017-06-06T15:43:06Z</time>
      </trkpt>
      <trkpt lat="49.40397" lon="1.1996">
        <ele>131</ele>
        <time>2017-06-06T15:43:21Z</time>
      </trkpt>
      <trkpt lat="49.40397" lon="1.19956">
        <ele>135</ele>
        <time>2017-06-06T15:43:22Z</time>
      </trkpt>
      <trkpt lat="49.40396" lon="1.19949">
        <ele>135</ele>
        <time>2017-06-06T15:43:22Z</time>
      </trkpt>
      <trkpt lat="49.40395" lon="1.19942">
        <ele>135</ele>
        <time>2017-06-06T15:43:22Z</time>
      </trkpt>
      <trkpt lat="49.40394" lon="1.19934">
        <ele>135</ele>
        <time>2017-06-06T15:43:39Z</time>
      </trkpt>
      <trkpt lat="49.40393" lon="1.19924">
        <ele>135</ele>
        <time>2017-06-06T15:43:39Z</time>
      </trkpt>
      <trkpt lat="49.40393" lon="1.19919">
        <ele>135</ele>
        <time>2017-06-06T15:43:39Z</time>
      </trkpt>
      <trkpt lat="49.40392" lon="1.19913">
        <ele>135</ele>
        <time>2017-06-06T15:43:39Z</time>
      </trkpt>
      <trkpt lat="49.40392" lon="1.19907">
        <ele>135</ele>
        <time>2017-06-06T15:43:53Z</time>
      </trkpt>
      <trkpt lat="49.40391" lon="1.199">
        <ele>135</ele>
        <time>2017-06-06T15:43:54Z</time>
      </trkpt>
      <trkpt lat="49.4039" lon="1.19894">
        <ele>135</ele>
        <time>2017-06-06T15:43:54Z</time>
      </trkpt>
      <trkpt lat="49.40389" lon="1.19887">
        <ele>135</ele>
        <time>2017-06-06T15:43:54Z</time>
      </trkpt>
      <trkpt lat="49.40389" lon="1.19881">
        <ele>135</ele>
        <time>2017-06-06T15:44:11Z</time>
      </trkpt>
      <trkpt lat="49.40387" lon="1.19873">
        <ele>139</ele>
        <time>2017-06-06T15:44:11Z</time>
      </trkpt>
      <trkpt lat="49.40386" lon="1.19868">
        <ele>139</ele>
        <time>2017-06-06T15:44:11Z</time>
      </trkpt>
      <trkpt lat="49.40385" lon="1.19865">
        <ele>139</ele>
        <time>2017-06-06T15:44:11Z</time>
      </trkpt>
      <trkpt lat="49.40384" lon="1.1986">
        <ele>139</ele>
        <time>2017-06-06T15:44:25Z</time>
      </trkpt>
      <trkpt lat="49.40383" lon="1.19854">
        <ele>139</ele>
        <time>2017-06-06T15:44:26Z</time>
      </trkpt>
      <trkpt lat="49.40382" lon="1.19846">
        <ele>139</ele>
        <time>2017-06-06T15:44:26Z</time>
      </trkpt>
      <trkpt lat="49.40382" lon="1.19838">
        <ele>139</ele>
        <time>2017-06-06T15:44:26Z</time>
      </trkpt>
      <trkpt lat="49.40381" lon="1.19831">
        <ele>139</ele>
        <time>2017-06-06T15:44:43Z</time>
      </trkpt>
      <trkpt lat="49.40379" lon="1.19823">
        <ele>139</ele>
        <time>2017-06-06T15:44:43Z</time>
      </trkpt>
      <trkpt lat="49.4038" lon="1.19818">
        <ele>139</ele>
        <time>2017-06-06T15:44:43Z</time>
      </trkpt>
      <trkpt lat="49.4038" lon="1.19813">
        <ele>139</ele>
        <time>2017-06-06T15:44:43Z</time>
      </trkpt>
      <trkpt lat="49.40377" lon="1.1981">
        <ele>139</ele>
        <time>2017-06-06T15:44:57Z</time>
      </trkpt>
      <trkpt lat="49.40375" lon="1.19804">
        <ele>141</ele>
        <time>2017-06-06T15:44:58Z</time>
      </trkpt>
      <trkpt lat="49.40375" lon="1.19798">
        <ele>139</ele>
        <time>2017-06-06T15:44:58Z</time>
      </trkpt>
      <trkpt lat="49.40374" lon="1.1979">
        <ele>143</ele>
        <time>2017-06-06T15:44:58Z</time>
      </trkpt>
      <trkpt lat="49.40374" lon="1.19784">
        <ele>143</ele>
        <time>2017-06-06T15:45:14Z</time>
      </trkpt>
      <trkpt lat="49.40372" lon="1.19777">
        <ele>143</ele>
        <time>2017-06-06T15:45:14Z</time>
      </trkpt>
      <trkpt lat="49.40369" lon="1.19773">
        <ele>143</ele>
        <time>2017-06-06T15:45:15Z</time>
      </trkpt>
      <trkpt lat="49.40368" lon="1.1977">
        <ele>143</ele>
        <time>2017-06-06T15:45:15Z</time>
      </trkpt>
      <trkpt lat="49.40367" lon="1.19758">
        <ele>143</ele>
        <time>2017-06-06T15:45:37Z</time>
      </trkpt>
      <trkpt lat="49.40367" lon="1.19757">
        <ele>143</ele>
        <time>2017-06-06T15:45:38Z</time>
      </trkpt>
      <trkpt lat="49.40368" lon="1.19754">
        <ele>143</ele>
        <time>2017-06-06T15:45:38Z</time>
      </trkpt>
      <trkpt lat="49.40371" lon="1.19752">
        <ele>143</ele>
        <time>2017-06-06T15:45:38Z</time>
      </trkpt>
      <trkpt lat="49.40373" lon="1.19748">
        <ele>143</ele>
        <time>2017-06-06T15:45:38Z</time>
      </trkpt>
      <trkpt lat="49.40376" lon="1.19746">
        <ele>142</ele>
        <time>2017-06-06T15:45:53Z</time>
      </trkpt>
      <trkpt lat="49.4038" lon="1.19744">
        <ele>142</ele>
        <time>2017-06-06T15:45:54Z</time>
      </trkpt>
      <trkpt lat="49.40384" lon="1.19741">
        <ele>142</ele>
        <time>2017-06-06T15:45:54Z</time>
      </trkpt>
      <trkpt lat="49.40389" lon="1.19738">
        <ele>142</ele>
        <time>2017-06-06T15:45:54Z</time>
      </trkpt>
      <trkpt lat="49.40391" lon="1.1974">
        <ele>142</ele>
        <time>2017-06-06T15:46:09Z</time>
      </trkpt>
      <trkpt lat="49.40391" lon="1.1974">
        <ele>142</ele>
        <time>2017-06-06T15:46:10Z</time>
      </trkpt>
      <trkpt lat="49.40394" lon="1.19736">
        <ele>142</ele>
        <time>2017-06-06T15:46:10Z</time>
      </trkpt>
      <trkpt lat="49.40397" lon="1.19729">
        <ele>142</ele>
        <time>2017-06-06T15:46:10Z</time>
      </trkpt>
      <trkpt lat="49.40402" lon="1.19728">
        <ele>142</ele>
        <time>2017-06-06T15:46:27Z</time>
      </trkpt>
      <trkpt lat="49.40406" lon="1.19725">
        <ele>142</ele>
        <time>2017-06-06T15:46:27Z</time>
      </trkpt>
      <trkpt lat="49.4041" lon="1.19724">
        <ele>142</ele>
        <time>2017-06-06T15:46:27Z</time>
      </trkpt>
      <trkpt lat="49.40414" lon="1.19721">
        <ele>142</ele>
        <time>2017-06-06T15:46:27Z</time>
      </trkpt>
      <trkpt lat="49.40417" lon="1.19719">
        <ele>142</ele>
        <time>2017-06-06T15:46:42Z</time>
      </trkpt>
      <trkpt lat="49.40421" lon="1.19715">
        <ele>142</ele>
        <time>2017-06-06T15:46:42Z</time>
      </trkpt>
      <trkpt lat="49.40425" lon="1.19711">
        <ele>142</ele>
        <time>2017-06-06T15:46:42Z</time>
      </trkpt>
      <trkpt lat="49.40429" lon="1.19709">
        <ele>142</ele>
        <time>2017-06-06T15:46:42Z</time>
      </trkpt>
      <trkpt lat="49.40434" lon="1.19705">
        <ele>145</ele>
        <time>2017-06-06T15:46:58Z</time>
      </trkpt>
      <trkpt lat="49.40437" lon="1.19704">
        <ele>145</ele>
        <time>2017-06-06T15:46:58Z</time>
      </trkpt>
      <trkpt lat="49.40441" lon="1.19703">
        <ele>145</ele>
        <time>2017-06-06T15:46:58Z</time>
      </trkpt>
      <trkpt lat="49.40444" lon="1.19704">
        <ele>145</ele>
        <time>2017-06-06T15:46:58Z</time>
      </trkpt>
      <trkpt lat="49.40447" lon="1.19699">
        <ele>145</ele>
        <time>2017-06-06T15:47:15Z</time>
      </trkpt>
      <trkpt lat="49.40451" lon="1.19701">
        <ele>145</ele>
        <time>2017-06-06T15:47:15Z</time>
      </trkpt>
      <trkpt lat="49.40455" lon="1.19698">
        <ele>145</ele>
        <time>2017-06-06T15:47:15Z</time>
      </trkpt>
      <trkpt lat="49.40459" lon="1.19694">
        <ele>146</ele>
        <time>2017-06-06T15:47:15Z</time>
      </trkpt>
      <trkpt lat="49.40462" lon="1.19692">
        <ele>146</ele>
        <time>2017-06-06T15:47:31Z</time>
      </trkpt>
      <trkpt lat="49.40467" lon="1.1969">
        <ele>146</ele>
        <time>2017-06-06T15:47:31Z</time>
      </trkpt>
      <trkpt lat="49.40472" lon="1.19689">
        <ele>146</ele>
        <time>2017-06-06T15:47:31Z</time>
      </trkpt>
      <trkpt lat="49.40476" lon="1.19687">
        <ele>146</ele>
        <time>2017-06-06T15:47:31Z</time>
      </trkpt>
      <trkpt lat="49.40481" lon="1.19685">
        <ele>146</ele>
        <time>2017-06-06T15:47:46Z</time>
      </trkpt>
      <trkpt lat="49.40486" lon="1.19684">
        <ele>146</ele>
        <time>2017-06-06T15:47:46Z</time>
      </trkpt>
      <trkpt lat="49.4049" lon="1.19682">
        <ele>146</ele>
        <time>2017-06-06T15:47:46Z</time>
      </trkpt>
      <trkpt lat="49.40494" lon="1.19681">
        <ele>146</ele>
        <time>2017-06-06T15:47:46Z</time>
      </trkpt>
      <trkpt lat="49.40499" lon="1.1968">
        <ele>146</ele>
        <time>2017-06-06T15:48:04Z</time>
      </trkpt>
      <trkpt lat="49.40503" lon="1.19679">
        <ele>146</ele>
        <time>2017-06-06T15:48:04Z</time>
      </trkpt>
      <trkpt lat="49.40508" lon="1.1968">
        <ele>146</ele>
        <time>2017-06-06T15:48:04Z</time>
      </trkpt>
      <trkpt lat="49.40513" lon="1.19679">
        <ele>146</ele>
        <time>2017-06-06T15:48:04Z</time>
      </trkpt>
      <trkpt lat="49.40517" lon="1.19677">
        <ele>146</ele>
        <time>2017-06-06T15:48:19Z</time>
      </trkpt>
      <trkpt lat="49.40521" lon="1.19676">
        <ele>146</ele>
        <time>2017-06-06T15:48:19Z</time>
      </trkpt>
      <trkpt lat="49.40525" lon="1.19675">
        <ele>146</ele>
        <time>2017-06-06T15:48:19Z</time>
      </trkpt>
      <trkpt lat="49.4053" lon="1.19674">
        <ele>146</ele>
        <time>2017-06-06T15:48:19Z</time>
      </trkpt>
      <trkpt lat="49.40534" lon="1.19672">
        <ele>146</ele>
        <time>2017-06-06T15:48:35Z</time>
      </trkpt>
      <trkpt lat="49.40537" lon="1.19672">
        <ele>146</ele>
        <time>2017-06-06T15:48:35Z</time>
      </trkpt>
      <trkpt lat="49.40541" lon="1.19671">
        <ele>146</ele>
        <time>2017-06-06T15:48:35Z</time>
      </trkpt>
      <trkpt lat="49.40546" lon="1.1967">
        <ele>148</ele>
        <time>2017-06-06T15:48:35Z</time>
      </trkpt>
      <trkpt lat="49.40551" lon="1.19668">
        <ele>148</ele>
        <time>2017-06-06T15:48:50Z</time>
      </trkpt>
      <trkpt lat="49.40556" lon="1.19667">
        <ele>148</ele>
        <time>2017-06-06T15:48:50Z</time>
      </trkpt>
      <trkpt lat="49.40563" lon="1.19665">
        <ele>148</ele>
        <time>2017-06-06T15:48:50Z</time>
      </trkpt>
      <trkpt lat="49.40566" lon="1.19664">
        <ele>148</ele>
        <time>2017-06-06T15:48:50Z</time>
      </trkpt>
      <trkpt lat="49.40573" lon="1.19661">
        <ele>148</ele>
        <time>2017-06-06T15:49:07Z</time>
      </trkpt>
      <trkpt lat="49.40577" lon="1.1966">
        <ele>148</ele>
        <time>2017-06-06T15:49:07Z</time>
      </trkpt>
      <trkpt lat="49.40581" lon="1.19659">
        <ele>148</ele>
        <time>2017-06-06T15:49:07Z</time>
      </trkpt>
      <trkpt lat="49.40586" lon="1.19656">
        <ele>148</ele>
        <time>2017-06-06T15:49:07Z</time>
      </trkpt>
      <trkpt lat="49.40591" lon="1.19655">
        <ele>148</ele>
        <time>2017-06-06T15:49:22Z</time>
      </trkpt>
      <trkpt lat="49.40595" lon="1.19653">
        <ele>148</ele>
        <time>2017-06-06T15:49:22Z</time>
      </trkpt>
      <trkpt lat="49.40599" lon="1.1965">
        <ele>148</ele>
        <time>2017-06-06T15:49:22Z</time>
      </trkpt>
      <trkpt lat="49.40604" lon="1.19647">
        <ele>148</ele>
        <time>2017-06-06T15:49:22Z</time>
      </trkpt>
      <trkpt lat="49.40608" lon="1.19645">
        <ele>148</ele>
        <time>2017-06-06T15:49:39Z</time>
      </trkpt>
      <trkpt lat="49.40613" lon="1.19641">
        <ele>148</ele>
        <time>2017-06-06T15:49:39Z</time>
      </trkpt>
      <trkpt lat="49.40617" lon="1.19638">
        <ele>148</ele>
        <time>2017-06-06T15:49:39Z</time>
      </trkpt>
      <trkpt lat="49.40622" lon="1.19633">
        <ele>148</ele>
        <time>2017-06-06T15:49:39Z</time>
      </trkpt>
      <trkpt lat="49.40626" lon="1.19629">
        <ele>145</ele>
        <time>2017-06-06T15:49:55Z</time>
      </trkpt>
      <trkpt lat="49.40629" lon="1.19626">
        <ele>145</ele>
        <time>2017-06-06T15:49:55Z</time>
      </trkpt>
      <trkpt lat="49.40635" lon="1.19621">
        <ele>148</ele>
        <time>2017-06-06T15:49:55Z</time>
      </trkpt>
      <trkpt lat="49.40639" lon="1.19616">
        <ele>148</ele>
        <time>2017-06-06T15:49:55Z</time>
      </trkpt>
      <trkpt lat="49.40643" lon="1.19614">
        <ele>148</ele>
        <time>2017-06-06T15:50:10Z</time>
      </trkpt>
      <trkpt lat="49.40648" lon="1.1961">
        <ele>148</ele>
        <time>2017-06-06T15:50:10Z</time>
      </trkpt>
      <trkpt lat="49.4065" lon="1.19608">
        <ele>148</ele>
        <time>2017-06-06T15:50:10Z</time>
      </trkpt>
      <trkpt lat="49.40654" lon="1.19605">
        <ele>148</ele>
        <time>2017-06-06T15:50:10Z</time>
      </trkpt>
      <trkpt lat="49.40658" lon="1.196">
        <ele>148</ele>
        <time>2017-06-06T15:50:25Z</time>
      </trkpt>
      <trkpt lat="49.40663" lon="1.19595">
        <ele>148</ele>
        <time>2017-06-06T15:50:27Z</time>
      </trkpt>
      <trkpt lat="49.40665" lon="1.19592">
        <ele>148</ele>
        <time>2017-06-06T15:50:27Z</time>
      </trkpt>
      <trkpt lat="49.40668" lon="1.19587">
        <ele>148</ele>
        <time>2017-06-06T15:50:27Z</time>
      </trkpt>
      <trkpt lat="49.40671" lon="1.19583">
        <ele>148</ele>
        <time>2017-06-06T15:50:43Z</time>
      </trkpt>
      <trkpt lat="49.40675" lon="1.1958">
        <ele>148</ele>
        <time>2017-06-06T15:50:43Z</time>
      </trkpt>
      <trkpt lat="49.40681" lon="1.19574">
        <ele>148</ele>
        <time>2017-06-06T15:50:43Z</time>
      </trkpt>
      <trkpt lat="49.40686" lon="1.19569">
        <ele>148</ele>
        <time>2017-06-06T15:50:43Z</time>
      </trkpt>
      <trkpt lat="49.4069" lon="1.19565">
        <ele>148</ele>
        <time>2017-06-06T15:50:58Z</time>
      </trkpt>
      <trkpt lat="49.40694" lon="1.1956">
        <ele>148</ele>
        <time>2017-06-06T15:50:58Z</time>
      </trkpt>
      <trkpt lat="49.40699" lon="1.19557">
        <ele>148</ele>
        <time>2017-06-06T15:50:58Z</time>
      </trkpt>
      <trkpt lat="49.40702" lon="1.19554">
        <ele>148</ele>
        <time>2017-06-06T15:50:58Z</time>
      </trkpt>
      <trkpt lat="49.40706" lon="1.19551">
        <ele>148</ele>
        <time>2017-06-06T15:51:13Z</time>
      </trkpt>
      <trkpt lat="49.4071" lon="1.19546">
        <ele>145</ele>
        <time>2017-06-06T15:51:14Z</time>
      </trkpt>
      <trkpt lat="49.40713" lon="1.19541">
        <ele>144</ele>
        <time>2017-06-06T15:51:14Z</time>
      </trkpt>
      <trkpt lat="49.40716" lon="1.1954">
        <ele>144</ele>
        <time>2017-06-06T15:51:14Z</time>
      </trkpt>
      <trkpt lat="49.40719" lon="1.19533">
        <ele>144</ele>
        <time>2017-06-06T15:51:30Z</time>
      </trkpt>
      <trkpt lat="49.40723" lon="1.19527">
        <ele>144</ele>
        <time>2017-06-06T15:51:30Z</time>
      </trkpt>
      <trkpt lat="49.40729" lon="1.19521">
        <ele>144</ele>
        <time>2017-06-06T15:51:30Z</time>
      </trkpt>
      <trkpt lat="49.40732" lon="1.19518">
        <ele>144</ele>
        <time>2017-06-06T15:51:30Z</time>
      </trkpt>
      <trkpt lat="49.40737" lon="1.19515">
        <ele>144</ele>
        <time>2017-06-06T15:51:47Z</time>
      </trkpt>
      <trkpt lat="49.40741" lon="1.19513">
        <ele>144</ele>
        <time>2017-06-06T15:51:47Z</time>
      </trkpt>
      <trkpt lat="49.40745" lon="1.1951">
        <ele>144</ele>
        <time>2017-06-06T15:51:47Z</time>
      </trkpt>
      <trkpt lat="49.4075" lon="1.19507">
        <ele>144</ele>
        <time>2017-06-06T15:51:47Z</time>
      </trkpt>
      <trkpt lat="49.40755" lon="1.19506">
        <ele>144</ele>
        <time>2017-06-06T15:52:03Z</time>
      </trkpt>
      <trkpt lat="49.40761" lon="1.19505">
        <ele>144</ele>
        <time>2017-06-06T15:52:03Z</time>
      </trkpt>
      <trkpt lat="49.40764" lon="1.19503">
        <ele>144</ele>
        <time>2017-06-06T15:52:03Z</time>
      </trkpt>
      <trkpt lat="49.4077" lon="1.19503">
        <ele>144</ele>
        <time>2017-06-06T15:52:03Z</time>
      </trkpt>
      <trkpt lat="49.40772" lon="1.19502">
        <ele>144</ele>
        <time>2017-06-06T15:52:18Z</time>
      </trkpt>
      <trkpt lat="49.40776" lon="1.195">
        <ele>144</ele>
        <time>2017-06-06T15:52:18Z</time>
      </trkpt>
      <trkpt lat="49.40782" lon="1.19498">
        <ele>144</ele>
        <time>2017-06-06T15:52:18Z</time>
      </trkpt>
      <trkpt lat="49.40787" lon="1.195">
        <ele>144</ele>
        <time>2017-06-06T15:52:18Z</time>
      </trkpt>
      <trkpt lat="49.40791" lon="1.195">
        <ele>144</ele>
        <time>2017-06-06T15:52:35Z</time>
      </trkpt>
      <trkpt lat="49.40796" lon="1.19501">
        <ele>139</ele>
        <time>2017-06-06T15:52:35Z</time>
      </trkpt>
      <trkpt lat="49.40801" lon="1.19502">
        <ele>139</ele>
        <time>2017-06-06T15:52:35Z</time>
      </trkpt>
      <trkpt lat="49.40808" lon="1.19502">
        <ele>139</ele>
        <time>2017-06-06T15:52:35Z</time>
      </trkpt>
      <trkpt lat="49.40813" lon="1.19502">
        <ele>139</ele>
        <time>2017-06-06T15:52:51Z</time>
      </trkpt>
      <trkpt lat="49.40817" lon="1.19503">
        <ele>139</ele>
        <time>2017-06-06T15:52:51Z</time>
      </trkpt>
      <trkpt lat="49.40819" lon="1.19506">
        <ele>139</ele>
        <time>2017-06-06T15:52:51Z</time>
      </trkpt>
      <trkpt lat="49.40825" lon="1.19506">
        <ele>139</ele>
        <time>2017-06-06T15:52:51Z</time>
      </trkpt>
      <trkpt lat="49.40828" lon="1.19502">
        <ele>139</ele>
        <time>2017-06-06T15:53:07Z</time>
      </trkpt>
      <trkpt lat="49.40832" lon="1.19499">
        <ele>139</ele>
        <time>2017-06-06T15:53:07Z</time>
      </trkpt>
      <trkpt lat="49.40838" lon="1.19499">
        <ele>139</ele>
        <time>2017-06-06T15:53:07Z</time>
      </trkpt>
      <trkpt lat="49.40843" lon="1.19501">
        <ele>139</ele>
        <time>2017-06-06T15:53:07Z</time>
      </trkpt>
      <trkpt lat="49.40845" lon="1.19501">
        <ele>139</ele>
        <time>2017-06-06T15:53:22Z</time>
      </trkpt>
      <trkpt lat="49.40849" lon="1.19499">
        <ele>139</ele>
        <time>2017-06-06T15:53:22Z</time>
      </trkpt>
      <trkpt lat="49.40853" lon="1.19497">
        <ele>139</ele>
        <time>2017-06-06T15:53:22Z</time>
      </trkpt>
      <trkpt lat="49.40855" lon="1.19498">
        <ele>139</ele>
        <time>2017-06-06T15:53:22Z</time>
      </trkpt>
      <trkpt lat="49.40862" lon="1.19499">
        <ele>139</ele>
        <time>2017-06-06T15:53:37Z</time>
      </trkpt>
      <trkpt lat="49.40866" lon="1.19499">
        <ele>139</ele>
        <time>2017-06-06T15:53:38Z</time>
      </trkpt>
      <trkpt lat="49.40871" lon="1.19498">
        <ele>139</ele>
        <time>2017-06-06T15:53:38Z</time>
      </trkpt>
      <trkpt lat="49.40877" lon="1.19496">
        <ele>135</ele>
        <time>2017-06-06T15:53:38Z</time>
      </trkpt>
      <trkpt lat="49.40882" lon="1.19493">
        <ele>135</ele>
        <time>2017-06-06T15:53:54Z</time>
      </trkpt>
      <trkpt lat="49.40886" lon="1.19491">
        <ele>135</ele>
        <time>2017-06-06T15:53:54Z</time>
      </trkpt>
      <trkpt lat="49.40889" lon="1.19488">
        <ele>135</ele>
        <time>2017-06-06T15:53:54Z</time>
      </trkpt>
      <trkpt lat="49.40893" lon="1.19485">
        <ele>135</ele>
        <time>2017-06-06T15:53:54Z</time>
      </trkpt>
      <trkpt lat="49.40899" lon="1.19483">
        <ele>135</ele>
        <time>2017-06-06T15:54:11Z</time>
      </trkpt>
      <trkpt lat="49.40902" lon="1.19482">
        <ele>135</ele>
        <time>2017-06-06T15:54:11Z</time>
      </trkpt>
      <trkpt lat="49.40907" lon="1.19479">
        <ele>135</ele>
        <time>2017-06-06T15:54:11Z</time>
      </trkpt>
      <trkpt lat="49.40911" lon="1.19477">
        <ele>135</ele>
        <time>2017-06-06T15:54:11Z</time>
      </trkpt>
      <trkpt lat="49.40916" lon="1.19475">
        <ele>135</ele>
        <time>2017-06-06T15:54:27Z</time>
      </trkpt>
      <trkpt lat="49.4092" lon="1.19471">
        <ele>135</ele>
        <time>2017-06-06T15:54:27Z</time>
      </trkpt>
      <trkpt lat="49.40925" lon="1.19468">
        <ele>135</ele>
        <time>2017-06-06T15:54:27Z</time>
      </trkpt>
      <trkpt lat="49.40926" lon="1.1946">
        <ele>135</ele>
        <time>2017-06-06T15:54:27Z</time>
      </trkpt>
      <trkpt lat="49.40924" lon="1.19454">
        <ele>136</ele>
        <time>2017-06-06T15:54:43Z</time>
      </trkpt>
      <trkpt lat="49.40921" lon="1.19448">
        <ele>136</ele>
        <time>2017-06-06T15:54:43Z</time>
      </trkpt>
      <trkpt lat="49.40919" lon="1.19444">
        <ele>136</ele>
        <time>2017-06-06T15:54:43Z</time>
      </trkpt>
      <trkpt lat="49.40917" lon="1.19437">
        <ele>136</ele>
        <time>2017-06-06T15:54:43Z</time>
      </trkpt>
      <trkpt lat="49.40915" lon="1.19432">
        <ele>136</ele>
        <time>2017-06-06T15:54:59Z</time>
      </trkpt>
      <trkpt lat="49.40913" lon="1.19429">
        <ele>136</ele>
        <time>2017-06-06T15:54:59Z</time>
      </trkpt>
      <trkpt lat="49.40909" lon="1.19421">
        <ele>136</ele>
        <time>2017-06-06T15:54:59Z</time>
      </trkpt>
      <trkpt lat="49.40906" lon="1.19415">
        <ele>136</ele>
        <time>2017-06-06T15:54:59Z</time>
      </trkpt>
      <trkpt lat="49.40903" lon="1.19411">
        <ele>136</ele>
        <time>2017-06-06T15:55:17Z</time>
      </trkpt>
      <trkpt lat="49.409" lon="1.19407">
        <ele>136</ele>
        <time>2017-06-06T15:55:18Z</time>
      </trkpt>
      <trkpt lat="49.40898" lon="1.19404">
        <ele>136</ele>
        <time>2017-06-06T15:55:18Z</time>
      </trkpt>
      <trkpt lat="49.40895" lon="1.19398">
        <ele>136</ele>
        <time>2017-06-06T15:55:18Z</time>
      </trkpt>
      <trkpt lat="49.40894" lon="1.19394">
        <ele>136</ele>
        <time>2017-06-06T15:55:35Z</time>
      </trkpt>
      <trkpt lat="49.40892" lon="1.19382">
        <ele>136</ele>
        <time>2017-06-06T15:55:35Z</time>
      </trkpt>
      <trkpt lat="49.40887" lon="1.19368">
        <ele>136</ele>
        <time>2017-06-06T15:55:35Z</time>
      </trkpt>
      <trkpt lat="49.40884" lon="1.1937">
        <ele>136</ele>
        <time>2017-06-06T15:55:35Z</time>
      </trkpt>
      <trkpt lat="49.4088" lon="1.19366">
        <ele>136</ele>
        <time>2017-06-06T15:55:50Z</time>
      </trkpt>
      <trkpt lat="49.40875" lon="1.19359">
        <ele>140</ele>
        <time>2017-06-06T15:55:51Z</time>
      </trkpt>
      <trkpt lat="49.40872" lon="1.19352">
        <ele>140</ele>
        <time>2017-06-06T15:55:51Z</time>
      </trkpt>
      <trkpt lat="49.40869" lon="1.19347">
        <ele>140</ele>
        <time>2017-06-06T15:55:51Z</time>
      </trkpt>
      <trkpt lat="49.40867" lon="1.19342">
        <ele>140</ele>
        <time>2017-06-06T15:56:05Z</time>
      </trkpt>
      <trkpt lat="49.40865" lon="1.19336">
        <ele>140</ele>
        <time>2017-06-06T15:56:06Z</time>
      </trkpt>
      <trkpt lat="49.40864" lon="1.19331">
        <ele>140</ele>
        <time>2017-06-06T15:56:06Z</time>
      </trkpt>
      <trkpt lat="49.40862" lon="1.19328">
        <ele>140</ele>
        <time>2017-06-06T15:56:06Z</time>
      </trkpt>
      <trkpt lat="49.4086" lon="1.19322">
        <ele>140</ele>
        <time>2017-06-06T15:56:21Z</time>
      </trkpt>
      <trkpt lat="49.40858" lon="1.19315">
        <ele>140</ele>
        <time>2017-06-06T15:56:22Z</time>
      </trkpt>
      <trkpt lat="49.40856" lon="1.19308">
        <ele>140</ele>
        <time>2017-06-06T15:56:22Z</time>
      </trkpt>
      <trkpt lat="49.40853" lon="1.19301">
        <ele>140</ele>
        <time>2017-06-06T15:56:22Z</time>
      </trkpt>
      <trkpt lat="49.40851" lon="1.19296">
        <ele>140</ele>
        <time>2017-06-06T15:56:39Z</time>
      </trkpt>
      <trkpt lat="49.40849" lon="1.19288">
        <ele>140</ele>
        <time>2017-06-06T15:56:39Z</time>
      </trkpt>
      <trkpt lat="49.40846" lon="1.19283">
        <ele>140</ele>
        <time>2017-06-06T15:56:39Z</time>
      </trkpt>
      <trkpt lat="49.40843" lon="1.19274">
        <ele>140</ele>
        <time>2017-06-06T15:56:39Z</time>
      </trkpt>
      <trkpt lat="49.40842" lon="1.19269">
        <ele>140</ele>
        <time>2017-06-06T15:56:55Z</time>
      </trkpt>
      <trkpt lat="49.4084" lon="1.19265">
        <ele>140</ele>
        <time>2017-06-06T15:56:55Z</time>
      </trkpt>
      <trkpt lat="49.40837" lon="1.19258">
        <ele>140</ele>
        <time>2017-06-06T15:56:55Z</time>
      </trkpt>
      <trkpt lat="49.40835" lon="1.19251">
        <ele>140</ele>
        <time>2017-06-06T15:56:55Z</time>
      </trkpt>
      <trkpt lat="49.40834" lon="1.19247">
        <ele>140</ele>
        <time>2017-06-06T15:57:11Z</time>
      </trkpt>
      <trkpt lat="49.40832" lon="1.19241">
        <ele>140</ele>
        <time>2017-06-06T15:57:11Z</time>
      </trkpt>
      <trkpt lat="49.4083" lon="1.19235">
        <ele>140</ele>
        <time>2017-06-06T15:57:11Z</time>
      </trkpt>
      <trkpt lat="49.40828" lon="1.19229">
        <ele>140</ele>
        <time>2017-06-06T15:57:11Z</time>
      </trkpt>
      <trkpt lat="49.40826" lon="1.19223">
        <ele>140</ele>
        <time>2017-06-06T15:57:25Z</time>
      </trkpt>
      <trkpt lat="49.40825" lon="1.19217">
        <ele>140</ele>
        <time>2017-06-06T15:57:26Z</time>
      </trkpt>
      <trkpt lat="49.40822" lon="1.19211">
        <ele>140</ele>
        <time>2017-06-06T15:57:26Z</time>
      </trkpt>
      <trkpt lat="49.4082" lon="1.19205">
        <ele>142</ele>
        <time>2017-06-06T15:57:26Z</time>
      </trkpt>
      <trkpt lat="49.40817" lon="1.19199">
        <ele>142</ele>
        <time>2017-06-06T15:57:43Z</time>
      </trkpt>
      <trkpt lat="49.40816" lon="1.19193">
        <ele>142</ele>
        <time>2017-06-06T15:57:43Z</time>
      </trkpt>
      <trkpt lat="49.40814" lon="1.19188">
        <ele>142</ele>
        <time>2017-06-06T15:57:43Z</time>
      </trkpt>
      <trkpt lat="49.40813" lon="1.19184">
        <ele>142</ele>
        <time>2017-06-06T15:57:43Z</time>
      </trkpt>
      <trkpt lat="49.40809" lon="1.19179">
        <ele>142</ele>
        <time>2017-06-06T15:58:00Z</time>
      </trkpt>
      <trkpt lat="49.40807" lon="1.19176">
        <ele>142</ele>
        <time>2017-06-06T15:58:00Z</time>
      </trkpt>
      <trkpt lat="49.40805" lon="1.19168">
        <ele>142</ele>
        <time>2017-06-06T15:58:00Z</time>
      </trkpt>
      <trkpt lat="49.40802" lon="1.19159">
        <ele>142</ele>
        <time>2017-06-06T15:58:00Z</time>
      </trkpt>
      <trkpt lat="49.408" lon="1.19155">
        <ele>142</ele>
        <time>2017-06-06T15:58:15Z</time>
      </trkpt>
      <trkpt lat="49.40797" lon="1.1915">
        <ele>142</ele>
        <time>2017-06-06T15:58:15Z</time>
      </trkpt>
      <trkpt lat="49.40795" lon="1.19145">
        <ele>142</ele>
        <time>2017-06-06T15:58:15Z</time>
      </trkpt>
      <trkpt lat="49.40793" lon="1.19137">
        <ele>142</ele>
        <time>2017-06-06T15:58:15Z</time>
      </trkpt>
      <trkpt lat="49.40791" lon="1.19132">
        <ele>146</ele>
        <time>2017-06-06T15:58:31Z</time>
      </trkpt>
      <trkpt lat="49.4079" lon="1.19125">
        <ele>147</ele>
        <time>2017-06-06T15:58:31Z</time>
      </trkpt>
      <trkpt lat="49.40787" lon="1.19118">
        <ele>147</ele>
        <time>2017-06-06T15:58:31Z</time>
      </trkpt>
      <trkpt lat="49.40783" lon="1.19111">
        <ele>147</ele>
        <time>2017-06-06T15:58:31Z</time>
      </trkpt>
      <trkpt lat="49.4078" lon="1.19103">
        <ele>147</ele>
        <time>2017-06-06T15:58:47Z</time>
      </trkpt>
      <trkpt lat="49.40778" lon="1.19099">
        <ele>147</ele>
        <time>2017-06-06T15:58:47Z</time>
      </trkpt>
      <trkpt lat="49.40777" lon="1.19093">
        <ele>147</ele>
        <time>2017-06-06T15:58:47Z</time>
      </trkpt>
      <trkpt lat="49.40775" lon="1.19089">
        <ele>147</ele>
        <time>2017-06-06T15:58:47Z</time>
      </trkpt>
      <trkpt lat="49.40773" lon="1.19083">
        <ele>147</ele>
        <time>2017-06-06T15:59:03Z</time>
      </trkpt>
      <trkpt lat="49.40771" lon="1.19077">
        <ele>147</ele>
        <time>2017-06-06T15:59:03Z</time>
      </trkpt>
      <trkpt lat="49.40769" lon="1.19072">
        <ele>147</ele>
        <time>2017-06-06T15:59:03Z</time>
      </trkpt>
      <trkpt lat="49.40768" lon="1.19067">
        <ele>147</ele>
        <time>2017-06-06T15:59:03Z</time>
      </trkpt>
      <trkpt lat="49.40766" lon="1.19061">
        <ele>147</ele>
        <time>2017-06-06T15:59:19Z</time>
      </trkpt>
      <trkpt lat="49.40765" lon="1.19055">
        <ele>147</ele>
        <time>2017-06-06T15:59:19Z</time>
      </trkpt>
      <trkpt lat="49.40763" lon="1.19047">
        <ele>147</ele>
        <time>2017-06-06T15:59:19Z</time>
      </trkpt>
      <trkpt lat="49.40761" lon="1.19042">
        <ele>147</ele>
        <time>2017-06-06T15:59:19Z</time>
      </trkpt>
      <trkpt lat="49.4076" lon="1.19038">
        <ele>148</ele>
        <time>2017-06-06T15:59:35Z</time>
      </trkpt>
      <trkpt lat="49.40758" lon="1.19032">
        <ele>148</ele>
        <time>2017-06-06T15:59:35Z</time>
      </trkpt>
      <trkpt lat="49.40754" lon="1.19024">
        <ele>148</ele>
        <time>2017-06-06T15:59:35Z</time>
      </trkpt>
      <trkpt lat="49.40753" lon="1.1902">
        <ele>148</ele>
        <time>2017-06-06T15:59:35Z</time>
      </trkpt>
      <trkpt lat="49.40749" lon="1.19011">
        <ele>148</ele>
        <time>2017-06-06T15:59:51Z</time>
      </trkpt>
      <trkpt lat="49.40746" lon="1.19004">
        <ele>148</ele>
        <time>2017-06-06T15:59:51Z</time>
      </trkpt>
      <trkpt lat="49.40744" lon="1.18999">
        <ele>148</ele>
        <time>2017-06-06T15:59:51Z</time>
      </trkpt>
      <trkpt lat="49.40742" lon="1.18992">
        <ele>148</ele>
        <time>2017-06-06T15:59:51Z</time>
      </trkpt>
      <trkpt lat="49.4074" lon="1.18985">
        <ele>148</ele>
        <time>2017-06-06T16:00:07Z</time>
      </trkpt>
      <trkpt lat="49.40738" lon="1.18978">
        <ele>148</ele>
        <time>2017-06-06T16:00:07Z</time>
      </trkpt>
      <trkpt lat="49.40736" lon="1.18971">
        <ele>148</ele>
        <time>2017-06-06T16:00:07Z</time>
      </trkpt>
      <trkpt lat="49.40734" lon="1.18964">
        <ele>148</ele>
        <time>2017-06-06T16:00:07Z</time>
      </trkpt>
      <trkpt lat="49.40731" lon="1.18958">
        <ele>149</ele>
        <time>2017-06-06T16:00:22Z</time>
      </trkpt>
      <trkpt lat="49.40728" lon="1.18951">
        <ele>149</ele>
        <time>2017-06-06T16:00:22Z</time>
      </trkpt>
      <trkpt lat="49.40726" lon="1.18946">
        <ele>149</ele>
        <time>2017-06-06T16:00:22Z</time>
      </trkpt>
      <trkpt lat="49.40724" lon="1.18941">
        <ele>149</ele>
        <time>2017-06-06T16:00:22Z</time>
      </trkpt>
      <trkpt lat="49.40722" lon="1.18934">
        <ele>149</ele>
        <time>2017-06-06T16:00:37Z</time>
      </trkpt>
      <trkpt lat="49.4072" lon="1.18928">
        <ele>149</ele>
        <time>2017-06-06T16:00:38Z</time>
      </trkpt>
      <trkpt lat="49.40718" lon="1.18922">
        <ele>149</ele>
        <time>2017-06-06T16:00:38Z</time>
      </trkpt>
      <trkpt lat="49.40716" lon="1.18915">
        <ele>149</ele>
        <time>2017-06-06T16:00:38Z</time>
      </trkpt>
      <trkpt lat="49.40714" lon="1.18911">
        <ele>149</ele>
        <time>2017-06-06T16:00:55Z</time>
      </trkpt>
      <trkpt lat="49.40712" lon="1.18908">
        <ele>149</ele>
        <time>2017-06-06T16:00:55Z</time>
      </trkpt>
      <trkpt lat="49.4071" lon="1.18904">
        <ele>149</ele>
        <time>2017-06-06T16:00:55Z</time>
      </trkpt>
      <trkpt lat="49.40705" lon="1.18897">
        <ele>151</ele>
        <time>2017-06-06T16:00:55Z</time>
      </trkpt>
      <trkpt lat="49.40702" lon="1.18892">
        <ele>151</ele>
        <time>2017-06-06T16:01:11Z</time>
      </trkpt>
      <trkpt lat="49.40701" lon="1.18888">
        <ele>151</ele>
        <time>2017-06-06T16:01:11Z</time>
      </trkpt>
      <trkpt lat="49.40698" lon="1.18883">
        <ele>151</ele>
        <time>2017-06-06T16:01:11Z</time>
      </trkpt>
      <trkpt lat="49.40694" lon="1.18875">
        <ele>151</ele>
        <time>2017-06-06T16:01:11Z</time>
      </trkpt>
      <trkpt lat="49.40691" lon="1.1887">
        <ele>151</ele>
        <time>2017-06-06T16:01:25Z</time>
      </trkpt>
      <trkpt lat="49.40688" lon="1.18863">
        <ele>151</ele>
        <time>2017-06-06T16:01:26Z</time>
      </trkpt>
      <trkpt lat="49.40686" lon="1.18856">
        <ele>151</ele>
        <time>2017-06-06T16:01:26Z</time>
      </trkpt>
      <trkpt lat="49.40684" lon="1.18854">
        <ele>151</ele>
        <time>2017-06-06T16:01:26Z</time>
      </trkpt>
      <trkpt lat="49.40681" lon="1.18849">
        <ele>151</ele>
        <time>2017-06-06T16:01:43Z</time>
      </trkpt>
      <trkpt lat="49.40677" lon="1.18841">
        <ele>151</ele>
        <time>2017-06-06T16:01:43Z</time>
      </trkpt>
      <trkpt lat="49.40675" lon="1.18838">
        <ele>151</ele>
        <time>2017-06-06T16:01:43Z</time>
      </trkpt>
      <trkpt lat="49.40672" lon="1.18832">
        <ele>151</ele>
        <time>2017-06-06T16:01:43Z</time>
      </trkpt>
      <trkpt lat="49.4067" lon="1.18828">
        <ele>151</ele>
        <time>2017-06-06T16:01:59Z</time>
      </trkpt>
      <trkpt lat="49.40668" lon="1.18823">
        <ele>151</ele>
        <time>2017-06-06T16:01:59Z</time>
      </trkpt>
      <trkpt lat="49.40666" lon="1.18819">
        <ele>151</ele>
        <time>2017-06-06T16:01:59Z</time>
      </trkpt>
      <trkpt lat="49.40663" lon="1.18813">
        <ele>151</ele>
        <time>2017-06-06T16:01:59Z</time>
      </trkpt>
      <trkpt lat="49.4066" lon="1.18808">
        <ele>151</ele>
        <time>2017-06-06T16:02:15Z</time>
      </trkpt>
      <trkpt lat="49.40656" lon="1.18804">
        <ele>151</ele>
        <time>2017-06-06T16:02:15Z</time>
      </trkpt>
      <trkpt lat="49.40653" lon="1.18798">
        <ele>151</ele>
        <time>2017-06-06T16:02:15Z</time>
      </trkpt>
      <trkpt lat="49.4065" lon="1.18792">
        <ele>151</ele>
        <time>2017-06-06T16:02:15Z</time>
      </trkpt>
      <trkpt lat="49.40648" lon="1.18787">
        <ele>152</ele>
        <time>2017-06-06T16:02:29Z</time>
      </trkpt>
      <trkpt lat="49.40645" lon="1.1878">
        <ele>152</ele>
        <time>2017-06-06T16:02:30Z</time>
      </trkpt>
      <trkpt lat="49.40642" lon="1.18777">
        <ele>152</ele>
        <time>2017-06-06T16:02:30Z</time>
      </trkpt>
      <trkpt lat="49.4064" lon="1.18772">
        <ele>152</ele>
        <time>2017-06-06T16:02:30Z</time>
      </trkpt>
      <trkpt lat="49.40638" lon="1.18765">
        <ele>152</ele>
        <time>2017-06-06T16:02:47Z</time>
      </trkpt>
      <trkpt lat="49.40635" lon="1.18759">
        <ele>152</ele>
        <time>2017-06-06T16:02:47Z</time>
      </trkpt>
      <trkpt lat="49.40632" lon="1.18752">
        <ele>152</ele>
        <time>2017-06-06T16:02:47Z</time>
      </trkpt>
      <trkpt lat="49.4063" lon="1.18747">
        <ele>152</ele>
        <time>2017-06-06T16:02:47Z</time>
      </trkpt>
      <trkpt lat="49.40627" lon="1.1874">
        <ele>152</ele>
        <time>2017-06-06T16:03:03Z</time>
      </trkpt>
      <trkpt lat="49.40624" lon="1.18735">
        <ele>155</ele>
        <time>2017-06-06T16:03:03Z</time>
      </trkpt>
      <trkpt lat="49.4062" lon="1.1873">
        <ele>155</ele>
        <time>2017-06-06T16:03:03Z</time>
      </trkpt>
      <trkpt lat="49.40619" lon="1.18725">
        <ele>155</ele>
        <time>2017-06-06T16:03:03Z</time>
      </trkpt>
      <trkpt lat="49.40617" lon="1.18719">
        <ele>155</ele>
        <time>2017-06-06T16:03:19Z</time>
      </trkpt>
      <trkpt lat="49.40615" lon="1.18714">
        <ele>155</ele>
        <time>2017-06-06T16:03:19Z</time>
      </trkpt>
      <trkpt lat="49.40612" lon="1.18707">
        <ele>155</ele>
        <time>2017-06-06T16:03:19Z</time>
      </trkpt>
      <trkpt lat="49.4061" lon="1.187">
        <ele>155</ele>
        <time>2017-06-06T16:03:19Z</time>
      </trkpt>
      <trkpt lat="49.40607" lon="1.18695">
        <ele>155</ele>
        <time>2017-06-06T16:03:34Z</time>
      </trkpt>
      <trkpt lat="49.40603" lon="1.18689">
        <ele>155</ele>
        <time>2017-06-06T16:03:34Z</time>
      </trkpt>
      <trkpt lat="49.406" lon="1.18684">
        <ele>155</ele>
        <time>2017-06-06T16:03:34Z</time>
      </trkpt>
      <trkpt lat="49.40597" lon="1.18677">
        <ele>155</ele>
        <time>2017-06-06T16:03:34Z</time>
      </trkpt>
      <trkpt lat="49.40593" lon="1.1867">
        <ele>155</ele>
        <time>2017-06-06T16:03:51Z</time>
      </trkpt>
      <trkpt lat="49.40591" lon="1.18665">
        <ele>155</ele>
        <time>2017-06-06T16:03:51Z</time>
      </trkpt>
      <trkpt lat="49.40588" lon="1.18659">
        <ele>155</ele>
        <time>2017-06-06T16:03:51Z</time>
      </trkpt>
      <trkpt lat="49.40586" lon="1.18655">
        <ele>155</ele>
        <time>2017-06-06T16:03:51Z</time>
      </trkpt>
      <trkpt lat="49.40583" lon="1.18648">
        <ele>155</ele>
        <time>2017-06-06T16:04:07Z</time>
      </trkpt>
      <trkpt lat="49.40581" lon="1.18645">
        <ele>155</ele>
        <time>2017-06-06T16:04:07Z</time>
      </trkpt>
      <trkpt lat="49.40578" lon="1.1864">
        <ele>155</ele>
        <time>2017-06-06T16:04:07Z</time>
      </trkpt>
      <trkpt lat="49.40576" lon="1.18635">
        <ele>155</ele>
        <time>2017-06-06T16:04:07Z</time>
      </trkpt>
      <trkpt lat="49.40572" lon="1.1863">
        <ele>155</ele>
        <time>2017-06-06T16:04:24Z</time>
      </trkpt>
      <trkpt lat="49.40569" lon="1.18623">
        <ele>157</ele>
        <time>2017-06-06T16:04:24Z</time>
      </trkpt>
      <trkpt lat="49.40566" lon="1.18618">
        <ele>157</ele>
        <time>2017-06-06T16:04:24Z</time>
      </trkpt>
      <trkpt lat="49.40564" lon="1.18612">
        <ele>157</ele>
        <time>2017-06-06T16:04:24Z</time>
      </trkpt>
      <trkpt lat="49.40562" lon="1.18609">
        <ele>157</ele>
        <time>2017-06-06T16:04:39Z</time>
      </trkpt>
      <trkpt lat="49.4056" lon="1.18604">
        <ele>157</ele>
        <time>2017-06-06T16:04:39Z</time>
      </trkpt>
      <trkpt lat="49.40557" lon="1.18596">
        <ele>157</ele>
        <time>2017-06-06T16:04:39Z</time>
      </trkpt>
      <trkpt lat="49.40555" lon="1.18593">
        <ele>157</ele>
        <time>2017-06-06T16:04:39Z</time>
      </trkpt>
      <trkpt lat="49.40553" lon="1.18584">
        <ele>157</ele>
        <time>2017-06-06T16:04:55Z</time>
      </trkpt>
      <trkpt lat="49.40551" lon="1.18578">
        <ele>157</ele>
        <time>2017-06-06T16:04:55Z</time>
      </trkpt>
      <trkpt lat="49.40548" lon="1.18572">
        <ele>157</ele>
        <time>2017-06-06T16:04:55Z</time>
      </trkpt>
      <trkpt lat="49.40546" lon="1.18568">
        <ele>157</ele>
        <time>2017-06-06T16:04:55Z</time>
      </trkpt>
      <trkpt lat="49.40544" lon="1.1856">
        <ele>157</ele>
        <time>2017-06-06T16:05:11Z</time>
      </trkpt>
      <trkpt lat="49.40542" lon="1.18554">
        <ele>157</ele>
        <time>2017-06-06T16:05:11Z</time>
      </trkpt>
      <trkpt lat="49.40539" lon="1.18549">
        <ele>158</ele>
        <time>2017-06-06T16:05:11Z</time>
      </trkpt>
      <trkpt lat="49.40536" lon="1.18545">
        <ele>158</ele>
        <time>2017-06-06T16:05:11Z</time>
      </trkpt>
      <trkpt lat="49.40534" lon="1.1854">
        <ele>157</ele>
        <time>2017-06-06T16:05:27Z</time>
      </trkpt>
      <trkpt lat="49.4053" lon="1.18532">
        <ele>157</ele>
        <time>2017-06-06T16:05:27Z</time>
      </trkpt>
      <trkpt lat="49.40528" lon="1.18528">
        <ele>157</ele>
        <time>2017-06-06T16:05:27Z</time>
      </trkpt>
      <trkpt lat="49.40525" lon="1.18518">
        <ele>157</ele>
        <time>2017-06-06T16:05:27Z</time>
      </trkpt>
      <trkpt lat="49.40524" lon="1.18513">
        <ele>157</ele>
        <time>2017-06-06T16:05:42Z</time>
      </trkpt>
      <trkpt lat="49.40521" lon="1.18503">
        <ele>157</ele>
        <time>2017-06-06T16:05:42Z</time>
      </trkpt>
      <trkpt lat="49.40519" lon="1.18497">
        <ele>157</ele>
        <time>2017-06-06T16:05:42Z</time>
      </trkpt>
      <trkpt lat="49.40518" lon="1.1849">
        <ele>157</ele>
        <time>2017-06-06T16:05:42Z</time>
      </trkpt>
      <trkpt lat="49.40516" lon="1.18485">
        <ele>157</ele>
        <time>2017-06-06T16:05:58Z</time>
      </trkpt>
      <trkpt lat="49.40512" lon="1.18478">
        <ele>157</ele>
        <time>2017-06-06T16:05:59Z</time>
      </trkpt>
      <trkpt lat="49.40511" lon="1.18474">
        <ele>157</ele>
        <time>2017-06-06T16:05:59Z</time>
      </trkpt>
      <trkpt lat="49.40508" lon="1.18468">
        <ele>157</ele>
        <time>2017-06-06T16:05:59Z</time>
      </trkpt>
      <trkpt lat="49.40506" lon="1.18463">
        <ele>157</ele>
        <time>2017-06-06T16:06:16Z</time>
      </trkpt>
      <trkpt lat="49.40503" lon="1.18457">
        <ele>158</ele>
        <time>2017-06-06T16:06:16Z</time>
      </trkpt>
      <trkpt lat="49.40499" lon="1.18449">
        <ele>158</ele>
        <time>2017-06-06T16:06:16Z</time>
      </trkpt>
      <trkpt lat="49.40497" lon="1.18444">
        <ele>158</ele>
        <time>2017-06-06T16:06:16Z</time>
      </trkpt>
      <trkpt lat="49.40496" lon="1.1844">
        <ele>158</ele>
        <time>2017-06-06T16:06:31Z</time>
      </trkpt>
      <trkpt lat="49.40493" lon="1.18436">
        <ele>158</ele>
        <time>2017-06-06T16:06:31Z</time>
      </trkpt>
      <trkpt lat="49.40491" lon="1.18431">
        <ele>158</ele>
        <time>2017-06-06T16:06:31Z</time>
      </trkpt>
      <trkpt lat="49.40489" lon="1.18425">
        <ele>158</ele>
        <time>2017-06-06T16:06:31Z</time>
      </trkpt>
      <trkpt lat="49.40488" lon="1.18423">
        <ele>158</ele>
        <time>2017-06-06T16:08:11Z</time>
      </trkpt>
      <trkpt lat="49.40485" lon="1.18415">
        <ele>158</ele>
        <time>2017-06-06T16:08:11Z</time>
      </trkpt>
      <trkpt lat="49.40484" lon="1.18407">
        <ele>158</ele>
        <time>2017-06-06T16:08:11Z</time>
      </trkpt>
      <trkpt lat="49.40484" lon="1.184">
        <ele>158</ele>
        <time>2017-06-06T16:08:11Z</time>
      </trkpt>
      <trkpt lat="49.40484" lon="1.18393">
        <ele>158</ele>
        <time>2017-06-06T16:08:11Z</time>
      </trkpt>
      <trkpt lat="49.40484" lon="1.18388">
        <ele>158</ele>
        <time>2017-06-06T16:08:27Z</time>
      </trkpt>
      <trkpt lat="49.40485" lon="1.18379">
        <ele>158</ele>
        <time>2017-06-06T16:08:27Z</time>
      </trkpt>
      <trkpt lat="49.40486" lon="1.18374">
        <ele>158</ele>
        <time>2017-06-06T16:08:27Z</time>
      </trkpt>
      <trkpt lat="49.40486" lon="1.18364">
        <ele>158</ele>
        <time>2017-06-06T16:08:27Z</time>
      </trkpt>
      <trkpt lat="49.40487" lon="1.18356">
        <ele>158</ele>
        <time>2017-06-06T16:08:43Z</time>
      </trkpt>
      <trkpt lat="49.40487" lon="1.18351">
        <ele>158</ele>
        <time>2017-06-06T16:08:43Z</time>
      </trkpt>
      <trkpt lat="49.40489" lon="1.18341">
        <ele>158</ele>
        <time>2017-06-06T16:08:43Z</time>
      </trkpt>
      <trkpt lat="49.40489" lon="1.18335">
        <ele>158</ele>
        <time>2017-06-06T16:08:43Z</time>
      </trkpt>
      <trkpt lat="49.40486" lon="1.18329">
        <ele>158</ele>
        <time>2017-06-06T16:08:58Z</time>
      </trkpt>
      <trkpt lat="49.40481" lon="1.18325">
        <ele>158</ele>
        <time>2017-06-06T16:08:58Z</time>
      </trkpt>
      <trkpt lat="49.40476" lon="1.18322">
        <ele>158</ele>
        <time>2017-06-06T16:08:58Z</time>
      </trkpt>
      <trkpt lat="49.40473" lon="1.18319">
        <ele>158</ele>
        <time>2017-06-06T16:08:58Z</time>
      </trkpt>
      <trkpt lat="49.4047" lon="1.18317">
        <ele>158</ele>
        <time>2017-06-06T16:09:15Z</time>
      </trkpt>
      <trkpt lat="49.40465" lon="1.18313">
        <ele>158</ele>
        <time>2017-06-06T16:09:15Z</time>
      </trkpt>
      <trkpt lat="49.40461" lon="1.1831">
        <ele>158</ele>
        <time>2017-06-06T16:09:15Z</time>
      </trkpt>
      <trkpt lat="49.40456" lon="1.18307">
        <ele>158</ele>
        <time>2017-06-06T16:09:15Z</time>
      </trkpt>
      <trkpt lat="49.40453" lon="1.18306">
        <ele>158</ele>
        <time>2017-06-06T16:09:30Z</time>
      </trkpt>
      <trkpt lat="49.40449" lon="1.18305">
        <ele>158</ele>
        <time>2017-06-06T16:09:30Z</time>
      </trkpt>
      <trkpt lat="49.40444" lon="1.18301">
        <ele>158</ele>
        <time>2017-06-06T16:09:30Z</time>
      </trkpt>
      <trkpt lat="49.40441" lon="1.18298">
        <ele>158</ele>
        <time>2017-06-06T16:09:30Z</time>
      </trkpt>
      <trkpt lat="49.40435" lon="1.18296">
        <ele>158</ele>
        <time>2017-06-06T16:09:48Z</time>
      </trkpt>
      <trkpt lat="49.4043" lon="1.18294">
        <ele>158</ele>
        <time>2017-06-06T16:09:48Z</time>
      </trkpt>
      <trkpt lat="49.40426" lon="1.18292">
        <ele>158</ele>
        <time>2017-06-06T16:09:48Z</time>
      </trkpt>
      <trkpt lat="49.40419" lon="1.18289">
        <ele>158</ele>
        <time>2017-06-06T16:09:48Z</time>
      </trkpt>
      <trkpt lat="49.40416" lon="1.18288">
        <ele>158</ele>
        <time>2017-06-06T16:10:02Z</time>
      </trkpt>
      <trkpt lat="49.4041" lon="1.18287">
        <ele>158</ele>
        <time>2017-06-06T16:10:02Z</time>
      </trkpt>
      <trkpt lat="49.40406" lon="1.18285">
        <ele>158</ele>
        <time>2017-06-06T16:10:02Z</time>
      </trkpt>
      <trkpt lat="49.40401" lon="1.18282">
        <ele>158</ele>
        <time>2017-06-06T16:10:02Z</time>
      </trkpt>
      <trkpt lat="49.40398" lon="1.1828">
        <ele>158</ele>
        <time>2017-06-06T16:10:17Z</time>
      </trkpt>
      <trkpt lat="49.40395" lon="1.18275">
        <ele>158</ele>
        <time>2017-06-06T16:10:18Z</time>
      </trkpt>
      <trkpt lat="49.4039" lon="1.18273">
        <ele>158</ele>
        <time>2017-06-06T16:10:18Z</time>
      </trkpt>
      <trkpt lat="49.40387" lon="1.18271">
        <ele>158</ele>
        <time>2017-06-06T16:10:18Z</time>
      </trkpt>
      <trkpt lat="49.40381" lon="1.18269">
        <ele>158</ele>
        <time>2017-06-06T16:10:33Z</time>
      </trkpt>
      <trkpt lat="49.40378" lon="1.18265">
        <ele>158</ele>
        <time>2017-06-06T16:10:34Z</time>
      </trkpt>
      <trkpt lat="49.40375" lon="1.18261">
        <ele>158</ele>
        <time>2017-06-06T16:10:34Z</time>
      </trkpt>
      <trkpt lat="49.40371" lon="1.18258">
        <ele>156</ele>
        <time>2017-06-06T16:10:34Z</time>
      </trkpt>
      <trkpt lat="49.40364" lon="1.18255">
        <ele>156</ele>
        <time>2017-06-06T16:10:52Z</time>
      </trkpt>
      <trkpt lat="49.40361" lon="1.18253">
        <ele>156</ele>
        <time>2017-06-06T16:10:52Z</time>
      </trkpt>
      <trkpt lat="49.40355" lon="1.1825">
        <ele>156</ele>
        <time>2017-06-06T16:10:52Z</time>
      </trkpt>
      <trkpt lat="49.40351" lon="1.18247">
        <ele>156</ele>
        <time>2017-06-06T16:10:52Z</time>
      </trkpt>
      <trkpt lat="49.40348" lon="1.18245">
        <ele>156</ele>
        <time>2017-06-06T16:11:06Z</time>
      </trkpt>
      <trkpt lat="49.40345" lon="1.18243">
        <ele>156</ele>
        <time>2017-06-06T16:11:06Z</time>
      </trkpt>
      <trkpt lat="49.40343" lon="1.18241">
        <ele>156</ele>
        <time>2017-06-06T16:11:06Z</time>
      </trkpt>
      <trkpt lat="49.40338" lon="1.18239">
        <ele>156</ele>
        <time>2017-06-06T16:11:06Z</time>
      </trkpt>
      <trkpt lat="49.40333" lon="1.18236">
        <ele>156</ele>
        <time>2017-06-06T16:11:21Z</time>
      </trkpt>
      <trkpt lat="49.40329" lon="1.18234">
        <ele>156</ele>
        <time>2017-06-06T16:11:22Z</time>
      </trkpt>
      <trkpt lat="49.40324" lon="1.18233">
        <ele>156</ele>
        <time>2017-06-06T16:11:22Z</time>
      </trkpt>
      <trkpt lat="49.40321" lon="1.1823">
        <ele>156</ele>
        <time>2017-06-06T16:11:22Z</time>
      </trkpt>
      <trkpt lat="49.40316" lon="1.18225">
        <ele>156</ele>
        <time>2017-06-06T16:11:37Z</time>
      </trkpt>
      <trkpt lat="49.40314" lon="1.18224">
        <ele>156</ele>
        <time>2017-06-06T16:11:38Z</time>
      </trkpt>
      <trkpt lat="49.40311" lon="1.18223">
        <ele>156</ele>
        <time>2017-06-06T16:11:38Z</time>
      </trkpt>
      <trkpt lat="49.40307" lon="1.1822">
        <ele>156</ele>
        <time>2017-06-06T16:11:38Z</time>
      </trkpt>
      <trkpt lat="49.40303" lon="1.18215">
        <ele>156</ele>
        <time>2017-06-06T16:11:55Z</time>
      </trkpt>
      <trkpt lat="49.403" lon="1.18207">
        <ele>156</ele>
        <time>2017-06-06T16:11:55Z</time>
      </trkpt>
      <trkpt lat="49.40299" lon="1.18202">
        <ele>156</ele>
        <time>2017-06-06T16:11:55Z</time>
      </trkpt>
      <trkpt lat="49.40301" lon="1.18194">
        <ele>156</ele>
        <time>2017-06-06T16:11:55Z</time>
      </trkpt>
      <trkpt lat="49.40302" lon="1.1819">
        <ele>156</ele>
        <time>2017-06-06T16:12:09Z</time>
      </trkpt>
      <trkpt lat="49.40303" lon="1.18183">
        <ele>156</ele>
        <time>2017-06-06T16:12:10Z</time>
      </trkpt>
      <trkpt lat="49.40304" lon="1.18176">
        <ele>156</ele>
        <time>2017-06-06T16:12:10Z</time>
      </trkpt>
      <trkpt lat="49.40304" lon="1.18169">
        <ele>156</ele>
        <time>2017-06-06T16:12:10Z</time>
      </trkpt>
      <trkpt lat="49.40307" lon="1.18162">
        <ele>156</ele>
        <time>2017-06-06T16:12:26Z</time>
      </trkpt>
      <trkpt lat="49.40309" lon="1.18155">
        <ele>156</ele>
        <time>2017-06-06T16:12:26Z</time>
      </trkpt>
      <trkpt lat="49.4031" lon="1.18146">
        <ele>156</ele>
        <time>2017-06-06T16:12:26Z</time>
      </trkpt>
      <trkpt lat="49.40311" lon="1.18143">
        <ele>156</ele>
        <time>2017-06-06T16:12:26Z</time>
      </trkpt>
      <trkpt lat="49.40312" lon="1.18137">
        <ele>156</ele>
        <time>2017-06-06T16:12:43Z</time>
      </trkpt>
      <trkpt lat="49.40313" lon="1.18128">
        <ele>156</ele>
        <time>2017-06-06T16:12:43Z</time>
      </trkpt>
      <trkpt lat="49.40315" lon="1.18118">
        <ele>156</ele>
        <time>2017-06-06T16:12:43Z</time>
      </trkpt>
      <trkpt lat="49.40317" lon="1.18108">
        <ele>156</ele>
        <time>2017-06-06T16:12:43Z</time>
      </trkpt>
      <trkpt lat="49.40318" lon="1.18103">
        <ele>156</ele>
        <time>2017-06-06T16:12:59Z</time>
      </trkpt>
      <trkpt lat="49.40319" lon="1.18097">
        <ele>156</ele>
        <time>2017-06-06T16:12:59Z</time>
      </trkpt>
      <trkpt lat="49.4032" lon="1.1809">
        <ele>156</ele>
        <time>2017-06-06T16:12:59Z</time>
      </trkpt>
      <trkpt lat="49.40322" lon="1.18085">
        <ele>156</ele>
        <time>2017-06-06T16:12:59Z</time>
      </trkpt>
      <trkpt lat="49.40322" lon="1.18079">
        <ele>156</ele>
        <time>2017-06-06T16:13:13Z</time>
      </trkpt>
      <trkpt lat="49.40324" lon="1.18071">
        <ele>156</ele>
        <time>2017-06-06T16:13:14Z</time>
      </trkpt>
      <trkpt lat="49.40325" lon="1.18064">
        <ele>156</ele>
        <time>2017-06-06T16:13:14Z</time>
      </trkpt>
      <trkpt lat="49.40325" lon="1.18058">
        <ele>156</ele>
        <time>2017-06-06T16:13:14Z</time>
      </trkpt>
      <trkpt lat="49.40326" lon="1.18052">
        <ele>156</ele>
        <time>2017-06-06T16:13:31Z</time>
      </trkpt>
      <trkpt lat="49.40327" lon="1.18044">
        <ele>156</ele>
        <time>2017-06-06T16:13:31Z</time>
      </trkpt>
      <trkpt lat="49.40329" lon="1.18035">
        <ele>157</ele>
        <time>2017-06-06T16:13:31Z</time>
      </trkpt>
      <trkpt lat="49.4033" lon="1.18029">
        <ele>157</ele>
        <time>2017-06-06T16:13:31Z</time>
      </trkpt>
      <trkpt lat="49.40332" lon="1.18022">
        <ele>157</ele>
        <time>2017-06-06T16:13:47Z</time>
      </trkpt>
      <trkpt lat="49.40334" lon="1.18017">
        <ele>157</ele>
        <time>2017-06-06T16:13:47Z</time>
      </trkpt>
      <trkpt lat="49.40336" lon="1.18011">
        <ele>157</ele>
        <time>2017-06-06T16:13:47Z</time>
      </trkpt>
      <trkpt lat="49.40337" lon="1.18004">
        <ele>157</ele>
        <time>2017-06-06T16:13:47Z</time>
      </trkpt>
      <trkpt lat="49.40337" lon="1.18006">
        <ele>157</ele>
        <time>2017-06-06T16:15:21Z</time>
      </trkpt>
      <trkpt lat="49.40337" lon="1.18">
        <ele>157</ele>
        <time>2017-06-06T16:15:22Z</time>
      </trkpt>
      <trkpt lat="49.40338" lon="1.17993">
        <ele>157</ele>
        <time>2017-06-06T16:15:22Z</time>
      </trkpt>
      <trkpt lat="49.40339" lon="1.17986">
        <ele>157</ele>
        <time>2017-06-06T16:15:22Z</time>
      </trkpt>
      <trkpt lat="49.40342" lon="1.17978">
        <ele>157</ele>
        <time>2017-06-06T16:15:22Z</time>
      </trkpt>
      <trkpt lat="49.40345" lon="1.17972">
        <ele>157</ele>
        <time>2017-06-06T16:15:37Z</time>
      </trkpt>
      <trkpt lat="49.40348" lon="1.17965">
        <ele>157</ele>
        <time>2017-06-06T16:15:38Z</time>
      </trkpt>
      <trkpt lat="49.4035" lon="1.17959">
        <ele>157</ele>
        <time>2017-06-06T16:15:38Z</time>
      </trkpt>
      <trkpt lat="49.40352" lon="1.17953">
        <ele>155</ele>
        <time>2017-06-06T16:15:38Z</time>
      </trkpt>
      <trkpt lat="49.40354" lon="1.17945">
        <ele>155</ele>
        <time>2017-06-06T16:15:53Z</time>
      </trkpt>
      <trkpt lat="49.40355" lon="1.17939">
        <ele>155</ele>
        <time>2017-06-06T16:15:54Z</time>
      </trkpt>
      <trkpt lat="49.40356" lon="1.17931">
        <ele>155</ele>
        <time>2017-06-06T16:15:54Z</time>
      </trkpt>
      <trkpt lat="49.40357" lon="1.17925">
        <ele>155</ele>
        <time>2017-06-06T16:15:54Z</time>
      </trkpt>
      <trkpt lat="49.40359" lon="1.1792">
        <ele>155</ele>
        <time>2017-06-06T16:16:09Z</time>
      </trkpt>
      <trkpt lat="49.40359" lon="1.17911">
        <ele>155</ele>
        <time>2017-06-06T16:16:10Z</time>
      </trkpt>
      <trkpt lat="49.40359" lon="1.17904">
        <ele>155</ele>
        <time>2017-06-06T16:16:10Z</time>
      </trkpt>
      <trkpt lat="49.40359" lon="1.17898">
        <ele>155</ele>
        <time>2017-06-06T16:16:10Z</time>
      </trkpt>
      <trkpt lat="49.40359" lon="1.17892">
        <ele>155</ele>
        <time>2017-06-06T16:16:31Z</time>
      </trkpt>
      <trkpt lat="49.4036" lon="1.17892">
        <ele>155</ele>
        <time>2017-06-06T16:16:31Z</time>
      </trkpt>
      <trkpt lat="49.4036" lon="1.17887">
        <ele>155</ele>
        <time>2017-06-06T16:16:31Z</time>
      </trkpt>
      <trkpt lat="49.40361" lon="1.17879">
        <ele>155</ele>
        <time>2017-06-06T16:16:31Z</time>
      </trkpt>
      <trkpt lat="49.4036" lon="1.17873">
        <ele>154</ele>
        <time>2017-06-06T16:16:31Z</time>
      </trkpt>
      <trkpt lat="49.40359" lon="1.17865">
        <ele>154</ele>
        <time>2017-06-06T16:16:47Z</time>
      </trkpt>
      <trkpt lat="49.40358" lon="1.17857">
        <ele>154</ele>
        <time>2017-06-06T16:16:47Z</time>
      </trkpt>
      <trkpt lat="49.40359" lon="1.17848">
        <ele>154</ele>
        <time>2017-06-06T16:16:47Z</time>
      </trkpt>
      <trkpt lat="49.4036" lon="1.1784">
        <ele>154</ele>
        <time>2017-06-06T16:16:47Z</time>
      </trkpt>
      <trkpt lat="49.4036" lon="1.17832">
        <ele>154</ele>
        <time>2017-06-06T16:17:03Z</time>
      </trkpt>
      <trkpt lat="49.40361" lon="1.17824">
        <ele>154</ele>
        <time>2017-06-06T16:17:03Z</time>
      </trkpt>
      <trkpt lat="49.40362" lon="1.17818">
        <ele>154</ele>
        <time>2017-06-06T16:17:03Z</time>
      </trkpt>
      <trkpt lat="49.40363" lon="1.17812">
        <ele>154</ele>
        <time>2017-06-06T16:17:03Z</time>
      </trkpt>
      <trkpt lat="49.40364" lon="1.17807">
        <ele>154</ele>
        <time>2017-06-06T16:17:17Z</time>
      </trkpt>
      <trkpt lat="49.40366" lon="1.17797">
        <ele>154</ele>
        <time>2017-06-06T16:17:18Z</time>
      </trkpt>
      <trkpt lat="49.40368" lon="1.1779">
        <ele>153</ele>
        <time>2017-06-06T16:17:18Z</time>
      </trkpt>
      <trkpt lat="49.40369" lon="1.17783">
        <ele>153</ele>
        <time>2017-06-06T16:17:18Z</time>
      </trkpt>
      <trkpt lat="49.4037" lon="1.17777">
        <ele>153</ele>
        <time>2017-06-06T16:17:35Z</time>
      </trkpt>
      <trkpt lat="49.40371" lon="1.17769">
        <ele>153</ele>
        <time>2017-06-06T16:17:35Z</time>
      </trkpt>
      <trkpt lat="49.40373" lon="1.1776">
        <ele>153</ele>
        <time>2017-06-06T16:17:35Z</time>
      </trkpt>
      <trkpt lat="49.40374" lon="1.17754">
        <ele>153</ele>
        <time>2017-06-06T16:17:35Z</time>
      </trkpt>
      <trkpt lat="49.40375" lon="1.17748">
        <ele>155</ele>
        <time>2017-06-06T16:17:51Z</time>
      </trkpt>
      <trkpt lat="49.40377" lon="1.1774">
        <ele>155</ele>
        <time>2017-06-06T16:17:51Z</time>
      </trkpt>
      <trkpt lat="49.40378" lon="1.17736">
        <ele>155</ele>
        <time>2017-06-06T16:17:51Z</time>
      </trkpt>
      <trkpt lat="49.40378" lon="1.17729">
        <ele>155</ele>
        <time>2017-06-06T16:17:51Z</time>
      </trkpt>
      <trkpt lat="49.40379" lon="1.17721">
        <ele>155</ele>
        <time>2017-06-06T16:18:07Z</time>
      </trkpt>
      <trkpt lat="49.40382" lon="1.17712">
        <ele>155</ele>
        <time>2017-06-06T16:18:07Z</time>
      </trkpt>
      <trkpt lat="49.40384" lon="1.17705">
        <ele>155</ele>
        <time>2017-06-06T16:18:07Z</time>
      </trkpt>
      <trkpt lat="49.40386" lon="1.17698">
        <ele>155</ele>
        <time>2017-06-06T16:18:07Z</time>
      </trkpt>
      <trkpt lat="49.40386" lon="1.17692">
        <ele>155</ele>
        <time>2017-06-06T16:18:21Z</time>
      </trkpt>
      <trkpt lat="49.40387" lon="1.17686">
        <ele>155</ele>
        <time>2017-06-06T16:18:22Z</time>
      </trkpt>
      <trkpt lat="49.40389" lon="1.17676">
        <ele>155</ele>
        <time>2017-06-06T16:18:22Z</time>
      </trkpt>
      <trkpt lat="49.40391" lon="1.17669">
        <ele>155</ele>
        <time>2017-06-06T16:18:22Z</time>
      </trkpt>
      <trkpt lat="49.40391" lon="1.1766">
        <ele>155</ele>
        <time>2017-06-06T16:18:39Z</time>
      </trkpt>
      <trkpt lat="49.40392" lon="1.17656">
        <ele>155</ele>
        <time>2017-06-06T16:18:39Z</time>
      </trkpt>
      <trkpt lat="49.40394" lon="1.17652">
        <ele>155</ele>
        <time>2017-06-06T16:18:39Z</time>
      </trkpt>
      <trkpt lat="49.40396" lon="1.17647">
        <ele>155</ele>
        <time>2017-06-06T16:18:39Z</time>
      </trkpt>
      <trkpt lat="49.40399" lon="1.17641">
        <ele>155</ele>
        <time>2017-06-06T16:18:55Z</time>
      </trkpt>
      <trkpt lat="49.40401" lon="1.17633">
        <ele>155</ele>
        <time>2017-06-06T16:18:55Z</time>
      </trkpt>
      <trkpt lat="49.40404" lon="1.17628">
        <ele>155</ele>
        <time>2017-06-06T16:18:55Z</time>
      </trkpt>
      <trkpt lat="49.40405" lon="1.17621">
        <ele>155</ele>
        <time>2017-06-06T16:18:55Z</time>
      </trkpt>
      <trkpt lat="49.40407" lon="1.17614">
        <ele>155</ele>
        <time>2017-06-06T16:19:11Z</time>
      </trkpt>
      <trkpt lat="49.40409" lon="1.17608">
        <ele>155</ele>
        <time>2017-06-06T16:19:11Z</time>
      </trkpt>
      <trkpt lat="49.40411" lon="1.17602">
        <ele>155</ele>
        <time>2017-06-06T16:19:11Z</time>
      </trkpt>
      <trkpt lat="49.40412" lon="1.17595">
        <ele>155</ele>
        <time>2017-06-06T16:19:11Z</time>
      </trkpt>
      <trkpt lat="49.40414" lon="1.17589">
        <ele>155</ele>
        <time>2017-06-06T16:19:27Z</time>
      </trkpt>
      <trkpt lat="49.40414" lon="1.17582">
        <ele>155</ele>
        <time>2017-06-06T16:19:27Z</time>
      </trkpt>
      <trkpt lat="49.40416" lon="1.17575">
        <ele>155</ele>
        <time>2017-06-06T16:19:27Z</time>
      </trkpt>
      <trkpt lat="49.40417" lon="1.17569">
        <ele>155</ele>
        <time>2017-06-06T16:19:27Z</time>
      </trkpt>
      <trkpt lat="49.40418" lon="1.17561">
        <ele>155</ele>
        <time>2017-06-06T16:19:43Z</time>
      </trkpt>
      <trkpt lat="49.4042" lon="1.17554">
        <ele>155</ele>
        <time>2017-06-06T16:19:43Z</time>
      </trkpt>
      <trkpt lat="49.40422" lon="1.17546">
        <ele>155</ele>
        <time>2017-06-06T16:19:43Z</time>
      </trkpt>
      <trkpt lat="49.40424" lon="1.17541">
        <ele>155</ele>
        <time>2017-06-06T16:19:43Z</time>
      </trkpt>
      <trkpt lat="49.40425" lon="1.17535">
        <ele>155</ele>
        <time>2017-06-06T16:19:59Z</time>
      </trkpt>
      <trkpt lat="49.40426" lon="1.17528">
        <ele>155</ele>
        <time>2017-06-06T16:19:59Z</time>
      </trkpt>
      <trkpt lat="49.40427" lon="1.17521">
        <ele>155</ele>
        <time>2017-06-06T16:19:59Z</time>
      </trkpt>
      <trkpt lat="49.40428" lon="1.17515">
        <ele>155</ele>
        <time>2017-06-06T16:19:59Z</time>
      </trkpt>
      <trkpt lat="49.40429" lon="1.17508">
        <ele>155</ele>
        <time>2017-06-06T16:20:15Z</time>
      </trkpt>
      <trkpt lat="49.40429" lon="1.17502">
        <ele>155</ele>
        <time>2017-06-06T16:20:15Z</time>
      </trkpt>
      <trkpt lat="49.40431" lon="1.17494">
        <ele>155</ele>
        <time>2017-06-06T16:20:15Z</time>
      </trkpt>
      <trkpt lat="49.40433" lon="1.17486">
        <ele>155</ele>
        <time>2017-06-06T16:20:15Z</time>
      </trkpt>
      <trkpt lat="49.40436" lon="1.17478">
        <ele>155</ele>
        <time>2017-06-06T16:20:31Z</time>
      </trkpt>
      <trkpt lat="49.40437" lon="1.17472">
        <ele>155</ele>
        <time>2017-06-06T16:20:31Z</time>
      </trkpt>
      <trkpt lat="49.40439" lon="1.17464">
        <ele>155</ele>
        <time>2017-06-06T16:20:31Z</time>
      </trkpt>
      <trkpt lat="49.40439" lon="1.17456">
        <ele>154</ele>
        <time>2017-06-06T16:20:31Z</time>
      </trkpt>
      <trkpt lat="49.4044" lon="1.17448">
        <ele>154</ele>
        <time>2017-06-06T16:20:46Z</time>
      </trkpt>
      <trkpt lat="49.40442" lon="1.1744">
        <ele>154</ele>
        <time>2017-06-06T16:20:46Z</time>
      </trkpt>
      <trkpt lat="49.40445" lon="1.17433">
        <ele>154</ele>
        <time>2017-06-06T16:20:46Z</time>
      </trkpt>
      <trkpt lat="49.40446" lon="1.17427">
        <ele>154</ele>
        <time>2017-06-06T16:20:46Z</time>
      </trkpt>
      <trkpt lat="49.40448" lon="1.1742">
        <ele>154</ele>
        <time>2017-06-06T16:21:03Z</time>
      </trkpt>
      <trkpt lat="49.40449" lon="1.17413">
        <ele>154</ele>
        <time>2017-06-06T16:21:03Z</time>
      </trkpt>
      <trkpt lat="49.40451" lon="1.17408">
        <ele>154</ele>
        <time>2017-06-06T16:21:03Z</time>
      </trkpt>
      <trkpt lat="49.40453" lon="1.17402">
        <ele>154</ele>
        <time>2017-06-06T16:21:03Z</time>
      </trkpt>
      <trkpt lat="49.40455" lon="1.17396">
        <ele>154</ele>
        <time>2017-06-06T16:21:18Z</time>
      </trkpt>
      <trkpt lat="49.40456" lon="1.17387">
        <ele>154</ele>
        <time>2017-06-06T16:21:18Z</time>
      </trkpt>
      <trkpt lat="49.40459" lon="1.1738">
        <ele>156</ele>
        <time>2017-06-06T16:21:18Z</time>
      </trkpt>
      <trkpt lat="49.40461" lon="1.17374">
        <ele>156</ele>
        <time>2017-06-06T16:21:18Z</time>
      </trkpt>
      <trkpt lat="49.40464" lon="1.17368">
        <ele>156</ele>
        <time>2017-06-06T16:21:35Z</time>
      </trkpt>
      <trkpt lat="49.40466" lon="1.17362">
        <ele>156</ele>
        <time>2017-06-06T16:21:35Z</time>
      </trkpt>
      <trkpt lat="49.40469" lon="1.17355">
        <ele>156</ele>
        <time>2017-06-06T16:21:35Z</time>
      </trkpt>
      <trkpt lat="49.40471" lon="1.17347">
        <ele>156</ele>
        <time>2017-06-06T16:21:35Z</time>
      </trkpt>
      <trkpt lat="49.40474" lon="1.17341">
        <ele>156</ele>
        <time>2017-06-06T16:21:49Z</time>
      </trkpt>
      <trkpt lat="49.40474" lon="1.17335">
        <ele>156</ele>
        <time>2017-06-06T16:21:50Z</time>
      </trkpt>
      <trkpt lat="49.40469" lon="1.17332">
        <ele>156</ele>
        <time>2017-06-06T16:21:50Z</time>
      </trkpt>
      <trkpt lat="49.40465" lon="1.17329">
        <ele>156</ele>
        <time>2017-06-06T16:21:50Z</time>
      </trkpt>
      <trkpt lat="49.40461" lon="1.17324">
        <ele>156</ele>
        <time>2017-06-06T16:22:06Z</time>
      </trkpt>
      <trkpt lat="49.40458" lon="1.17319">
        <ele>153</ele>
        <time>2017-06-06T16:22:06Z</time>
      </trkpt>
      <trkpt lat="49.40454" lon="1.17312">
        <ele>153</ele>
        <time>2017-06-06T16:22:06Z</time>
      </trkpt>
      <trkpt lat="49.40452" lon="1.17309">
        <ele>153</ele>
        <time>2017-06-06T16:22:06Z</time>
      </trkpt>
      <trkpt lat="49.40448" lon="1.17302">
        <ele>153</ele>
        <time>2017-06-06T16:22:23Z</time>
      </trkpt>
      <trkpt lat="49.40444" lon="1.17298">
        <ele>153</ele>
        <time>2017-06-06T16:22:23Z</time>
      </trkpt>
      <trkpt lat="49.40442" lon="1.17295">
        <ele>153</ele>
        <time>2017-06-06T16:22:23Z</time>
      </trkpt>
      <trkpt lat="49.40437" lon="1.17289">
        <ele>153</ele>
        <time>2017-06-06T16:22:23Z</time>
      </trkpt>
      <trkpt lat="49.40434" lon="1.17287">
        <ele>153</ele>
        <time>2017-06-06T16:22:39Z</time>
      </trkpt>
      <trkpt lat="49.40428" lon="1.17285">
        <ele>153</ele>
        <time>2017-06-06T16:22:39Z</time>
      </trkpt>
      <trkpt lat="49.40424" lon="1.17282">
        <ele>153</ele>
        <time>2017-06-06T16:22:39Z</time>
      </trkpt>
      <trkpt lat="49.40421" lon="1.17278">
        <ele>153</ele>
        <time>2017-06-06T16:22:39Z</time>
      </trkpt>
      <trkpt lat="49.40416" lon="1.17275">
        <ele>153</ele>
        <time>2017-06-06T16:22:55Z</time>
      </trkpt>
      <trkpt lat="49.40409" lon="1.1727">
        <ele>153</ele>
        <time>2017-06-06T16:22:55Z</time>
      </trkpt>
      <trkpt lat="49.40405" lon="1.17268">
        <ele>153</ele>
        <time>2017-06-06T16:22:55Z</time>
      </trkpt>
      <trkpt lat="49.40401" lon="1.17265">
        <ele>153</ele>
        <time>2017-06-06T16:22:55Z</time>
      </trkpt>
      <trkpt lat="49.40395" lon="1.17264">
        <ele>153</ele>
        <time>2017-06-06T16:23:11Z</time>
      </trkpt>
      <trkpt lat="49.40391" lon="1.17261">
        <ele>153</ele>
        <time>2017-06-06T16:23:11Z</time>
      </trkpt>
      <trkpt lat="49.40386" lon="1.1726">
        <ele>153</ele>
        <time>2017-06-06T16:23:11Z</time>
      </trkpt>
      <trkpt lat="49.40381" lon="1.17256">
        <ele>153</ele>
        <time>2017-06-06T16:23:11Z</time>
      </trkpt>
      <trkpt lat="49.40378" lon="1.17254">
        <ele>153</ele>
        <time>2017-06-06T16:23:27Z</time>
      </trkpt>
      <trkpt lat="49.40374" lon="1.1725">
        <ele>151</ele>
        <time>2017-06-06T16:23:27Z</time>
      </trkpt>
      <trkpt lat="49.4037" lon="1.17247">
        <ele>151</ele>
        <time>2017-06-06T16:23:27Z</time>
      </trkpt>
      <trkpt lat="49.40365" lon="1.17242">
        <ele>151</ele>
        <time>2017-06-06T16:23:27Z</time>
      </trkpt>
      <trkpt lat="49.4036" lon="1.17238">
        <ele>151</ele>
        <time>2017-06-06T16:23:44Z</time>
      </trkpt>
      <trkpt lat="49.40356" lon="1.17236">
        <ele>151</ele>
        <time>2017-06-06T16:23:44Z</time>
      </trkpt>
      <trkpt lat="49.40351" lon="1.17231">
        <ele>151</ele>
        <time>2017-06-06T16:23:44Z</time>
      </trkpt>
      <trkpt lat="49.40346" lon="1.17228">
        <ele>151</ele>
        <time>2017-06-06T16:23:44Z</time>
      </trkpt>
      <trkpt lat="49.40342" lon="1.17226">
        <ele>151</ele>
        <time>2017-06-06T16:23:59Z</time>
      </trkpt>
      <trkpt lat="49.40336" lon="1.17227">
        <ele>151</ele>
        <time>2017-06-06T16:23:59Z</time>
      </trkpt>
      <trkpt lat="49.4033" lon="1.17227">
        <ele>151</ele>
        <time>2017-06-06T16:23:59Z</time>
      </trkpt>
      <trkpt lat="49.40327" lon="1.17224">
        <ele>151</ele>
        <time>2017-06-06T16:23:59Z</time>
      </trkpt>
      <trkpt lat="49.40325" lon="1.17219">
        <ele>151</ele>
        <time>2017-06-06T16:24:13Z</time>
      </trkpt>
      <trkpt lat="49.40324" lon="1.17213">
        <ele>151</ele>
        <time>2017-06-06T16:24:14Z</time>
      </trkpt>
      <trkpt lat="49.4032" lon="1.17209">
        <ele>151</ele>
        <time>2017-06-06T16:24:14Z</time>
      </trkpt>
      <trkpt lat="49.40319" lon="1.17203">
        <ele>151</ele>
        <time>2017-06-06T16:24:14Z</time>
      </trkpt>
    </trkseg>
  </trk>
</gpx>